[[[{"header":{"parameterUnit":"kt","parameterCategory":2,"dx":1,"dy":1,"la1":29.285339999999998,"la2":30.599998999999997,"lo1":-89.70041500000002,"lo2":-87.6738589999976,"nx":112,"ny":82,"refTime":"2022-09-25T12:00:00:Z","depth":0,"parameterNumber":1,"parameterNumberName":"U-component_of_WINDS"},"data":[1.8764,2.0646,2.1995,2.1732,2.2722,2.3582,2.3053,2.5146,2.7591,2.8872,3.0643,3.2679,3.5007,3.5602,3.6242,3.7711,3.7254,3.6327,0.0,3.4261,3.3866,3.4653,3.5101,3.5568,3.6207,3.5991,3.6328,3.7818,3.6985,3.7021,3.8412,3.8485,3.8485,3.8485,3.785,3.7509,3.7509,3.6484,3.5947,3.5947,3.5556,3.5386,3.5361,3.4678,3.4361,3.4312,3.358,3.3262,3.3262,3.3262,3.3262,3.3238,3.2848,3.2701,3.2652,3.2262,3.2115,3.2115,3.2115,3.2115,3.2115,3.2115,3.2115,3.2115,3.2115,3.2115,3.2115,3.2115,3.2115,3.2115,3.2115,3.2115,3.2115,3.2115,3.1756,3.1202,3.0472,2.908,2.7764,2.6946,2.5919,2.5038,2.5038,2.5038,2.5038,2.5038,2.5038,2.5038,2.5038,2.3786,2.2965,2.2965,2.2482,2.2289,2.2289,2.3114,2.3822,2.4299,2.3918,2.363,2.363,2.3132,2.2242,2.0936,2.0061,1.9463,1.9076,1.8196,1.8007,1.8486,1.8486,1.8688,1.7125,1.9439,2.1053,2.1137,2.273,2.4138,2.3662,2.5708,2.8082,2.8972,3.0406,3.1875,3.333,3.387,3.456,3.5947,3.5921,3.5414,0.0,3.4024,3.3491,3.3112,3.4121,3.521,3.6224,3.6034,3.6452,3.7843,3.6665,3.6508,3.7899,3.7631,3.7435,3.7435,3.6801,3.6435,3.6435,3.5386,3.4849,3.4849,3.4458,3.4287,3.4263,3.3531,3.3214,3.3189,3.2433,3.2115,3.2115,3.2115,3.2115,3.2115,3.2115,3.2115,3.2115,3.2115,3.2115,3.2115,3.2115,3.2115,3.2115,3.2115,3.2115,3.2115,3.2115,3.2115,3.2115,3.2115,3.2115,3.2115,3.2115,3.2115,3.2115,3.2115,3.2115,3.184,3.1117,2.9977,2.8837,2.7673,2.6436,2.5565,2.5133,2.5038,2.5038,2.5038,2.5038,2.5038,2.5038,2.3786,2.2965,2.2965,2.2579,2.2289,2.2289,2.3114,2.3918,2.4299,2.4318,2.4318,2.4318,2.4318,2.369,2.2289,2.1411,2.0822,2.0344,1.9463,1.9076,1.9076,1.8196,1.8007,1.6259,1.8215,1.9281,2.0862,2.3403,2.5299,2.4606,2.6623,2.8748,2.9158,2.9775,3.0998,3.3173,3.2703,3.2777,3.48,3.4303,0.0,0.0,3.3703,3.3295,3.2189,3.3079,3.4263,3.5245,3.4458,3.4612,3.673,3.4995,3.4702,3.673,3.5947,3.5386,3.5386,3.5361,3.5337,3.5337,3.4263,3.3726,3.3726,3.2628,3.2115,3.2115,3.2115,3.2115,3.2115,3.2115,3.2115,3.2115,3.2115,3.2115,3.2115,3.2115,3.2115,3.2115,3.2115,3.2115,3.2115,3.2115,3.2115,3.2115,3.2115,3.2115,3.2115,3.2115,3.2115,3.2115,3.2115,3.2115,3.2115,3.2115,3.2115,3.2115,3.2115,3.2115,3.2115,3.2115,3.1117,2.9954,2.8837,2.7583,2.6436,2.5302,2.5038,2.5038,2.5038,2.5038,2.5038,2.5038,2.39,2.2965,2.2965,2.19,2.1117,2.1117,2.1117,2.1705,2.2869,2.2965,2.2965,2.2965,2.2965,2.2386,2.1117,2.1019,2.1705,2.2869,2.2869,2.2869,2.2772,2.0244,1.8399,1.5569,1.8271,1.9676,2.1649,2.4313,2.644,2.658,2.83,3.0144,3.112,3.0853,0.0,0.0,0.0,3.229,3.2829,0.0,3.5393,3.3889,3.5004,3.4869,3.1751,3.2586,3.3846,3.4878,3.4057,3.3987,3.5299,3.4398,3.4385,3.5752,3.5556,3.5386,3.5386,3.4629,3.4214,3.4214,3.3116,3.2579,3.2555,3.2262,3.2115,3.2115,3.2115,3.2115,3.2115,3.2115,3.2115,3.2115,3.2115,3.2115,3.2115,3.2115,3.2115,3.2115,3.2115,3.2115,3.2115,3.2115,3.2115,3.2115,3.2115,3.2115,3.2115,3.2115,3.2115,3.2115,3.2115,3.2115,3.2115,3.2115,3.2115,3.2115,3.2115,3.2115,3.2115,3.2115,3.1117,2.9954,2.8837,2.7583,2.6436,2.5302,2.5038,2.5038,2.5038,2.5038,2.5038,2.5038,2.4716,2.4508,2.4508,2.4127,2.3936,2.3936,2.3936,2.4127,2.4527,2.4508,2.4508,2.4508,2.4508,2.3804,2.2482,2.2386,2.2094,2.1509,2.1509,2.1019,2.0145,2.0344,2.0244,1.5984,1.9329,2.091,2.264,2.4965,2.7005,2.7721,2.9136,3.055,3.1259,0.0,0.0,0.0,0.0,0.0,0.0,3.2018,3.2895,3.2092,3.3468,3.3378,3.0407,3.1615,3.2751,3.2813,3.2768,3.3143,3.428,3.3521,3.3555,3.4653,3.4263,3.4019,3.4019,3.3409,3.3092,3.3092,3.2433,3.2115,3.2115,3.2115,3.2115,3.2115,3.2115,3.2115,3.2115,3.2115,3.2115,3.2115,3.2115,3.2115,3.2115,3.2115,3.2115,3.2115,3.2115,3.2115,3.2115,3.2115,3.2115,3.2115,3.2115,3.2115,3.2115,3.2115,3.2115,3.2115,3.2115,3.2115,3.2115,3.2115,3.2115,3.2115,3.2115,3.2115,3.2115,3.2115,3.1564,3.0667,2.9519,2.837,2.7241,2.5993,2.5826,2.5639,2.5133,2.5038,2.5038,2.5038,2.5038,2.5038,2.5038,2.5038,2.5038,2.5038,2.5038,2.5038,2.5038,2.5038,2.5038,2.5038,2.5038,2.4716,2.39,2.3786,2.3499,2.2728,2.2728,2.2031,2.0739,2.0936,2.0739,1.7395,2.1172,2.259,2.359,2.5328,2.7129,2.8124,0.0,3.0177,3.0344,0.0,2.9809,2.884,0.0,0.0,2.8244,2.8392,2.8691,2.9517,3.0267,3.0116,2.8638,3.0326,3.114,2.9964,3.0885,3.2034,3.3143,3.2342,3.2361,3.3555,3.2652,3.2115,3.2115,3.2115,3.2115,3.2115,3.2115,3.2115,3.2115,3.2115,3.2115,3.2115,3.2115,3.2115,3.2115,3.2115,3.2115,3.2115,3.2115,3.2115,3.2115,3.2115,3.2115,3.2115,3.2115,3.2115,3.2115,3.2115,3.2115,3.2115,3.2115,3.2174,3.2258,3.2258,3.2258,3.2258,3.2258,3.2174,3.2115,3.2115,3.2115,3.2115,3.2115,3.2115,3.2115,3.2115,3.2115,3.1756,3.0558,2.9519,2.8481,2.7402,2.7038,2.6508,2.5377,2.5133,2.5038,2.5038,2.5038,2.5038,2.5038,2.5038,2.5038,2.5038,2.5038,2.5038,2.5038,2.5038,2.5038,2.5038,2.5038,2.5038,2.5038,2.5038,2.5038,2.5038,2.5038,2.4413,2.3175,2.1802,2.064,1.9686,2.2664,2.3785,2.4602,2.5874,2.6855,0.0,0.0,0.0,2.9766,2.8725,2.7797,2.8222,2.7611,2.7087,2.7287,2.8723,2.9507,2.8919,2.8436,2.8036,2.7724,2.9031,2.9454,2.804,2.917,3.0083,3.0479,3.0617,3.1211,3.2324,3.2213,3.2115,3.2115,3.2115,3.2115,3.2115,3.2115,3.2115,3.2115,3.2115,3.2115,3.2115,3.2115,3.2115,3.2115,3.2115,3.2115,3.2115,3.2115,3.2115,3.2115,3.2115,3.2115,3.2115,3.2115,3.2115,3.2115,3.2115,3.2115,3.2115,3.2115,3.2646,3.333,3.333,3.333,3.333,3.333,3.2729,3.2115,3.2115,3.2115,3.2115,3.2115,3.2115,3.2115,3.2115,3.2115,3.1756,3.0558,3.0127,2.9954,2.9671,2.8102,2.6784,2.6508,2.5639,2.5038,2.5038,2.5038,2.5038,2.5038,2.5038,2.5038,2.5038,2.5038,2.5038,2.5038,2.5038,2.5038,2.5038,2.5038,2.5038,2.5038,2.5038,2.5038,2.5038,2.5038,2.4944,2.4622,2.3193,2.3096,2.1899,2.4259,2.4807,2.5663,2.59,0.0,0.0,2.7311,2.7652,2.7409,2.6675,2.6,2.5749,2.5377,2.5256,2.598,2.7273,2.7593,2.5993,2.6032,2.6253,2.6253,2.6906,2.6984,2.6352,2.6906,2.7563,2.8205,2.9524,3.0558,3.1202,3.1756,3.2115,3.2115,3.2115,3.2115,3.2115,3.2115,3.2115,3.2115,3.2115,3.2115,3.2115,3.2115,3.2115,3.2115,3.2115,3.2115,3.2115,3.2115,3.2115,3.2115,3.2115,3.2115,3.2115,3.2115,3.2115,3.2115,3.2115,3.2115,3.2115,3.2115,3.2424,3.2868,3.2868,3.2868,3.2949,3.3491,3.3275,3.2868,3.2868,3.2482,3.2115,3.2115,3.2115,3.2115,3.2115,3.2115,3.1924,3.1286,3.1202,3.1008,3.0386,2.9321,2.8192,2.7038,2.6344,2.5733,2.5133,2.5038,2.5038,2.5038,2.5038,2.5038,2.5038,2.5038,2.5038,2.5038,2.5038,2.5038,2.5038,2.5038,2.5038,2.5038,2.5038,2.5038,2.5038,2.5038,2.5038,2.5038,2.3594,2.3271,2.3703,2.5712,2.6043,2.6438,2.5526,0.0,2.5841,2.5914,2.5439,2.4672,2.442,2.4003,2.3082,2.2808,2.3045,2.4112,2.5067,2.4922,2.2859,2.3804,2.4622,2.4622,2.4925,2.5038,2.5038,2.5038,2.5471,2.6436,2.8438,2.9845,3.03,3.1479,3.2115,3.2115,3.2115,3.2115,3.2115,3.2115,3.2115,3.2115,3.2115,3.2115,3.2115,3.2115,3.2115,3.2115,3.2115,3.2115,3.2115,3.2115,3.2115,3.2115,3.2115,3.2174,3.2424,3.2424,3.2482,3.2646,3.2424,3.2424,3.2424,3.2424,3.2424,3.2482,3.2868,3.2949,3.3193,3.4024,3.4104,3.3945,3.3945,3.333,3.2646,3.2424,3.2424,3.2341,3.2115,3.2115,3.2115,3.2115,3.2115,3.1756,3.0838,3.0472,2.9671,2.7833,2.7311,2.6784,2.5565,2.5377,2.5302,2.5133,2.5038,2.5038,2.5038,2.5038,2.5038,2.5038,2.5038,2.5038,2.5038,2.5038,2.5038,2.5038,2.5038,2.5038,2.5038,2.5038,2.5038,2.5038,2.39,2.3367,2.459,2.6771,2.7748,2.5713,2.4186,0.0,2.3349,2.2465,2.1854,2.2518,2.202,2.1673,2.2333,2.1821,2.1313,2.1411,2.2471,2.278,2.1428,2.2289,2.3175,2.3175,2.4318,2.5038,2.5038,2.5038,2.5133,2.5208,2.6436,2.8102,3.0214,3.1479,3.2115,3.2115,3.2115,3.2115,3.2115,3.2115,3.2115,3.2115,3.2115,3.2115,3.2115,3.2115,3.2115,3.2115,3.2115,3.2115,3.2115,3.2115,3.2115,3.2115,3.2115,3.2646,3.3411,3.3411,3.4024,3.4731,3.3812,3.3411,3.3411,3.3411,3.3411,3.3812,3.5652,3.6179,3.6253,3.6327,3.5728,3.5041,3.5041,3.4964,3.4575,3.3652,3.3411,3.3193,3.2258,3.2115,3.2115,3.2115,3.2115,3.2008,3.1924,3.1008,3.0191,2.9954,2.908,2.7944,2.6784,2.66,2.6251,2.5227,2.5038,2.5038,2.5038,2.5038,2.5038,2.5038,2.5038,2.5038,2.5038,2.5038,2.5038,2.5038,2.5038,2.5038,2.5038,2.5038,2.5038,2.5038,2.4925,2.483,2.5886,2.6531,2.6378,2.5258,0.0,0.0,2.1997,2.0774,1.9847,2.0296,1.9409,1.8976,2.021,2.0144,2.0145,2.0921,2.0838,2.0723,2.0921,2.2094,2.3271,2.4109,2.4716,2.5038,2.5038,2.5038,2.5038,2.5038,2.5565,2.6804,2.9168,3.1055,3.2115,3.2115,3.2115,3.2115,3.2115,3.2115,3.2115,3.2115,3.2115,3.2115,3.2115,3.2115,3.2115,3.2115,3.2115,3.2115,3.2174,3.333,3.3866,3.3866,3.3866,3.4183,3.4575,3.4575,3.4809,3.5041,3.4024,3.4024,3.4419,3.3812,3.4024,3.4731,3.5577,3.5804,3.5954,3.6577,3.6402,3.5954,3.5348,3.4731,3.4024,3.2949,3.2729,3.2564,3.2174,3.2115,3.2115,3.2115,3.2564,3.2949,3.2949,3.2572,3.2052,3.136,3.0277,2.9168,2.8034,2.722,2.6397,2.5372,2.4736,2.4298,2.4298,2.4298,2.4507,2.5,2.5038,2.5038,2.5038,2.5038,2.5038,2.5038,2.5038,2.5038,2.5038,2.4123,2.3628,2.3647,2.407,2.4564,2.5739,0.0,0.0,0.0,0.0,0.0,1.9573,1.8144,1.725,1.7316,1.6806,1.6691,1.7749,1.8284,1.8674,1.9233,1.8861,1.8875,1.9762,2.1019,2.2403,2.3822,2.4222,2.4622,2.5038,2.5038,2.5038,2.5038,2.5038,2.5919,2.7965,2.9716,3.0946,3.1564,3.1924,3.2115,3.2115,3.2115,3.2115,3.2115,3.2341,3.2341,3.2115,3.2646,3.2811,3.2482,3.2811,3.2949,3.3031,3.4575,3.5195,3.5195,3.5195,3.5348,3.5652,3.5652,3.5804,3.5879,3.4886,3.4964,3.5424,3.4419,3.434,3.4809,3.5118,3.5195,3.5348,3.6104,3.6724,3.6871,3.5577,3.4809,3.4261,3.3572,3.3112,3.2868,3.2564,3.2259,3.1962,3.1585,3.2125,3.2572,3.2362,3.2728,3.2625,3.1548,3.0766,2.9862,2.8686,2.757,2.6466,2.5197,2.4313,2.3671,2.3406,2.3406,2.3672,2.439,2.4409,2.4409,2.4409,2.4409,2.4409,2.4409,2.4409,2.4409,2.4409,2.317,2.2561,2.2561,2.3121,2.3747,0.0,0.0,0.0,1.9992,1.8044,1.6755,1.5299,1.3896,1.3007,1.3017,1.4064,1.5001,1.5117,1.6266,1.6691,1.5324,1.6266,1.7217,1.7217,1.8297,1.9663,2.0921,2.2192,2.3576,2.4944,2.5038,2.5038,2.5038,2.5038,2.5565,2.6784,2.6946,2.8012,3.03,3.1455,3.2115,3.2115,3.2115,3.2115,3.2115,3.3112,3.3031,3.2174,3.4183,3.4575,3.3652,3.4653,3.5118,3.5118,3.5195,3.5195,3.5195,3.5195,3.5804,3.6724,3.6724,3.7335,3.8034,3.7017,3.6651,3.6503,3.5501,3.4497,3.3891,3.4886,3.5195,3.5195,3.5271,3.6651,3.7793,3.5728,3.5879,3.6651,3.6577,3.5804,3.4809,3.3812,3.278,3.1702,3.0406,3.0177,2.9983,2.9217,3.0322,3.1111,3.0322,3.0104,2.9687,2.8547,2.7675,2.6365,2.4214,2.3946,2.3551,2.2684,2.2599,2.2599,2.2637,2.2637,2.2637,2.2637,2.2637,2.2637,2.2637,2.2637,2.2637,2.2637,2.258,2.2561,2.2561,2.258,2.2618,2.1007,2.0692,2.0075,1.6893,1.5799,1.5116,1.3803,1.2462,1.1628,1.2596,1.2472,1.2462,1.3332,1.396,1.4064,1.3646,1.4805,1.5932,1.6819,1.8155,1.9563,2.0822,2.2192,2.3157,2.3576,2.4508,2.5038,2.5038,2.5038,2.5565,2.6784,2.7583,2.8726,3.03,3.1479,3.2115,3.2115,3.2115,3.2115,3.2115,3.2424,3.2424,3.2115,3.2811,3.3249,3.3652,3.4024,3.5348,3.7262,3.7262,3.7262,3.7262,3.7262,3.7478,3.7793,3.7793,3.8034,3.8034,3.6327,3.6651,3.7478,3.5728,3.5424,3.5879,3.6944,3.6724,3.6327,3.7017,3.7721,3.8104,3.7407,3.6476,3.5577,3.4809,3.4419,3.3974,3.3523,3.1576,3.0039,3.0104,3.0722,3.1261,3.147,3.1953,3.2226,3.1953,3.0935,3.0002,2.9587,2.8217,2.6444,2.4536,2.361,2.2735,2.1703,2.1621,2.1868,2.2522,2.2561,2.2561,2.2561,2.2561,2.2561,2.2561,2.2561,2.2008,2.0903,2.0903,2.0903,2.0903,2.1375,2.1621,1.8859,1.7446,1.5918,1.319,1.2149,1.1522,1.0756,0.9483,0.895,1.1002,1.0561,1.0333,1.1839,1.205,1.205,1.205,1.374,1.5301,1.6089,1.7444,1.8875,2.0145,2.1019,2.19,2.2869,2.3786,2.4508,2.5038,2.5038,2.5397,2.6178,2.7332,2.846,2.9693,3.0861,3.1648,3.2115,3.2115,3.2115,3.2115,3.2424,3.2424,3.2115,3.2868,3.3572,3.4183,3.4183,3.5728,3.8274,3.8274,3.8274,3.8274,3.8274,3.8274,3.8274,3.8274,3.8274,3.8104,3.6724,3.719,3.8034,3.6253,3.5954,3.6327,3.6944,3.6724,3.6327,3.7017,3.7406,3.7369,3.6368,3.553,3.4593,3.326,3.3185,3.339,3.3087,3.1321,2.9784,2.985,3.0176,3.0576,3.11,3.1423,3.1643,3.1643,3.0576,2.984,2.984,2.822,2.6395,2.456,2.3408,2.2296,2.0846,2.0767,2.0995,2.1627,2.1665,2.1665,2.1665,2.1665,2.1665,2.1665,2.1665,2.1131,1.9989,1.9989,1.9989,2.0083,2.052,2.0767,1.6689,1.4419,1.1677,0.9008,0.7312,0.6457,0.6599,0.5419,0.5203,0.8019,0.853,0.8823,1.0227,1.0447,1.0455,1.0561,1.2892,1.4794,1.4805,1.606,1.7511,1.8789,1.8976,2.0046,2.2579,2.2869,2.3576,2.4925,2.5038,2.5038,2.5038,2.6159,2.7402,2.857,2.9693,3.0923,3.2008,3.2115,3.2115,3.2115,3.3112,3.3031,3.2115,3.4104,3.4961,3.493,3.5007,3.6134,3.807,3.807,3.807,3.807,3.807,3.807,3.807,3.807,3.807,3.807,3.8,3.807,3.793,3.692,3.5837,3.5083,3.5159,3.5083,3.5083,3.5159,3.5617,3.5537,3.2829,3.317,3.3768,3.2022,3.2389,3.3039,3.2529,3.17,3.0667,2.9464,2.8615,2.8126,2.8249,2.8856,2.936,2.9419,2.9419,2.936,2.936,2.8003,2.6299,2.4334,2.3387,2.2168,2.0271,2.0064,1.9989,1.9989,1.9989,1.9989,1.9989,1.9989,1.9989,1.9989,1.9989,1.9989,1.9989,1.9989,1.9989,1.9989,1.9989,1.9989,1.1735,0.941,0.7603,0.5828,0.5944,0.6379,0.6497,0.6281,0.6286,0.704,0.7035,0.7029,0.7459,0.7572,0.8001,0.9091,1.0675,1.2146,1.3227,1.4597,1.606,1.7408,1.8486,1.9663,2.1313,2.2386,2.3576,2.4925,2.5038,2.5038,2.5038,2.6159,2.7402,2.857,2.9693,3.0923,3.2008,3.2115,3.2115,3.2115,3.2341,3.2341,3.2115,3.2646,3.2441,3.1726,3.2305,3.3294,3.4548,3.5134,3.5424,3.5424,3.5424,3.5424,3.5424,3.5424,3.5424,3.5265,3.4481,3.471,3.5228,3.4213,3.364,3.3571,3.4347,3.4049,3.3571,3.4347,3.4321,3.3895,3.3101,3.2266,3.14,3.0935,3.147,3.2008,3.1911,2.9327,2.7161,2.7556,2.7441,2.7692,2.8856,2.9242,2.9595,3.0286,2.9797,2.936,2.936,2.8003,2.6519,2.5278,2.3783,2.2436,2.1125,2.0421,1.9989,1.9989,1.9989,1.9989,1.9989,1.9989,1.9989,1.9989,1.9989,1.9989,1.9989,1.9989,1.9989,1.9989,1.9989,1.9989,0.9599,0.6569,0.4318,0.3578,0.3472,0.3794,0.4443,0.4122,0.4013,0.5311,0.4987,0.4554,0.4554,0.5634,0.6825,0.7583,0.9391,1.1196,1.2596,1.4064,1.5543,1.6909,1.7701,1.8976,2.0838,2.1705,2.2904,2.4925,2.5038,2.5038,2.5038,2.6159,2.7402,2.857,2.9693,3.0923,3.2008,3.1652,3.1408,3.1408,3.092,3.07,3.07,3.07,3.0841,3.105,3.147,3.2456,3.3768,3.4245,3.4401,3.4401,3.4401,3.4401,3.4401,3.4401,3.4401,3.4308,3.3768,3.3897,3.4308,3.3703,3.3218,3.3058,3.4117,3.3703,3.3058,3.4117,3.3432,3.2403,3.2403,3.1182,2.9884,2.955,2.9817,3.0082,2.9684,2.8093,2.6893,2.7441,2.7251,2.7504,2.9095,2.9036,2.9301,3.0541,3.0286,2.9971,2.9971,2.8555,2.7135,2.6174,2.4175,2.2529,2.1492,2.0571,1.9989,1.9989,1.9989,1.9989,1.9989,1.9989,1.9989,1.9989,1.9989,1.9989,1.9989,1.9989,1.9989,1.9989,1.9989,1.9989,0.814,0.4641,0.1846,0.1847,0.1088,0.0653,0.1847,0.1196,0.0979,0.3472,0.2822,0.1956,0.2064,0.4338,0.6174,0.6389,0.8636,1.0879,1.2376,1.3751,1.522,1.6691,1.7012,1.8095,2.0739,2.1019,2.2128,2.483,2.5038,2.5038,2.5038,2.6059,2.7124,2.8308,2.9376,3.0438,3.1676,3.0773,3.0285,3.0285,2.9358,2.8994,2.8969,2.8676,2.9452,3.1085,3.1153,3.2161,3.3753,3.3878,3.394,3.394,3.394,3.394,3.394,3.394,3.394,3.394,3.394,3.394,3.394,3.394,3.3254,3.2712,3.3662,3.3254,3.2776,3.3662,3.2545,3.0986,3.0924,2.996,2.8856,2.8003,2.7941,2.7817,2.7021,2.7377,2.7879,2.7879,2.7251,2.7251,2.8615,2.8494,2.8736,3.0456,3.071,3.071,3.071,2.936,2.8011,2.7121,2.4789,2.2843,2.1711,2.0774,2.014,1.9989,1.9989,1.9989,1.9989,1.9989,1.9989,1.9989,1.9989,1.9989,1.9989,1.9989,1.9989,1.9989,1.9989,1.9989,0.2259,0.0972,0.0325,0.0327,0.1088,0.1847,0.2064,0.1956,0.1956,0.239,0.1414,0.0762,0.1956,0.3472,0.4983,0.6174,0.7905,0.9519,1.0879,1.2261,1.3751,1.5117,1.6382,1.8095,2.0739,2.1019,2.2128,2.483,2.5038,2.5038,2.5038,2.5391,2.61,2.7245,2.756,2.8346,2.9455,2.9361,2.9263,2.9263,2.9067,2.8994,2.892,2.7088,2.6776,2.7848,2.8553,2.9365,3.0302,3.1063,3.138,3.138,3.138,3.138,3.138,3.138,3.138,3.138,3.138,3.138,3.138,3.138,3.1265,3.1121,3.1294,3.1236,3.1121,3.1294,3.0514,2.9548,2.8854,2.8074,2.7213,2.6269,2.6635,2.6957,2.6096,2.603,2.6096,2.6096,2.5964,2.5964,2.6203,2.7314,2.8736,3.0456,3.071,3.071,3.071,2.9797,2.8856,2.8011,2.6224,2.4358,2.2794,2.1711,2.0829,2.0064,1.9989,1.9989,1.9989,1.9989,1.9989,1.9989,1.9989,1.9989,1.9989,1.9989,1.9989,1.9989,1.9989,1.9989,0.1522,0.0,-0.1085,-0.1087,-0.0652,0.0109,0.087,0.0979,0.0652,-0.0867,-0.1194,-0.087,-0.0217,0.1736,0.358,0.5091,0.6609,0.8328,1.0455,1.1945,1.3332,1.4805,1.6279,1.8095,2.0739,2.1019,2.196,2.4208,2.4393,2.4184,2.3818,2.4214,2.5061,2.631,2.6884,2.7752,2.8969,2.8431,2.8137,2.8137,2.7503,2.7235,2.721,2.6117,2.6162,2.7085,2.7879,2.8615,2.9419,3.0343,3.071,3.071,3.071,3.071,3.071,3.071,3.071,3.071,3.071,3.071,3.071,3.071,3.071,3.071,3.071,3.071,3.071,3.071,3.0028,2.936,2.9477,2.8555,2.7504,2.7085,2.666,2.6162,2.5788,2.5655,2.5655,2.5655,2.5655,2.5655,2.5655,2.67,2.8126,2.9797,3.0399,3.071,3.071,2.9913,2.9036,2.8249,2.6547,2.4765,2.3078,2.2002,2.0977,2.0064,1.9989,1.9989,1.9989,1.9154,1.8698,1.8698,1.8698,1.8698,1.8698,1.8698,1.8698,1.8698,1.8698,1.8698,0.1312,-0.0434,-0.2173,-0.2496,-0.239,-0.1956,-0.1088,-0.1195,-0.1953,-0.3902,-0.3364,-0.2496,-0.2173,0.0,0.2278,0.401,0.5527,0.7464,0.9923,1.1734,1.3227,1.4377,1.606,1.8095,2.0739,2.0793,2.1544,2.3534,2.3596,2.3266,2.2834,2.3579,2.4433,2.5549,2.6404,2.7321,2.8211,2.7452,2.7036,2.7036,2.6137,2.5655,2.5655,2.5655,2.603,2.6764,2.7566,2.8372,2.9182,2.9855,3.0172,3.0229,3.0343,3.0399,3.0456,3.0654,3.071,3.071,3.071,3.071,3.071,3.071,3.071,3.071,3.071,3.071,3.071,3.071,3.0229,2.9797,3.0286,2.9301,2.8188,2.8188,2.6893,2.5655,2.5655,2.5655,2.5655,2.5655,2.546,2.5314,2.5314,2.5848,2.677,2.8145,2.9229,2.9981,3.0273,2.9685,2.8936,2.8284,2.6893,2.5206,2.3072,2.1994,2.0907,1.9824,1.9585,1.9457,1.9457,1.7841,1.7019,1.7019,1.717,1.7237,1.7237,1.7237,1.7237,1.7237,1.7085,1.7019,-0.1413,-0.1956,-0.2498,-0.3794,-0.3147,-0.2498,-0.358,-0.486,-0.5493,-0.4439,-0.4227,-0.3689,-0.239,-0.0867,0.1082,0.3791,0.5527,0.704,0.8663,1.1214,1.2912,1.3017,1.5428,1.8095,2.0739,2.0362,2.1007,2.3497,2.3026,2.2957,2.376,2.393,2.4487,2.5464,2.5713,2.5879,2.5947,2.5849,2.5801,2.5801,2.5703,2.5655,2.5655,2.5655,2.5722,2.5855,2.67,2.7566,2.8311,2.8372,2.8433,2.8494,2.9182,2.9477,2.9595,3.0399,3.071,3.071,3.071,3.071,3.071,3.071,3.071,3.071,3.071,3.071,3.071,3.071,3.0654,3.0399,2.9653,2.8796,2.8188,2.8188,2.6893,2.5655,2.5655,2.5655,2.5655,2.5655,2.4876,2.4257,2.4257,2.4151,2.4244,2.502,2.6324,2.76,2.8763,2.8856,2.8662,2.8264,2.8038,2.6533,2.3062,2.2048,2.0724,1.8877,1.813,1.773,1.773,1.6216,1.5397,1.5397,1.6078,1.6416,1.6416,1.6416,1.6416,1.6416,1.5721,1.5397,0.3351,0.1079,-0.0974,-0.1515,-0.2599,-0.3791,-0.5286,-0.7318,-0.8823,-0.8297,-0.7779,-0.6626,-0.3914,-0.2278,-0.0108,0.3686,0.4771,0.5958,0.8455,1.1108,1.2807,1.2807,1.5324,1.7957,2.0074,1.9964,2.0462,2.2051,2.1906,2.1632,2.1607,2.2757,2.3577,2.3939,2.5076,2.5655,2.5655,2.5655,2.5655,2.5655,2.5655,2.5655,2.5655,2.6203,2.6465,2.653,2.6893,2.7441,2.8188,2.8188,2.8188,2.8249,2.8555,2.8916,2.9419,2.9797,3.0229,3.071,3.071,3.071,3.071,3.071,3.071,3.071,3.071,3.071,3.071,3.071,3.071,3.0654,3.0286,2.9182,2.7839,2.6416,2.4872,2.3794,2.3794,2.3794,2.3794,2.3794,2.3452,2.3159,2.3159,2.3088,2.3283,2.3988,2.459,2.5449,2.6814,2.7339,2.7231,2.621,2.6094,2.4733,2.1363,2.0834,1.9849,1.8094,1.7218,1.6297,1.5315,1.4213,1.365,1.365,1.4399,1.4831,1.4831,1.4831,1.5033,1.5498,1.423,1.3901,0.7514,0.4188,0.1079,0.0216,-0.2164,-0.4547,-0.5501,-0.829,-1.0976,-1.183,-1.0838,-0.8738,-0.5002,-0.3472,-0.1193,0.3467,0.4227,0.5311,0.8347,1.1108,1.2807,1.2807,1.5196,1.7668,1.9664,1.9439,1.976,2.1138,2.0976,2.0733,2.044,2.2023,2.3029,2.3313,2.5111,2.5897,2.5655,2.5897,2.5897,2.5655,2.5655,2.5897,2.6465,2.7085,2.7377,2.7377,2.7377,2.7445,2.7618,2.7409,2.7041,2.6543,2.6783,2.72,2.7669,2.7957,2.8806,2.9851,2.9851,3.0223,3.071,3.071,3.071,3.071,3.071,3.071,3.0652,3.0244,3.0127,3.0069,2.969,2.8384,2.668,2.4854,2.3454,2.2525,2.2525,2.2525,2.2525,2.2525,2.2256,2.2012,2.2012,2.1768,2.1827,2.2597,2.2704,2.3103,2.4307,2.5364,2.5662,2.4805,2.4536,2.328,2.0504,1.9881,1.898,1.7496,1.628,1.4936,1.3524,1.2729,1.2197,1.1974,1.2729,1.3123,1.3123,1.3123,1.339,1.389,1.2568,1.2256,0.9406,0.6301,0.355,0.0756,-0.2164,-0.4227,-0.4335,-0.7661,-1.1514,-1.4366,-1.2682,-0.9376,-0.5087,-0.4227,-0.2381,0.3359,0.4227,0.5311,0.8347,1.1108,1.2807,1.2807,1.4881,1.7214,1.9617,1.8565,1.8657,2.1043,2.0444,2.0421,2.1345,2.2364,2.3313,2.4245,2.6022,2.6595,2.5655,2.653,2.653,2.5655,2.5655,2.653,2.8188,2.8188,2.8188,2.8188,2.8188,2.7457,2.6211,2.5571,2.4269,2.2666,2.3479,2.3735,2.3847,2.4644,2.6187,2.7819,2.7819,2.9111,3.071,3.071,3.071,3.071,3.071,3.071,3.0448,2.9142,2.8763,2.8473,2.7193,2.5808,2.4563,2.3877,2.3112,2.2525,2.2525,2.2525,2.2525,2.2525,2.1622,2.0811,2.0811,1.9987,1.9504,2.0163,2.026,2.0499,2.1162,2.2822,2.4129,2.4617,2.4098,2.2914,2.0938,1.949,1.8218,1.7171,1.5033,1.3489,1.267,1.1899,1.1086,1.032,1.1086,1.1494,1.1494,1.1494,1.1494,1.1494,1.0674,1.032,1.5396,1.0646,0.619,0.2366,-0.1405,-0.5083,-0.7946,-1.1251,-1.413,-1.5782,-1.4072,-1.0545,-0.5303,-0.4227,-0.2381,0.3359,0.4227,0.5311,0.8347,1.0258,1.1626,1.2174,1.3853,1.5811,1.8135,1.7993,1.8439,2.0252,2.0122,2.0121,2.0421,2.2023,2.31,2.3383,2.5732,2.6893,2.6595,2.7377,2.7692,2.7377,2.5582,2.5005,2.5549,2.6162,2.6465,2.6465,2.6465,2.6191,2.5779,2.4934,2.4024,2.3062,2.294,2.3226,2.3765,2.4017,2.4805,2.5778,2.5778,2.6187,2.6736,2.6736,2.6736,2.6736,2.6736,2.6736,2.6652,2.6209,2.6441,2.6194,2.3649,2.2304,2.1589,2.1338,2.0829,2.028,2.028,2.028,2.028,2.028,1.9987,1.9743,1.9743,1.9474,1.933,1.9529,1.9578,1.9824,2.0425,2.0998,2.1608,2.2228,2.1715,2.0704,1.9196,1.8193,1.7246,1.65,1.5277,1.4009,1.267,1.1899,1.1086,1.0333,1.1086,1.1494,1.1494,1.1494,1.1735,1.2256,1.0918,1.0565,2.0362,1.4421,0.8627,0.3406,-0.053,-0.4607,-0.9812,-1.2482,-1.406,-1.5492,-1.3232,-0.9966,-0.6569,-0.4041,-0.0992,0.3533,0.4861,0.6263,0.9098,1.0448,1.1608,1.2772,1.3713,1.51,1.6885,1.7251,1.7974,1.9324,1.9838,1.9989,1.9989,2.1878,2.2958,2.2958,2.584,2.7043,2.6279,2.737,2.7806,2.7653,2.5997,2.5281,2.5281,2.5855,2.621,2.6382,2.6382,2.6242,2.5924,2.5082,2.4079,2.3042,2.2264,2.1994,2.1994,2.1994,2.2839,2.3868,2.3868,2.4295,2.4857,2.4857,2.4857,2.4857,2.4857,2.4857,2.4776,2.4342,2.4491,2.4152,2.1209,2.033,2.016,1.9896,1.9529,1.9255,1.9255,1.9255,1.9255,1.9255,1.9255,1.9255,1.9255,1.9255,1.9255,1.9255,1.9255,1.938,1.9798,2.009,2.0282,2.0451,2.033,1.9773,1.8726,1.7982,1.7244,1.6512,1.6054,1.4958,1.314,1.2579,1.1765,1.0735,1.0918,1.1025,1.1025,1.1025,1.1268,1.1735,1.0735,1.0552,2.4266,1.7835,1.0987,0.4049,0.0912,-0.2251,-0.892,-1.0737,-1.1559,-1.3261,-1.0515,-0.7967,-0.8133,-0.3425,0.136,0.3971,0.5914,0.7978,1.0396,1.1403,1.2463,1.3918,1.4211,1.4791,1.5929,1.6519,1.7257,1.8347,1.9363,1.9875,1.9894,2.1774,2.2756,2.2761,2.6088,2.6927,2.5067,2.654,2.6997,2.6456,2.6553,2.6602,2.6602,2.665,2.6956,2.7363,2.7409,2.6996,2.6261,2.5675,2.4389,2.2631,2.1553,2.0368,1.9305,1.9255,2.0401,2.1957,2.1957,2.305,2.4508,2.4508,2.4508,2.4508,2.4508,2.4508,2.4239,2.3138,2.2869,2.2303,1.9876,1.9701,1.9993,1.938,1.9255,1.9255,1.9255,1.9255,1.9255,1.9205,1.918,1.9255,1.9205,1.918,1.9255,1.9255,1.9205,1.9205,1.9255,1.9701,1.9847,1.928,1.9798,1.9896,1.928,1.8675,1.8004,1.7244,1.7191,1.6232,1.4049,1.3806,1.2998,1.154,1.0796,1.0381,1.032,1.032,1.032,1.032,1.032,1.032,2.7578,2.1684,1.4814,0.6198,0.6217,0.7175,0.261,-0.2104,-0.6025,-0.7638,-0.6476,-0.5068,-0.4467,-0.0985,0.2621,0.5476,0.7482,0.907,1.0502,1.0909,1.1665,1.3258,1.2598,1.2981,1.5275,1.5629,1.6483,1.8347,1.8656,1.8861,1.8987,2.0657,2.1294,2.0709,2.3375,2.4779,2.477,2.5747,2.5174,2.3124,2.3993,2.4448,2.4448,2.4873,2.5125,2.5213,2.5538,2.5388,2.4942,2.5111,2.4226,2.2743,2.242,2.1357,1.9944,1.9429,1.9552,1.9925,1.9925,2.0226,2.0578,2.0578,2.0578,2.0578,2.0578,2.0578,2.0528,2.0226,2.0176,2.0001,1.9404,1.933,1.9429,1.928,1.9255,1.9255,1.9255,1.9255,1.908,1.8596,1.8878,1.9104,1.8573,1.8902,1.9255,1.9255,1.8827,1.8675,1.9205,1.8929,1.8878,1.918,1.938,1.9429,1.923,1.9104,1.8726,1.8057,1.8004,1.7223,1.5532,1.4939,1.3899,1.2237,1.1525,1.0918,1.032,1.032,1.032,1.032,1.032,1.032,3.179,2.7195,2.2276,1.5281,1.4607,1.4663,1.0698,0.7191,0.4608,0.3898,0.4516,0.5543,0.6562,0.6769,0.7899,1.141,1.1471,1.1353,1.2519,1.172,1.1998,1.4727,1.306,1.2748,1.5598,1.5118,1.5255,1.6942,1.7559,1.7854,1.7934,1.9327,2.0085,2.0034,2.2145,2.3289,2.3313,2.3275,2.2845,2.1957,2.2606,2.3055,2.3373,2.3625,2.3902,2.4134,2.4598,2.4848,2.4875,2.5339,2.4856,2.3858,2.3315,2.2378,2.1294,2.0447,1.997,1.9652,1.933,1.9255,1.9255,1.9255,1.9255,1.9255,1.9255,1.9255,1.9255,1.9255,1.9255,1.9205,1.8878,1.8777,1.8726,1.8344,1.8241,1.8241,1.8241,1.8241,1.8137,1.7795,1.8034,1.8241,1.8287,1.8264,1.8419,1.8726,1.8212,1.7877,1.8189,1.8264,1.8419,1.8726,1.908,1.9255,1.9255,1.9255,1.908,1.8749,1.8419,1.7615,1.6088,1.5627,1.4695,1.3131,1.2359,1.1615,1.0857,1.0857,1.0478,0.9869,0.9869,0.9726,3.581,3.3632,3.1672,2.7734,2.5076,2.2453,1.89,1.73,1.6602,1.6633,1.6868,1.7561,1.919,1.6152,1.473,1.8495,1.6134,1.4054,1.4726,1.2794,1.2587,1.5932,1.3658,1.2842,1.5348,1.4227,1.3826,1.482,1.5823,1.6551,1.6775,1.7815,1.8713,1.9393,2.1095,2.1734,2.1052,2.0375,2.0515,2.1529,2.1885,2.2393,2.2918,2.3085,2.3413,2.3853,2.4475,2.4947,2.5331,2.5876,2.5776,2.5158,2.408,2.3315,2.2618,2.1646,2.0829,2.0112,1.9627,1.933,1.9255,1.9255,1.9255,1.9255,1.9255,1.9255,1.9255,1.9255,1.9255,1.908,1.8419,1.8287,1.8057,1.7298,1.7029,1.6964,1.7063,1.7029,1.6911,1.6956,1.7031,1.7254,1.7644,1.7309,1.7086,1.7621,1.7065,1.6598,1.6702,1.7302,1.7776,1.7902,1.8631,1.9029,1.8929,1.913,1.9081,1.8762,1.8325,1.7532,1.6315,1.6177,1.5363,1.3831,1.2798,1.1944,1.1144,1.104,1.0364,0.9104,0.9104,0.8795,3.7742,3.9462,4.1706,4.0085,3.7405,3.4739,3.3227,2.8624,2.4444,2.3725,2.1946,2.1384,2.4411,2.1726,1.9664,2.172,1.8889,1.5881,1.4613,1.2855,1.1747,1.1984,1.1381,1.1012,1.1188,1.1866,1.2537,1.2984,1.3236,1.3918,1.5362,1.6128,1.6583,1.6713,1.8171,1.8582,1.7817,1.8729,1.9331,1.9502,2.1614,2.266,2.2785,2.3802,2.4287,2.4438,2.5272,2.5508,2.5299,2.6069,2.5941,2.5193,2.4587,2.3693,2.266,2.2061,2.1147,2.0208,2.0064,1.9701,1.9255,1.9255,1.9255,1.9255,1.9255,1.9255,1.9255,1.9255,1.9255,1.908,1.8419,1.8287,1.8057,1.7298,1.658,1.628,1.6964,1.6558,1.6151,1.6278,1.6729,1.6718,1.5536,1.5762,1.5874,1.5219,1.4558,1.4347,1.488,1.5149,1.5562,1.621,1.7552,1.816,1.751,1.8549,1.8445,1.6549,1.6962,1.7191,1.6977,1.6902,1.588,1.3666,1.1791,1.0423,0.968,0.9225,0.866,0.7995,0.7995,0.7674,4.0513,4.1718,4.3183,4.1078,4.0351,3.9917,3.9155,3.7598,3.6217,3.5874,3.3787,3.264,3.4557,3.0139,2.6603,2.8272,2.4069,1.9737,1.7069,1.3668,1.1614,1.22,1.1166,1.1044,1.2597,1.1059,1.0528,1.1931,1.1875,1.2136,1.2928,1.378,1.4601,1.5464,1.6143,1.6307,1.5924,1.7337,1.8353,1.9059,2.0217,2.1149,2.1929,2.2718,2.312,2.3202,2.4525,2.5133,2.5237,2.5908,2.6102,2.5843,2.5197,2.4587,2.4042,2.3495,2.2772,2.1992,2.1669,2.1203,2.0583,1.9968,1.9529,1.9255,1.9255,1.8643,1.792,1.7625,1.7339,1.7038,1.6595,1.6051,1.5451,1.4735,1.3866,1.3276,1.3662,1.345,1.3197,1.3292,1.3554,1.3623,1.3336,1.3229,1.3286,1.3585,1.3039,1.2781,1.3361,1.3863,1.4274,1.4654,1.5638,1.6144,1.5737,1.6359,1.5824,1.3753,1.5012,1.5414,1.4415,1.4632,1.4319,1.318,1.2095,1.1047,0.9981,0.9731,0.8812,0.7237,0.7237,0.6797,4.2383,0.0,4.2225,4.0046,4.1031,4.2418,0.0,4.3408,4.4988,4.504,4.3147,4.1693,4.2533,3.697,3.2473,3.2908,2.8184,2.3155,1.952,1.4949,1.2015,1.1984,1.1039,1.1133,1.2811,1.0009,0.8738,0.9983,1.0149,1.0179,1.0219,1.1392,1.2697,1.4031,1.3477,1.3316,1.3745,1.4959,1.6073,1.7118,1.7847,1.8912,2.0175,2.1066,2.1813,2.235,2.3693,2.4686,2.5483,2.5876,2.6291,2.658,2.5745,2.5403,2.5368,2.4812,2.3941,2.2917,2.2359,2.1739,2.1008,1.9698,1.9077,1.8864,1.8864,1.7537,1.5879,1.5192,1.4767,1.4352,1.3956,1.3284,1.2459,1.1698,1.0701,1.0012,1.0089,1.0059,1.006,1.0283,1.0412,1.0656,1.1009,1.0568,1.0488,1.1295,1.1132,1.1013,1.144,1.2417,1.3072,1.3072,1.3821,1.4285,1.4107,1.3803,1.299,1.1501,1.2938,1.3238,1.183,1.2056,1.2102,1.189,1.154,1.0753,0.9431,0.9337,0.8151,0.6017,0.6017,0.5463,0.0,4.0925,4.1055,4.1351,4.2538,4.3483,4.2953,4.4289,0.0,4.5614,4.376,4.2441,4.3451,3.9344,3.4911,3.2217,2.8682,2.4761,2.0667,1.6639,1.2649,0.8659,0.9894,1.0145,0.7772,0.7922,0.7584,0.6147,0.6834,0.7441,0.7809,0.942,1.0653,1.1526,0.9052,0.8501,1.0101,1.0779,1.12,1.1307,1.4355,1.6241,1.7094,1.9182,2.1265,2.3225,2.3494,2.4711,2.6502,2.6162,2.6559,2.7243,2.622,2.581,2.5778,2.5242,2.3547,2.1415,2.0669,1.9815,1.879,1.703,1.7029,1.7812,1.7812,1.5674,1.3077,1.2095,1.178,1.1594,1.0845,1.0574,1.0236,0.8947,0.8055,0.7528,0.7787,0.7635,0.7646,0.8407,0.9038,0.9177,0.8402,0.8213,0.7973,0.7334,0.7993,0.8623,0.8646,1.029,1.1461,1.1461,1.28,1.3376,1.264,1.1483,1.0735,1.0579,1.0945,1.1098,1.0999,1.0559,0.9902,0.9066,0.8543,0.764,0.6355,0.5874,0.4972,0.3746,0.3746,0.313,3.8752,3.7381,3.6415,3.5817,3.6789,3.8299,3.9737,4.2249,4.4887,4.6852,4.5982,4.4416,4.3036,3.9645,3.5728,3.1283,2.7564,2.3838,1.9769,1.6439,1.308,0.9538,0.8153,0.7021,0.6004,0.5353,0.4996,0.5008,0.5023,0.5405,0.6102,0.6653,0.6446,0.5385,0.5294,0.5859,0.7054,0.7771,0.8556,0.9366,1.1684,1.3131,1.3885,1.6782,1.8774,2.0085,2.2463,2.433,0.0,2.665,2.738,2.7809,2.6918,2.6555,2.6453,2.5275,2.4158,2.2987,2.137,2.0006,1.8726,1.7352,1.6638,1.6267,1.5873,1.2998,0.9496,0.775,0.7059,0.6847,0.6822,0.581,0.4929,0.5162,0.418,0.3234,0.332,0.3597,0.3883,0.4178,0.4426,0.4519,0.4172,0.438,0.4603,0.4629,0.5583,0.6431,0.674,0.8069,0.9104,0.9428,1.0281,1.0565,0.9936,0.9146,0.8529,0.8198,0.8303,0.8057,0.7396,0.7109,0.6783,0.6456,0.5951,0.5588,0.542,0.4915,0.3879,0.2411,0.2758,0.2248,3.4495,3.2501,3.053,3.0639,3.2106,3.4268,3.6926,4.0553,4.4307,4.7564,4.7266,4.5658,4.2984,4.0162,3.6552,3.1341,2.7411,2.3245,1.8253,1.5328,1.2475,0.8761,0.6646,0.5268,0.454,0.3164,0.2392,0.274,0.27,0.2835,0.3164,0.3595,0.2664,0.0116,0.0725,0.1645,0.2795,0.3307,0.4054,0.4935,0.673,0.777,0.8286,1.1826,1.335,1.3528,1.8887,2.1414,2.1915,2.4903,2.679,2.7679,2.614,2.5874,2.6138,2.4247,2.3261,2.2579,2.0933,1.9094,1.7291,1.592,1.4677,1.3546,1.2749,0.857,0.3828,0.2593,0.1791,0.1388,0.1636,0.0454,-0.0648,-0.0038,-0.0783,-0.1598,-0.1497,-0.1209,-0.0806,-0.0207,-0.0205,-0.0204,0.0083,0.0456,0.0913,0.1668,0.2575,0.3576,0.4652,0.5621,0.6622,0.7748,0.8171,0.8093,0.7367,0.6834,0.6403,0.6007,0.5855,0.5424,0.4729,0.4422,0.42,0.4005,0.3444,0.3256,0.3473,0.3077,0.2336,0.1201,0.1374,0.0949,2.9141,2.6211,2.3501,2.6646,2.9493,3.2317,3.5238,3.9527,4.3905,4.7462,4.7264,4.5767,4.355,4.0984,3.7583,3.2417,2.8525,2.35,1.5954,1.3425,1.05,0.5609,0.5587,0.5092,0.3,0.129,-0.0137,-0.1303,-0.0581,-0.0452,-0.1363,0.0128,-0.0428,-0.3665,-0.4905,-0.4685,-0.2994,-0.2989,-0.2983,-0.2938,-0.1007,-0.0142,-0.0134,0.4015,0.4892,0.3549,1.2347,1.5458,1.4742,2.0424,2.4355,2.6536,2.3442,2.3274,2.4444,2.2043,2.0497,1.9489,1.8642,1.6478,1.375,1.1927,1.0533,0.9343,0.8151,0.2102,-0.4132,-0.3245,-0.3846,-0.4751,-0.4761,-0.5345,-0.6067,-0.667,-0.6842,-0.6757,-0.6513,-0.6637,-0.6312,-0.4485,-0.4464,-0.441,-0.3517,-0.3378,-0.298,-0.1785,-0.1179,-0.004,0.2179,0.2917,0.4139,0.6476,0.6688,0.6184,0.5073,0.4488,0.4174,0.4224,0.3703,0.3428,0.3428,0.2833,0.2235,0.1717,0.1078,0.0474,-0.0043,-0.0043,-0.0043,-0.0086,-0.0603,-0.1169,1.7102,1.3799,1.1248,1.3829,1.9429,2.5656,3.0804,3.4799,3.9529,4.6747,4.6918,4.4802,4.1559,3.8219,3.3966,2.7785,2.3337,1.8407,1.1907,0.8777,0.5529,0.1278,0.1006,0.0267,-0.1899,-0.2617,-0.3405,-0.4684,-0.5112,-0.5203,-0.4812,-0.7459,-0.8922,-0.8779,-0.9447,-0.8982,-0.7171,-0.7349,-0.7442,-0.7421,-0.5838,-0.5172,-0.5273,-0.1933,-0.0431,-0.0189,0.4553,0.7028,0.7896,1.0585,1.2666,1.4375,1.6468,1.6405,1.5399,1.7538,1.7903,1.6675,1.2431,0.8765,0.5572,0.321,0.1388,-0.0411,-0.3317,-0.6041,-0.8231,-0.8675,-0.9577,-1.0638,-1.1538,-1.1751,-1.129,-0.9664,-0.9616,-0.9929,-0.9845,-0.9386,-0.8835,-0.8307,-0.8072,-0.7871,-0.7588,-0.7247,-0.6869,-0.6534,-0.5089,-0.382,-0.3171,-0.1667,0.016,0.2317,-0.0487,-0.2084,-0.1068,-0.1178,-0.1057,-0.0403,-0.0616,-0.0748,-0.0748,-0.0594,-0.0557,-0.0728,-0.1619,-0.2167,-0.2336,-0.3148,-0.3699,-0.3979,-0.4589,-0.4719,0.4589,0.2239,0.0804,0.434,1.0878,1.8318,2.5788,3.1452,3.7375,4.5122,4.5741,4.3904,4.0729,3.6332,3.1413,2.594,2.0438,1.438,0.7118,0.4068,0.0451,-0.5213,-0.4754,-0.4794,-0.7051,-0.6889,-0.703,-0.81,-0.8952,-0.9967,-1.1259,-1.4003,-1.5042,-1.3929,-1.3741,-1.3098,-1.1907,-1.1618,-1.1521,-1.1558,-1.0696,-1.0573,-1.0976,-0.8115,-0.7396,-0.8065,-0.2569,-0.0254,-0.0062,0.3347,0.5936,0.7882,0.9318,0.9391,0.8894,1.0704,1.1139,1.0349,0.7049,0.368,0.0518,-0.1375,-0.6264,-1.1806,-1.4005,-1.4744,-1.488,-1.5133,-1.567,-1.634,-1.711,-1.7173,-1.6521,-1.4608,-1.4438,-1.4386,-1.3356,-1.2937,-1.2558,-1.1842,-1.1698,-1.1596,-1.1112,-1.069,-1.0228,-0.964,-0.8662,-0.7709,-0.693,-0.5957,-0.4589,-0.2522,-0.6111,-0.7896,-0.5979,-0.579,-0.5516,-0.4845,-0.4929,-0.485,-0.4551,-0.4373,-0.4361,-0.4436,-0.5082,-0.5488,-0.5697,-0.6402,-0.6891,-0.7116,-0.7516,-0.7463,-0.7844,-0.8877,-0.8895,-0.3145,0.3036,1.0298,2.0339,2.9284,3.717,4.3032,4.3933,4.2791,3.9962,3.4165,2.8542,2.4687,1.7905,0.9988,0.1202,-0.1201,-0.5024,-1.3041,-1.1153,-1.0048,-1.2183,-1.1253,-1.0819,-1.1644,-1.2274,-1.4574,-1.9085,-1.9425,-1.9268,-1.8814,-1.7899,-1.7177,-1.6689,-1.5777,-1.5358,-1.5355,-1.5351,-1.5838,-1.6547,-1.4138,-1.4936,-1.7823,-0.9368,-0.7091,-0.884,-0.3051,0.1201,0.3801,0.1038,0.1261,0.2919,0.1441,0.0933,0.1016,0.1394,-0.053,-0.3327,-0.4228,-1.2797,-2.2745,-2.2781,-2.2727,-2.2547,-2.1831,-2.1637,-2.1668,-2.1802,-2.1717,-2.1455,-2.073,-2.0352,-1.9532,-1.7171,-1.7041,-1.6912,-1.5246,-1.5256,-1.522,-1.4136,-1.3862,-1.3303,-1.1837,-1.2101,-1.1761,-0.9822,-1.0007,-0.9818,-0.8425,-1.086,-1.1919,-1.0154,-0.9781,-0.9466,-0.9157,-0.9209,-0.8943,-0.8205,-0.8408,-0.8666,-0.8837,-0.8941,-0.9172,-0.9605,-0.9745,-0.9814,-0.9884,-0.9884,-0.9849,-1.7387,-2.1125,-2.2591,-1.3748,-0.7342,0.0648,1.5608,2.868,3.8502,4.1581,4.1829,3.9841,3.436,2.6098,1.8304,1.2707,0.5345,-0.1823,-0.834,-1.0592,-1.3216,-1.75,-1.6834,-1.6091,-1.6427,-1.463,-1.4296,-1.6262,-1.5525,-1.685,-2.1095,-2.2428,-2.2536,-2.1396,-2.2127,-2.1531,-1.9386,-1.959,-1.9227,-1.8319,-1.8428,-1.8651,-1.8897,-1.78,-1.831,-1.9923,-1.7541,-1.7059,-1.7824,-1.6463,-1.4406,-1.2296,-1.4127,-1.351,-1.1691,-1.253,-1.2037,-1.0844,-1.0464,-1.1927,-1.4283,-1.6076,-1.9516,-2.2955,-2.313,-2.3447,-2.3955,-2.4769,-2.499,-2.5242,-2.626,-2.57,-2.4811,-2.4636,-2.3634,-2.2568,-2.202,-2.0732,-1.9586,-1.9189,-1.7889,-1.681,-1.6553,-1.7378,-1.7576,-1.6041,-1.635,-1.6147,-1.4501,-1.3868,-1.4729,-1.7672,-1.7264,-1.6325,-1.5229,-1.4912,-1.4377,-1.3486,-1.318,-1.2898,-1.2611,-1.1921,-1.1404,-1.1164,-1.1759,-1.1969,-1.1787,-1.2815,-1.3494,-1.3911,-1.3911,-1.38,-2.7209,-2.8224,-2.7497,-2.0224,-1.3432,-0.4797,0.9657,2.1784,3.1795,3.8079,3.7942,3.5451,3.1419,2.1823,1.2407,0.622,-0.1498,-0.8686,-1.4388,-1.6866,-1.9159,-2.18,-2.1789,-2.1325,-2.0811,-1.9172,-1.8611,-1.974,-1.8782,-1.9699,-2.3266,-2.419,-2.4493,-2.4298,-2.4422,-2.4027,-2.3128,-2.2836,-2.2414,-2.1954,-2.1939,-2.1928,-2.1876,-2.1498,-2.1457,-2.161,-2.135,-2.1112,-2.0885,-2.0999,-1.9935,-1.8226,-1.8937,-1.8455,-1.721,-1.6951,-1.6663,-1.637,-1.5978,-1.7033,-1.8915,-2.1497,-2.3428,-2.4773,-2.5238,-2.5871,-2.6567,-2.7253,-2.7556,-2.7762,-2.8394,-2.8088,-2.7643,-2.7643,-2.6431,-2.5278,-2.5199,-2.3704,-2.2346,-2.229,-2.1318,-2.0426,-2.0205,-2.0611,-2.0623,-1.9666,-1.97,-1.9629,-1.9085,-1.9155,-1.9798,-2.1227,-2.0486,-1.9426,-1.8133,-1.7787,-1.7324,-1.6584,-1.643,-1.6174,-1.5796,-1.5368,-1.4963,-1.4572,-1.4938,-1.5081,-1.4849,-1.554,-1.6022,-1.6283,-1.6283,-1.6195,-3.5106,-3.2538,-2.9107,-2.4671,-1.8735,-1.0596,0.2548,1.317,2.2944,3.2491,3.2565,3.0088,2.7481,1.7038,0.6548,-0.0504,-0.8287,-1.5331,-2.0296,-2.2649,-2.4352,-2.5923,-2.6062,-2.566,-2.4965,-2.3614,-2.2697,-2.2595,-2.2159,-2.2955,-2.5427,-2.5476,-2.5867,-2.6862,-2.5956,-2.5744,-2.6326,-2.5411,-2.4898,-2.477,-2.4634,-2.4457,-2.4201,-2.4178,-2.3822,-2.317,-2.3118,-2.2696,-2.2129,-2.2269,-2.1489,-2.0127,-1.9989,-1.9647,-1.9042,-1.789,-1.8168,-1.9,-1.8715,-1.9356,-2.0847,-2.3775,-2.5679,-2.687,-2.7399,-2.8191,-2.8934,-2.9014,-2.9166,-2.9332,-2.9262,-2.941,-2.9572,-2.9572,-2.8588,-2.7637,-2.7504,-2.6389,-2.5305,-2.4878,-2.4394,-2.3922,-2.3576,-2.3351,-2.3027,-2.2562,-2.2547,-2.2651,-2.278,-2.3978,-2.4224,-2.2873,-2.2304,-2.1478,-2.0033,-1.9707,-1.9389,-1.9044,-1.9382,-1.9371,-1.8787,-1.9029,-1.8953,-1.8572,-1.8638,-1.8644,-1.8568,-1.8639,-1.8659,-1.8659,-1.8718,-1.8673,-3.7092,-3.5278,-3.2586,-2.8479,-2.7505,-2.3179,-0.634,0.7768,1.8666,2.3604,2.5006,2.3495,1.7233,0.5883,-0.5591,-1.5081,-2.2589,-2.8065,-3.0151,-3.0707,-3.0598,-2.9743,-2.9081,-2.8516,-2.8176,-2.6262,-2.5074,-2.5151,-2.5821,-2.6613,-2.7546,-2.7078,-2.7077,-2.7786,-2.7784,-2.7436,-2.6744,-2.6821,-2.6024,-2.4362,-2.4234,-2.4055,-2.3785,-2.3689,-2.4114,-2.4928,-2.4598,-2.4905,-2.5715,-2.5541,-2.4727,-2.3594,-2.3625,-2.2943,-2.1935,-2.1413,-2.1368,-2.1479,-2.1439,-2.1836,-2.273,-2.5072,-2.6513,-2.7327,-2.7404,-2.7986,-2.8721,-2.9168,-2.9346,-2.9381,-2.9596,-2.9678,-2.9721,-2.9721,-2.9574,-2.9402,-2.9403,-2.9184,-2.8624,-2.7127,-2.5512,-2.4405,-2.4331,-2.5203,-2.5426,-2.4036,-2.4994,-2.5343,-2.4065,-2.5502,-2.6625,-2.6499,-2.3999,-2.2153,-2.1829,-2.1658,-2.148,-2.1356,-2.2632,-2.33,-2.3109,-2.3311,-2.3305,-2.2889,-2.3219,-2.3223,-2.2914,-2.3225,-2.3395,-2.3388,-2.3511,-2.3374,-3.6827,-3.7154,-3.4935,-3.1978,-2.9762,-2.5351,-1.4236,-0.4773,0.399,1.2216,1.1532,0.8643,0.5905,-0.3137,-1.3154,-2.1989,-2.7149,-3.0857,-3.324,-3.3318,-3.2933,-3.2352,-3.1606,-3.1114,-3.0946,-2.9073,-2.8007,-2.8458,-2.9094,-2.9212,-2.8659,-2.8794,-2.871,-2.8335,-2.8661,-2.8671,-2.8243,-2.8501,-2.819,-2.7362,-2.7071,-2.6855,-2.6644,-2.6468,-2.6436,-2.6563,-2.6391,-2.6372,-2.6439,-2.632,-2.5876,-2.524,-2.4959,-2.453,-2.405,-2.3545,-2.3415,-2.3415,-2.3723,-2.3565,-2.3595,-2.5452,-2.627,-2.663,-2.7223,-2.7714,-2.8143,-2.8557,-2.8824,-2.8933,-2.905,-2.9193,-2.9292,-2.9292,-2.9324,-2.9324,-2.9307,-2.9408,-2.9311,-2.8561,-2.7905,-2.7462,-2.7458,-2.7813,-2.7825,-2.7159,-2.7543,-2.7802,-2.7317,-2.7998,-2.8192,-2.7292,-2.5928,-2.4677,-2.3643,-2.3516,-2.3425,-2.3319,-2.3948,-2.4255,-2.4032,-2.4136,-2.413,-2.4034,-2.4218,-2.4287,-2.4259,-2.4446,-2.4521,-2.452,-2.4585,-2.4508,-3.588,-3.8449,-3.7524,-3.5083,-3.1727,-2.7538,-2.1689,-1.6207,-0.9637,0.0089,-0.1108,-0.3939,-0.4016,-1.0725,-1.8791,-2.6534,-2.9964,-3.2633,-3.542,-3.5282,-3.4658,-3.3978,-3.3161,-3.2586,-3.2434,-3.0937,-3.05,-3.1809,-3.1948,-3.16,-3.0695,-3.1009,-3.0647,-2.9451,-2.98,-2.9838,-2.9495,-2.9649,-2.9678,-2.9555,-2.924,-2.8996,-2.874,-2.8568,-2.8157,-2.758,-2.758,-2.7154,-2.6406,-2.6406,-2.6291,-2.6007,-2.5607,-2.547,-2.5401,-2.4734,-2.4513,-2.4612,-2.5464,-2.5219,-2.4647,-2.5712,-2.6039,-2.6198,-2.7049,-2.7453,-2.7714,-2.8148,-2.8428,-2.8608,-2.8665,-2.8849,-2.8971,-2.8971,-2.8939,-2.8965,-2.9008,-2.9156,-2.9276,-2.9418,-2.9544,-2.9675,-2.9724,-2.9579,-2.9438,-2.9438,-2.9391,-2.9406,-2.9693,-2.9755,-2.9296,-2.8007,-2.747,-2.6681,-2.5339,-2.5174,-2.506,-2.49,-2.5215,-2.5353,-2.5133,-2.5192,-2.5298,-2.5387,-2.545,-2.5573,-2.5768,-2.5841,-2.5859,-2.5859,-2.5968,-2.5956,-3.4564,-3.9066,-4.107,-3.7627,-3.5961,-3.3794,-2.8776,-2.2973,-1.7196,-1.2275,-0.994,-0.929,-1.0983,-1.6538,-2.3098,-2.9937,-3.3754,-3.658,-3.8728,-3.8397,-3.6931,-3.4316,-3.32,-3.2434,-3.1792,-3.1119,-3.1892,-3.49,-3.4374,-3.412,-3.4657,-3.4014,-3.3038,-3.173,-3.1756,-3.1173,-2.9914,-2.9783,-2.9466,-2.9021,-2.8988,-2.8703,-2.8206,-2.8206,-2.7989,-2.758,-2.758,-2.7154,-2.6406,-2.6406,-2.6291,-2.604,-2.6007,-2.6007,-2.5909,-2.4843,-2.4513,-2.4737,-2.6537,-2.6856,-2.643,-2.6163,-2.6297,-2.663,-2.6968,-2.7322,-2.7728,-2.8371,-2.8532,-2.8646,-2.8902,-2.8954,-2.8971,-2.8971,-2.8971,-2.9001,-2.9105,-2.9038,-2.9121,-2.9635,-2.9541,-2.9429,-2.9717,-2.9726,-2.9713,-2.9733,-2.9722,-2.9735,-2.9725,-2.9872,-2.9823,-2.9634,-2.8149,-2.7081,-2.6738,-2.6472,-2.6256,-2.598,-2.7246,-2.8,-2.7978,-2.82,-2.8356,-2.8374,-2.859,-2.8727,-2.8743,-2.8994,-2.9111,-2.9111,-2.9362,-2.9508,-2.9129,-3.6558,-4.0665,-3.8986,-3.7546,-3.6037,-3.3997,-3.122,-2.779,-2.3391,-2.3277,-2.3832,-2.3319,-2.5872,-2.9627,-3.4533,-3.6038,-3.7197,-3.879,-3.8404,-3.7569,-3.6533,-3.4855,-3.3847,-3.406,-3.3084,-3.3471,-3.5959,-3.572,-3.5455,-3.5237,-3.5438,-3.4898,-3.3426,-3.3642,-3.3537,-3.3078,-3.2999,-3.2879,-3.2678,-3.2216,-3.1865,-3.1686,-3.1338,-3.0917,-3.0467,-3.0467,-3.0031,-2.9298,-2.9298,-2.9093,-2.8769,-2.8769,-2.8769,-2.8697,-2.7921,-2.7406,-2.7264,-2.833,-2.8601,-2.8642,-2.939,-2.9384,-2.896,-2.8728,-2.8617,-2.853,-2.8375,-2.8337,-2.8323,-2.8464,-2.8448,-2.8448,-2.8448,-2.8448,-2.8469,-2.8532,-2.8776,-2.9037,-2.9194,-2.9355,-2.9521,-2.9701,-2.9724,-2.9762,-2.9841,-2.9851,-2.987,-2.9841,-2.9907,-2.9811,-2.9535,-2.895,-2.8483,-2.8218,-2.8107,-2.7973,-2.7699,-2.7907,-2.7987,-2.7811,-2.7894,-2.7928,-2.7822,-2.8437,-2.8685,-2.8594,-2.8943,-2.9121,-2.9084,-2.9268,-2.9409,-2.9102,-3.7167,-4.1712,-4.1248,-4.004,-3.8801,-3.8444,-3.678,-3.4518,-3.1649,-3.2016,-3.2414,-3.0935,-3.178,-3.3607,-3.641,-3.6888,-3.7384,-3.8752,-3.8356,-3.7746,-3.7371,-3.5574,-3.4606,-3.5286,-3.4807,-3.5123,-3.68,-3.709,-3.7026,-3.6657,-3.7215,-3.6835,-3.5309,-3.5525,-3.5398,-3.4878,-3.4809,-3.4789,-3.4789,-3.4011,-3.3648,-3.3628,-3.3087,-3.2526,-3.1966,-3.2052,-3.1555,-3.0729,-3.0873,-3.0656,-3.0315,-3.0315,-3.0315,-3.0238,-2.9661,-2.9782,-3.0292,-3.0238,-3.0237,-3.0288,-3.0972,-3.0792,-3.0301,-3.0072,-2.986,-2.9713,-2.9391,-2.9399,-2.9369,-2.8704,-2.8745,-2.8803,-2.8154,-2.8093,-2.8206,-2.8316,-2.8509,-2.8758,-2.8964,-2.9202,-2.9404,-2.964,-2.9735,-2.9777,-2.984,-2.9917,-2.9917,-2.9952,-2.9891,-2.9744,-2.9438,-2.9324,-2.9189,-2.9004,-2.8758,-2.8516,-2.8251,-2.7893,-2.7573,-2.7392,-2.7427,-2.7357,-2.7278,-2.7765,-2.8255,-2.8638,-2.8998,-2.949,-3.0151,-3.0329,-3.062,-3.4226,-4.0751,-4.4326,-4.4464,-4.3508,-4.2442,-4.214,-3.9426,-3.6922,-3.6832,-3.5349,-3.3891,-3.3129,-3.3737,-3.4668,-3.5505,-3.646,-3.755,-3.8882,-3.84,-3.7603,-3.6711,-3.5324,-3.4691,-3.5338,-3.6105,-3.6893,-3.7838,-3.8601,-3.9083,-3.9161,-3.9401,-3.8881,-3.7429,-3.7395,-3.6696,-3.5156,-3.5019,-3.494,-3.4933,-3.4175,-3.3814,-3.3775,-3.3256,-3.2583,-3.186,-3.2105,-3.1528,-3.0484,-3.0862,-3.0789,-3.0446,-3.0446,-3.0446,-3.0408,-2.9903,-3.1402,-3.3475,-3.2084,-3.1592,-3.1455,-3.0677,-3.0446,-3.0528,-3.0868,-3.1012,-3.1084,-3.1428,-3.178,-3.1609,-2.9725,-2.9865,-3.0085,-2.8206,-2.8036,-2.8394,-2.8653,-2.8509,-2.8515,-2.909,-2.9118,-2.9155,-2.9479,-2.9648,-2.9733,-2.9733,-2.9858,-2.9952,-2.9926,-2.9811,-2.9671,-2.956,-2.9316,-2.9084,-2.8954,-2.8324,-2.787,-2.7605,-2.7208,-2.7018,-2.7018,-2.7052,-2.7086,-2.7059,-2.7121,-2.7814,-2.9226,-2.9446,-3.0578,-3.245,-3.27,-3.325,-2.0753,-3.1895,-4.0138,-4.3637,-4.5062,-4.5269,-4.3963,-4.2896,-4.1405,-3.8451,-3.7445,-3.6859,-3.5955,-3.7114,-3.8006,-3.7631,-3.8877,-3.9664,-3.8993,-3.866,-3.8285,-3.7749,-3.6345,-3.6903,-4.0714,-4.1018,-4.1308,-4.2151,-4.2399,-4.2132,-4.1242,-4.136,-4.0741,-3.9215,-3.9245,-3.9029,-3.8514,-3.8365,-3.8266,-3.8173,-3.7964,-3.7622,-3.7149,-3.6992,-3.6182,-3.4889,-3.4601,-3.4103,-3.3438,-3.3531,-3.3489,-3.3438,-3.3438,-3.3438,-3.3396,-3.3236,-3.3683,-3.4259,-3.3868,-3.3737,-3.3716,-3.3485,-3.3655,-3.3863,-3.3231,-3.3239,-3.3227,-3.2214,-3.1992,-3.1887,-3.1074,-3.1068,-3.1146,-3.09,-3.0909,-3.1137,-3.1563,-3.1757,-3.1624,-3.0823,-3.0743,-3.0579,-2.9821,-2.9707,-2.9739,-2.9727,-2.9872,-2.9888,-2.9806,-2.9857,-2.9672,-2.9156,-2.9069,-2.8721,-2.8019,-2.7812,-2.7569,-2.7208,-2.6787,-2.6584,-2.6584,-2.7671,-2.8155,-2.7893,-2.946,-3.0303,-3.0411,-3.0776,-3.1237,-3.1777,-3.2314,-3.2799,-1.8839,-2.8997,-3.8197,-4.3818,-4.6084,-4.6281,-4.3794,-4.3259,-4.2352,-3.9189,-3.9106,-3.9417,-3.8786,-4.0055,-4.1081,-4.0698,-4.1559,-4.1938,-4.1126,-4.0903,-4.0703,-4.0352,-3.9503,-4.0144,-4.3285,-4.3397,-4.3525,-4.4142,-4.4177,-4.3903,-4.3233,-4.3261,-4.2913,-4.2051,-4.2066,-4.2049,-4.1984,-4.1792,-4.1661,-4.1581,-4.0598,-3.9915,-3.9519,-3.8538,-3.7477,-3.6451,-3.571,-3.51,-3.4622,-3.4622,-3.4622,-3.4622,-3.4622,-3.4622,-3.4622,-3.4622,-3.4622,-3.4622,-3.4622,-3.4622,-3.4665,-3.4847,-3.5108,-3.5305,-3.4916,-3.4821,-3.4616,-3.372,-3.348,-3.3239,-3.2168,-3.2176,-3.2348,-3.1727,-3.1683,-3.1966,-3.2407,-3.2654,-3.2666,-3.2338,-3.2309,-3.2237,-3.1776,-3.113,-3.0703,-3.072,-3.0768,-3.0571,-2.9847,-2.9814,-2.9708,-2.9313,-2.9134,-2.8685,-2.7824,-2.7519,-2.7181,-2.6821,-2.6256,-2.6172,-2.6731,-2.741,-2.8085,-2.866,-2.9938,-3.0926,-3.1555,-3.1782,-3.2605,-3.4045,-3.4647,-3.5439,-2.201,-2.6987,-3.4055,-4.1996,-4.5417,-4.609,0.0,-4.2519,-4.1996,-3.9865,-4.0811,-4.1884,-4.1465,-4.2759,-4.3958,-4.3965,-4.4097,-4.4113,-4.3965,-4.3928,-4.3976,-4.4008,-4.4021,-4.4138,-4.4509,-4.455,-4.4702,-4.5056,-4.5068,-4.5075,-4.5136,-4.5144,-4.5123,-4.5065,-4.4968,-4.49,-4.489,-4.4619,-4.4503,-4.4476,-4.2332,-4.1314,-4.123,-3.9077,-3.7815,-3.7324,-3.6341,-3.5651,-3.5071,-3.5071,-3.5071,-3.5082,-3.4918,-3.4951,-3.5071,-3.5071,-3.5071,-3.5071,-3.5071,-3.5071,-3.5093,-3.5409,-3.5589,-3.5756,-3.6049,-3.5902,-3.5598,-3.5513,-3.5473,-3.505,-3.3217,-3.3292,-3.3507,-3.179,-3.1664,-3.2073,-3.2515,-3.2636,-3.2879,-3.3679,-3.3865,-3.4001,-3.4315,-3.3223,-3.2418,-3.2606,-3.2465,-3.1833,-3.0446,-3.0094,-3.0,-2.9982,-2.9466,-2.8854,-2.8065,-2.7348,-2.6803,-2.6518,-2.587,-2.6046,-2.7266,-2.7065,-2.7722,-2.9453,-2.9644,-3.0738,-3.267,-3.2787,-3.4431,-3.7568,-3.8286,-3.9561,0.0,0.0,0.0,0.0,0.0,0.0,0.0,-4.6981,-4.6812,-4.3483,-4.4403,-4.5374,-4.3939,-4.5789,-4.6859,-4.4628,-4.5108,-4.539,-4.4113,-4.3928,-4.4955,-4.7703,-4.8059,-4.8119,-4.8309,-4.8303,-4.8368,-4.8561,-4.8571,-4.8068,-4.6838,-4.6805,-4.6221,-4.4989,-4.493,-4.4841,-4.4737,-4.4576,-4.4434,-4.4335,-4.3561,-4.311,-4.287,-4.2095,-4.1073,-3.9902,-3.9701,-3.9027,-3.8026,-3.8026,-3.8026,-3.7928,-3.6792,-3.7055,-3.8026,-3.8026,-3.8026,-3.8026,-3.8026,-3.8026,-3.7877,-3.6831,-3.706,-3.7518,-3.6467,-3.6592,-3.6961,-3.6237,-3.6015,-3.5719,-3.4483,-3.429,-3.4476,-3.45,-3.4591,-3.4864,-3.5756,-3.599,-3.5823,-3.5313,-3.5355,-3.5209,-3.4269,-3.4017,-3.4412,-3.5797,-3.4909,-3.3966,-3.3561,-3.2388,-3.1609,-3.1615,-3.0075,-2.8792,-2.8348,-2.7031,-2.6468,-2.7018,-2.7122,-2.7459,-2.8133,-2.9144,-2.9903,-3.029,-3.1413,-3.2759,-3.4187,-3.4836,-3.5996,-3.7708,-3.8877,-4.051,0.0,0.0,0.0,0.0,0.0,0.0,0.0,0.0,0.0,0.0,0.0,-4.4789,-4.4954,0.0,-4.8143,-4.6674,-4.7178,-4.7439,-4.6677,-4.6565,-4.7222,-4.9048,-4.9269,-4.9348,-4.9453,-4.9477,-4.9544,-4.9659,-4.9666,-4.9363,-4.862,-4.8584,-4.8211,-4.7457,-4.7298,-4.7213,-4.7125,-4.6925,-4.6786,-4.6736,-4.5368,-4.4635,-4.4483,-4.3167,-4.186,-4.0643,-4.0643,-3.9961,-3.888,-3.888,-3.888,-3.888,-3.8962,-3.9389,-3.9948,-3.9143,-3.888,-3.888,-3.888,-3.888,-3.8846,-3.8718,-3.9014,-3.9443,-3.9317,-3.9144,-3.8828,-3.7659,-3.6916,-3.6136,-3.4917,-3.4622,-3.4632,-3.4932,-3.5016,-3.5272,-3.6309,-3.6522,-3.6652,-3.6958,-3.7125,-3.7145,-3.6782,-3.683,-3.694,-3.6917,-3.626,-3.5461,-3.4523,-3.3725,-3.2601,-3.0897,-2.9668,-2.8428,-2.7131,-2.578,-2.5448,-2.658,-2.6943,-2.7188,-2.7311,-2.8365,-2.9445,-3.0379,-3.173,-3.3165,-3.4632,-3.566,-3.7073,-3.8818,-4.017,-4.1906,0.0,0.0,0.0,0.0,0.0,0.0,0.0,0.0,0.0,0.0,0.0,0.0,0.0,0.0,0.0,-4.846,-4.8789,-4.9109,-4.9147,-4.9203,-4.9285,-4.9413,-4.9402,-4.9477,-4.9573,-4.9619,-4.9666,-4.9777,-4.9819,-4.9835,-4.9963,-4.9963,-4.9925,-4.9923,-4.9687,-4.9536,-4.9516,-4.9301,-4.9185,-4.9147,-4.7155,0.0,-4.6124,-4.4036,-4.2485,-4.1462,-4.1215,-4.0487,-3.9498,-3.9498,-3.9498,-3.9596,-4.0858,-4.1454,-4.1461,-4.0161,-3.9734,-3.9734,-3.9734,-3.9734,-3.9867,-4.0636,-4.0931,-4.1187,-4.2001,-4.1643,0.0,-3.9431,-3.8292,-3.7223,-3.593,-3.5533,-3.5444,-3.5444,-3.5444,-3.5709,-3.6638,-3.691,-3.7359,-3.8364,-3.8769,-3.9027,-3.9212,-3.9644,-3.9221,-3.7216,-3.7216,-3.6805,-3.5108,-3.4884,-3.3834,-3.1051,-3.0214,-2.905,-2.7035,-2.5359,-2.4964,-2.6099,-2.6208,-2.6187,-2.607,-2.6683,-2.7711,-2.9089,-3.0305,-3.1872,-3.3798,-3.5356,-3.7403,-3.9738,-4.074,-4.2493,0.0,0.0,0.0,0.0,0.0,0.0,0.0,0.0,0.0,0.0,0.0,0.0,0.0,0.0,0.0,0.0,-4.8337,-4.8789,-4.9128,-4.9385,-4.9506,-4.9564,-4.9564,-4.9619,-4.971,-4.9754,-4.9819,-4.9924,-4.9924,-4.9924,-4.9963,-4.9963,0.0,0.0,0.0,-4.9495,-4.9389,-4.9255,-4.9185,-4.9147,-4.8312,-4.7921,-4.7894,-4.6343,-4.5243,-4.4514,-4.3243,-4.2275,-4.1619,-4.1619,-4.1619,-4.1619,-4.1837,-4.2398,-4.3105,-4.294,-4.2874,-4.2874,-4.2874,0.0,0.0,-4.2066,-4.2154,-4.24,-4.1842,-4.1895,-4.2036,-4.1432,-4.0723,-4.0043,-3.9422,-3.8831,-3.8387,-3.8387,-3.8387,-3.8547,-3.912,-3.9703,-3.9907,-3.9144,-3.9849,-4.0156,-3.8815,-4.0237,-4.0492,-3.7403,-3.8211,-3.8585,-3.6889,-3.6627,-3.6404,-3.5786,-3.4167,0.0,-3.1301,-2.8301,-2.653,-2.6568,-2.5388,-2.4977,-2.5503,-2.5624,-2.5382,-2.4836,-2.5622,-2.7646,-3.0794,-3.3403,-3.6267,-3.9296,-3.8545,-4.0304,0.0,0.0,0.0,0.0,0.0,0.0,0.0,0.0,0.0,0.0,0.0,0.0,0.0,0.0,0.0,0.0,-4.7894,-4.8847,-4.9231,-4.8573,-4.8513,-4.956,-4.968,-4.971,-4.9875,-4.9879,-4.9883,-4.9963,-4.9963,-4.9963,-4.9963,-4.9881,-4.9826,-4.9763,-4.9574,-4.9428,-4.9361,-4.9238,-4.9051,-4.8811,-4.842,-4.8101,-4.7832,-4.6989,-4.6054,-4.5029,-4.3981,-4.2973,-4.1952,-4.1477,-4.1596,-4.1952,0.0,0.0,0.0,0.0,-4.3368,-4.3368,-4.3368,-4.3368,-4.3399,-4.3686,-4.3919,-4.4176,-4.4607,-4.4657,-4.4331,-4.3262,-4.2238,-4.118,-4.0142,-3.9343,-3.888,-3.888,-3.888,-3.8994,-3.953,-4.0136,-4.0723,-4.0967,-4.1697,0.0,-4.1716,-4.2631,-4.2552,-4.0111,-4.0423,-4.0301,-3.8637,-3.8421,-3.7508,-3.5218,-3.4241,-3.2821,-3.0505,-2.8381,0.0,0.0,0.0,-2.4966,-2.6519,-2.4621,0.0,0.0,0.0,-2.5125,-2.7643,-3.0023,0.0,0.0,-3.4121,-3.7016,0.0,0.0,0.0,0.0,0.0,0.0,0.0,0.0,0.0,0.0,0.0,0.0,0.0,0.0,0.0,0.0,-4.4206,-4.6547,-4.4876,-4.6463,-4.8512,-5.0252,-5.008,-4.9875,-4.9963,-4.9963,-4.9963,-4.9963,-4.9963,-4.9963,-4.9963,-4.9832,-4.9759,-4.9699,-4.95,-4.9356,-4.9311,-4.9203,-4.8991,-4.8617,-4.8305,-4.8014,-4.7614,-4.706,-4.6172,-4.5029,-4.3863,-4.2547,-4.1201,-4.0427,-4.0522,-4.1201,-4.0615,-4.1888,-4.4115,-4.3893,-4.3698,-4.3572,-4.3422,-4.3368,-4.3551,-4.4688,-4.5075,-4.5336,-4.6644,-4.6683,-4.6124,-4.507,-4.4001,-4.2813,-4.1622,-4.0796,-4.028,-4.0145,-4.0095,-4.0246,-4.0575,-4.1305,-4.2013,-4.2526,-4.3779,-4.4709,-4.4712,-4.502,-4.4441,-4.2185,-4.192,-4.1393,-3.9748,-3.9475,-3.8333,-3.5419,-3.5122,-3.401,-3.1303,-2.9297,-2.8384,-2.87,-2.5887,-2.4761,-2.6064,-2.3438,-2.2004,-2.1913,-2.1956,-2.2551,0.0,0.0,0.0,0.0,0.0,0.0,0.0,0.0,0.0,0.0,0.0,0.0,0.0,0.0,0.0,0.0,0.0,0.0,0.0,0.0,0.0,0.0,0.0,0.0,-3.3608,-4.2575,-5.045,-5.2001,-5.0862,-4.9963,-4.9963,-4.9963,-4.9963,-4.9963,-4.9963,-4.9963,-4.9963,-4.9832,-4.9693,-4.9602,-4.9453,-4.9333,-4.9166,-4.9204,-4.8991,-4.8617,-4.8305,-4.8014,-4.7614,-4.6577,-4.5723,-4.4983,-4.2766,-4.0891,-3.9277,-3.8495,-3.8669,-3.9378,-3.9995,-4.1848,-4.4215,-4.4796,-4.4654,-4.4048,-4.3518,-4.3368,-4.3551,-4.4688,-4.5075,-4.5336,-4.6644,-4.7021,-4.7021,-4.6985,-4.646,-4.5781,-4.5108,-4.447,-4.3813,-4.3333,-4.3236,-4.3236,-4.3236,-4.4132,-4.4635,-4.3515,-4.5899,-4.7768,-4.6924,-4.6861,-4.5835,-4.2483,-4.2005,0.0,-3.9857,-3.9537,-3.9172,-3.8425,-3.8359,-3.7677,-3.6067,-3.2438,-2.9766,-2.8632,-2.5909,-2.3893,-2.2895,-2.2047,-2.1181,-2.034,-1.9695,-1.9293,-1.922,0.0,0.0,0.0,0.0,0.0,0.0,0.0,0.0,0.0,0.0,0.0,0.0,0.0,0.0,0.0,0.0,0.0,0.0,0.0,0.0,0.0,0.0,0.0,0.0,-3.2199,-3.763,-4.9237,-5.0141,-4.9829,-4.9829,-4.9884,-4.9963,-4.9963,-4.9963,-4.9923,-4.9829,-4.9693,-4.9555,-4.9441,-4.9317,-4.9203,-4.9185,-4.9185,-4.8991,-4.8617,-4.8305,-4.8014,-4.7614,-4.6988,-4.6096,-4.5029,-4.3095,-4.1184,-3.9145,-3.7761,-3.7336,-3.7588,-3.8755,-4.1164,-4.408,-4.4809,-4.4937,-4.4701,-4.4082,-4.3612,-4.3551,-4.4688,-4.5075,-4.5336,-4.6644,-4.7021,-4.7021,-4.7021,-4.6605,-4.5894,-4.5291,-4.4606,-4.3998,-4.3465,-4.3368,-4.3368,-4.3368,-4.4267,-4.5148,-4.525,-4.6858,-4.7915,-4.6998,-4.7879,-4.7575,-4.4164,-4.4695,-4.4451,-4.1575,-4.1089,-4.0364,-3.8646,-3.8469,-3.7858,-3.6275,-3.4547,-3.2661,-3.0611,-2.8047,-2.597,-2.4639,-2.317,-2.1957,-2.0903,-1.9695,-1.8507,-1.7395,0.0,0.0,0.0,0.0,0.0,0.0,0.0,0.0,0.0,0.0,0.0,0.0,0.0,0.0,0.0,0.0,0.0,0.0,0.0,0.0,0.0,0.0,0.0,0.0,0.0,0.0,-4.6833,-4.8013,0.0,-4.8578,-4.8921,-4.9051,-4.9049,-5.0152,-5.0528,-4.9806,-5.022,-5.0138,-4.9385,-4.9238,-4.9185,-4.9185,-4.9185,-4.8991,-4.8617,-4.8305,-4.8014,-4.7614,-4.7205,-4.6335,-4.4995,-4.2897,-4.0725,-3.8521,-3.606,-3.5159,-3.5523,-3.6999,-3.9809,-4.3134,-4.4291,-4.4538,-4.4296,-4.388,-4.293,-4.2062,-4.3188,-4.3544,-4.3746,-4.4815,-4.5479,-4.5979,-4.6164,-4.6296,-4.6254,-4.5636,-4.4937,-4.4314,-4.3737,-4.3465,-4.3368,-4.3368,-4.4267,-4.5331,-4.6083,-4.7317,-4.7915,-4.6998,-4.7844,-4.7938,-4.5789,-4.5963,-4.5755,-4.4053,-4.2669,-4.1219,-3.968,-3.8903,-3.7874,-3.6418,-3.5621,-3.4141,-3.1655,-2.9486,-2.7437,-2.5519,-2.4124,-2.259,-2.0864,-1.9622,-1.7954,0.0,0.0,0.0,0.0,0.0,0.0,0.0,0.0,0.0,0.0,0.0,0.0,0.0,0.0,0.0,0.0,0.0,0.0,0.0,0.0,0.0,0.0,0.0,0.0,0.0,0.0,0.0,-4.4498,-4.4472,0.0,0.0,0.0,0.0,-4.7075,-5.0183,-5.1364,-4.9688,-5.1015,-5.1093,-4.9422,-4.9238,-4.9185,-4.9185,-4.9185,-4.8991,-4.8617,-4.8305,-4.8014,-4.7614,-4.7205,-4.6295,-4.4868,-4.2133,-3.9686,-3.7205,-3.329,-3.216,-3.2904,-3.4728,-3.7648,-4.1106,-4.291,-4.3281,-4.282,-4.2537,-4.0943,-3.9126,-3.996,-4.0259,-4.0379,-4.076,-4.2046,0.0,0.0,-4.5592,-4.6728,-4.6113,-4.5523,-4.4937,-4.4265,-4.3737,-4.3368,-4.3368,-4.4267,-4.5296,-4.5938,-4.7067,-4.7631,-4.6718,0.0,-4.6927,-4.6991,-4.5772,-4.5394,-4.6916,-4.414,-4.1884,-4.1442,-3.9733,-3.8049,-3.6647,-3.5741,-3.4184,-3.1707,-3.0111,-2.8156,-2.5791,-2.4647,-2.2979,-2.0546,-1.9377,0.0,0.0,0.0,0.0,0.0,0.0,0.0,0.0,0.0,0.0,0.0,0.0,0.0,0.0,0.0,0.0,0.0,0.0,0.0,0.0,0.0,0.0,0.0,0.0,0.0,0.0,-0.4907,-1.6132,-3.4884,-3.9741,-4.1078,0.0,0.0,0.0,0.0,0.0,0.0,-4.7667,-4.8118,-4.8635,-4.9238,-4.9185,-4.9185,-4.9185,-4.9185,-4.8991,-4.8617,-4.8305,-4.8014,-4.7614,-4.6692,-4.5532,-4.4111,-4.1573,-3.8569,-3.5081,-3.0941,-2.8135,-2.6854,-3.1268,-3.335,-3.4249,-3.7567,-3.9855,-4.0727,-3.628,-3.517,-3.5501,-3.349,-3.2885,-3.2635,-3.1282,0.0,0.0,0.0,0.0,-4.4678,-4.4371,-4.4724,-4.4937,-4.4265,-4.3737,-4.3368,-4.3368,-4.4267,-4.4718,-4.3458,-4.3632,-4.3765,-4.2943,-4.4113,0.0,-4.3654,-4.5251,-4.6272,-4.547,-4.5545,-4.4585,-4.1721,-4.0787,-3.9336,-3.6753,-3.6136,-3.49,-3.2493,-3.1423,-3.0229,-2.8722,-2.5823,-2.4268,-2.4278,0.0,0.0,0.0,0.0,0.0,0.0,0.0,0.0,0.0,0.0,0.0,0.0,0.0,0.0,0.0,0.0,0.0,0.0,0.0,0.0,0.0,0.0,0.0,0.0,0.0,0.0,0.0,0.6604,-0.4973,-2.1697,-2.4624,-2.4981,0.0,0.0,0.0,0.0,0.0,0.0,0.0,0.0,0.0,-4.7872,-4.7748,-4.8163,-4.9147,-4.9011,-4.8811,-4.8617,-4.8305,-4.7851,-4.7166,-4.6424,-4.5143,-4.3352,-4.0725,-3.6254,-3.0415,-2.5229,-2.1442,-1.8978,0.0,0.0,0.0,0.0,-2.5546,-2.7288,-2.4731,-2.4283,-2.4638,-2.2914,0.0,0.0,0.0,0.0,0.0,0.0,0.0,-4.0161,-4.2224,-4.3624,-4.4541,-4.4531,-4.3845,-4.3094,-4.2826,-4.1376,-3.979,-3.8689,-3.9107,-3.9481,-3.8888,-4.0679,0.0,0.0,0.0,-4.6099,-4.5871,-4.6528,-4.6206,-4.4098,-4.2748,-4.0995,-3.8406,-3.7569,-3.6007,-3.3179,-3.1646,-3.014,-2.8465,-2.5338,-2.3306,0.0,0.0,0.0,0.0,0.0,0.0,0.0,0.0,0.0,0.0,0.0,0.0,0.0,0.0,0.0,0.0,0.0,0.0,0.0,0.0,0.0,0.0,0.0,0.0,0.0,0.0,0.0,0.0,0.0,0.4067,-0.7092,0.0,0.0,0.0,0.0,0.0,0.0,0.0,0.0,0.0,0.0,0.0,0.0,0.0,-4.551,-4.8388,-4.8398,-4.8399,-4.8349,-4.8105,-4.7498,-4.6552,-4.5796,-4.4388,-4.2348,-3.791,0.0,-2.3799,-1.7308,0.0,0.0,0.0,0.0,0.0,0.0,0.0,0.0,0.0,0.0,0.0,0.0,0.0,0.0,0.0,0.0,0.0,0.0,0.0,0.0,0.0,0.0,-4.2945,-4.3781,-4.3025,-4.1675,-4.0027,-3.5619,-3.1913,-3.1886,-3.2885,-3.3965,0.0,0.0,0.0,0.0,0.0,0.0,-4.6696,-4.7154,-4.7292,-4.7078,-4.503,-4.2804,-4.0727,-3.9283,-3.7123,-3.3935,-3.1403,-2.9056,-2.6774,-2.4083,0.0,0.0,0.0,0.0,0.0,0.0,0.0,0.0,0.0,0.0,0.0,0.0,0.0,0.0,0.0,0.0,0.0,0.0,0.0,0.0,0.0,0.0,0.0,0.0,0.0,0.0,0.0,0.0,0.0,0.0,0.0,0.0,0.0,0.0,0.0,0.0,0.0,0.0,0.0,0.0,0.0,0.0,0.0,0.0,0.0,0.0,0.0,0.0,0.0,0.0,-4.6953,-4.6627,-4.6067,-4.3394,-4.1662,-4.0025,-2.7473,-1.9389,-1.4688,-0.8424,0.0,0.0,0.0,0.0,0.0,0.0,0.0,0.0,0.0,0.0,0.0,0.0,0.0,0.0,0.0,0.0,0.0,0.0,0.0,0.0,0.0,0.0,-3.7468,-3.8057,-3.8025,-3.5916,-2.8894,0.0,0.0,0.0,0.0,0.0,0.0,0.0,0.0,0.0,0.0,0.0,-4.4946,-4.7476,-4.8605,-4.7204,-4.5979,-4.4414,-4.2334,-3.9918,-3.7598,-3.5463,-3.1859,-2.8972,0.0,0.0,0.0,0.0,0.0,0.0,0.0,0.0,0.0,0.0,0.0,0.0,0.0,0.0,0.0,0.0,0.0,0.0,0.0,0.0,0.0,0.0,0.0,0.0,0.0,0.0,0.0,0.0,0.0,0.0,0.0,0.0,0.0,0.0,0.0,0.0,0.0,0.0,0.0,0.0,0.0,0.0,0.0,0.0,0.0,0.0,0.0,0.0,0.0,0.0,0.0,0.0,0.0,0.0,0.0,0.0,0.0,0.0,-1.5665,-0.5944,0.0,0.0,0.0,0.0,0.0,0.0,0.0,0.0,0.0,0.0,0.0,0.0,0.0,0.0,0.0,0.0,0.0,0.0,0.0,0.0,0.0,0.0,0.0,0.0,0.0,0.0,0.0,0.0,0.0,0.0,0.0,0.0,0.0,0.0,0.0,0.0,0.0,0.0,0.0,0.0,-4.4603,-4.76,-4.9276,-4.8427,-4.7558,-4.6218,-4.436,-4.2107,-3.9082,-3.4899,-3.1913,0.0,0.0,0.0,0.0,0.0,0.0,0.0,0.0,0.0,0.0,0.0,0.0,0.0,0.0,0.0,0.0,0.0,0.0,0.0,0.0,0.0,0.0,0.0,0.0,0.0,0.0,0.0,0.0,0.0,0.0,0.0,0.0,0.0,0.0,0.0,0.0,0.0,0.0,0.0,0.0,0.0,0.0,0.0,0.0,0.0,0.0,0.0,0.0,0.0,0.0,0.0,0.0,0.0,0.0,0.0,0.0,0.0,0.0,0.0,-0.0312,0.8858,0.0,0.0,0.0,0.0,0.0,0.0,0.0,0.0,0.0,0.0,0.0,0.0,0.0,0.0,0.0,0.0,0.0,0.0,0.0,0.0,0.0,0.0,0.0,0.0,0.0,0.0,0.0,0.0,0.0,0.0,0.0,0.0,0.0,0.0,0.0,0.0,0.0,0.0,0.0,0.0,-4.4494,-4.7598,-4.9571,-4.9573,-4.8843,-4.7768,-4.636,-4.4309,-4.0445,-3.4326,-3.1365,0.0,0.0,0.0,0.0,0.0,0.0,0.0,0.0,0.0,0.0,0.0,0.0,0.0,0.0,0.0,0.0,0.0,0.0,0.0,0.0,0.0,0.0,0.0,0.0,0.0,0.0,0.0,0.0,0.0,0.0,0.0,0.0,0.0,0.0,0.0,0.0,0.0,0.0,0.0,0.0,0.0,0.0,0.0,0.0,0.0,0.0,0.0,0.0,0.0,0.0,0.0,0.0,0.0,0.0,0.0,0.0,0.0,0.0,0.0,0.0,0.0,0.0,0.0,0.0,0.0,0.0,0.0,0.0,0.0,0.0,0.0,0.0,0.0,0.0,0.0,0.0,0.0,0.0,0.0,0.0,0.0,0.0,0.0,0.0,0.0,0.0,0.0,0.0,0.0,0.0,0.0,0.0,0.0,0.0,0.0,0.0,0.0,0.0,0.0,0.0,0.0,-4.3946,-4.7412,-4.9571,-4.9573,-4.9048,-4.8513,-4.8013,-4.5199,-4.1036,-3.5225,0.0,0.0,0.0,0.0,0.0,0.0,0.0,0.0,0.0,0.0,0.0,0.0,0.0,0.0,0.0,0.0,0.0,0.0,0.0,0.0,0.0,0.0,0.0,0.0,0.0,0.0,0.0,0.0,0.0,0.0,0.0,0.0,0.0,0.0,0.0,0.0,0.0,0.0,0.0,0.0,0.0,0.0,0.0,0.0,0.0,0.0,0.0,0.0,0.0,0.0,0.0,0.0,0.0,0.0,0.0,0.0,0.0,0.0,0.0,0.0,0.0,0.0,0.0,0.0,0.0,0.0,0.0,0.0,0.0,0.0,0.0,0.0,0.0,0.0,0.0,0.0,0.0,0.0,0.0,0.0,0.0,0.0,0.0,0.0,0.0,0.0,0.0,0.0,0.0,0.0,0.0,0.0,0.0,0.0,0.0,0.0,0.0,0.0,0.0,0.0,0.0,0.0,-4.3863,-4.7386,-4.9576,-4.9552,-4.9176,-4.8717,-4.8261,-4.613,-4.1512,-3.3737,0.0,0.0,0.0,0.0,0.0,0.0,0.0,0.0,0.0,0.0,0.0,0.0,0.0,0.0,0.0,0.0,0.0,0.0,0.0,0.0,0.0,0.0,0.0,0.0,0.0,0.0,0.0,0.0,0.0,0.0,0.0,0.0,0.0,0.0,0.0,0.0,0.0,0.0,0.0,0.0,0.0,0.0,0.0,0.0,0.0,0.0,0.0,0.0,0.0,0.0,0.0,0.0,0.0,0.0,0.0,0.0,0.0,0.0,0.0,0.0,0.0,0.0,0.0,0.0,0.0,0.0,0.0,0.0,0.0,0.0,0.0,0.0,0.0,0.0,0.0,0.0,0.0,0.0,0.0,0.0,0.0,0.0,0.0,0.0,0.0,0.0,0.0,0.0,0.0,0.0,0.0,0.0,0.0,0.0,0.0,0.0,0.0,0.0,0.0,0.0,0.0,0.0,-4.3713,-4.7321,-4.9578,-4.956,-4.9311,-4.8898,-4.8261,-4.656,-4.1652,-3.2687,0.0,0.0,0.0,0.0,0.0,0.0,0.0,0.0,0.0,0.0,0.0,0.0,0.0,0.0,0.0,0.0,0.0,0.0,0.0,0.0,0.0,0.0,0.0,0.0,0.0,0.0,0.0,0.0,0.0,0.0,0.0,0.0,0.0,0.0,0.0,0.0,0.0,0.0,0.0,0.0,0.0,0.0,0.0,0.0,0.0,0.0,0.0,0.0,0.0,0.0,0.0,0.0,0.0,0.0,0.0,0.0,0.0,0.0,0.0,0.0,0.0,0.0,0.0,0.0,0.0,0.0,0.0,0.0,0.0,0.0,0.0,0.0,0.0,0.0,0.0,0.0,0.0,0.0,0.0,0.0,0.0,0.0,0.0,0.0,0.0,0.0,0.0,0.0,0.0,0.0,0.0,0.0,0.0,0.0,0.0,0.0,0.0,0.0,0.0,0.0,0.0,0.0,-4.3318,-4.7164,-4.9578,-4.956,-4.9546,-4.922,-4.8288,-4.631,-4.1435,0.0,0.0,0.0,0.0,0.0,0.0,0.0,0.0,0.0,0.0,0.0,0.0,0.0,0.0,0.0,0.0,0.0,0.0,0.0,0.0,0.0,0.0,0.0,0.0,0.0,0.0,0.0,0.0,0.0,0.0,0.0,0.0,0.0,0.0,0.0,0.0,0.0,0.0,0.0,0.0,0.0,0.0,0.0,0.0,0.0,0.0,0.0,0.0,0.0,0.0,0.0,0.0,0.0,0.0,0.0,0.0,0.0,0.0,0.0,0.0,0.0,0.0,0.0,0.0,0.0,0.0,0.0,0.0,0.0,0.0,0.0,0.0,0.0,0.0,0.0,0.0,0.0,0.0,0.0,0.0,0.0,0.0,0.0,0.0,0.0,0.0,0.0,0.0,0.0,0.0,0.0,0.0,0.0,0.0,0.0,0.0,0.0,0.0,0.0,0.0,0.0,0.0,0.0,-4.3115,-4.622,-4.8369,-4.9447,-4.9555,-4.9182,-4.8288,-4.6805,-4.1669,-3.1806,0.0,0.0,0.0,0.0,0.0,0.0,0.0,0.0,0.0,0.0,0.0,0.0,0.0,0.0,0.0,0.0,0.0,0.0,0.0,0.0,0.0,0.0,0.0,0.0,0.0,0.0,0.0,0.0,0.0,0.0,0.0,0.0,0.0,0.0,0.0,0.0,0.0,0.0,0.0,0.0,0.0,0.0,0.0,0.0,0.0,0.0,0.0,0.0,0.0,0.0,0.0,0.0,0.0,0.0,0.0,0.0,0.0,0.0,0.0,0.0,0.0,0.0,0.0,0.0,0.0,0.0,0.0,0.0,0.0,0.0,0.0,0.0,0.0,0.0,0.0,0.0,0.0,0.0,0.0,0.0,0.0,0.0,0.0,0.0,0.0,0.0,0.0,0.0,0.0,0.0,0.0,0.0,0.0,0.0,0.0,0.0,0.0,0.0,0.0,0.0,0.0,0.0,0.0,-4.6186,-4.8474,-4.9383,-4.9535,-4.9182,-4.8288,-4.6452,-4.1279,-3.1723,0.0,0.0,0.0,0.0,0.0,0.0,0.0,0.0,0.0,0.0,0.0,0.0,0.0,0.0,0.0,0.0,0.0,0.0,0.0,0.0,0.0,0.0,0.0,0.0,0.0,0.0,0.0,0.0,0.0,0.0,0.0,0.0,0.0,0.0,0.0,0.0,0.0,0.0,0.0,0.0,0.0,0.0,0.0,0.0,0.0,0.0,0.0,0.0,0.0,0.0,0.0,0.0,0.0,0.0,0.0,0.0,0.0,0.0,0.0,0.0,0.0,0.0,0.0,0.0,0.0,0.0,0.0,0.0,0.0,0.0,0.0,0.0,0.0,0.0,0.0,0.0,0.0,0.0,0.0,0.0,0.0,0.0,0.0,0.0,0.0,0.0,0.0,0.0,0.0,0.0,0.0,0.0,0.0,0.0,0.0,0.0,0.0,0.0,0.0,0.0,0.0,0.0,0.0,-4.6726,-4.9358,-4.9367,-4.95,-4.9182,-4.8288,-4.5548,-4.0375,-3.2311,-2.8174,0.0,0.0,0.0,0.0,0.0,0.0,0.0,0.0,0.0,0.0,0.0,0.0,0.0,0.0,0.0,0.0,0.0,0.0,0.0,0.0,0.0,0.0,0.0,0.0,0.0,0.0,0.0,0.0,0.0,0.0,0.0,0.0,0.0,0.0,0.0,0.0,0.0,0.0,0.0,0.0,0.0,0.0,0.0,0.0,0.0,0.0,0.0,0.0,0.0,0.0,0.0,0.0,0.0,0.0,0.0,0.0,0.0,0.0,0.0,0.0,0.0,0.0,0.0,0.0,0.0,0.0,0.0,0.0,0.0,0.0,0.0,0.0,0.0,0.0,0.0,0.0,0.0,0.0,0.0,0.0,0.0,0.0,0.0,0.0,0.0,0.0,0.0,0.0,0.0,0.0,0.0,0.0,0.0,0.0,0.0,0.0,0.0,0.0,0.0,0.0,0.0,0.0,-4.5533,-4.7849,-4.9253,-4.95,-4.9182,-4.8288,-4.6094,-4.0722,-3.1322,-2.7747,0.0,0.0,0.0,0.0,0.0,0.0,0.0,0.0,0.0,0.0,0.0,0.0,0.0,0.0,0.0,0.0,0.0,0.0,0.0,0.0,0.0,0.0,0.0,0.0,0.0,0.0,0.0,0.0,0.0,0.0,0.0,0.0,0.0,0.0,0.0,0.0,0.0,0.0,0.0,0.0,0.0,0.0,0.0,0.0,0.0,0.0,0.0,0.0,0.0,0.0,0.0,0.0,0.0,0.0,0.0,0.0,0.0,0.0,0.0,0.0,0.0,0.0,0.0,0.0,0.0,0.0,0.0,0.0,0.0,0.0,0.0,0.0,0.0,0.0,0.0,0.0,0.0,0.0,0.0,0.0,0.0,0.0,0.0,0.0,0.0,0.0,0.0,0.0,0.0,0.0,0.0,0.0,0.0,0.0,0.0,0.0,0.0,0.0,0.0,0.0,0.0,0.0,-4.0385,-4.6072,-4.907,-4.9346,-4.9001,-4.8288,-4.6009,-4.0908,-3.2136,-2.4497,0.0,0.0,0.0,0.0,0.0,0.0,0.0,0.0,0.0,0.0,0.0,0.0,0.0,0.0,0.0,0.0,0.0,0.0,0.0,0.0,0.0,0.0,0.0,0.0,0.0,0.0,0.0,0.0,0.0,0.0,0.0,0.0,0.0,0.0,0.0,0.0,0.0,0.0,0.0,0.0,0.0,0.0,0.0,0.0,0.0,0.0,0.0,0.0,0.0,0.0,0.0,0.0,0.0,0.0,0.0,0.0,0.0,0.0,0.0,0.0,0.0,0.0,0.0,0.0,0.0,0.0,0.0,0.0,0.0,0.0,0.0,0.0,0.0,0.0,0.0,0.0,0.0,0.0,0.0,0.0,0.0,0.0,0.0,0.0,0.0,0.0,0.0,0.0,0.0,0.0,0.0,0.0,0.0,0.0,0.0,0.0,0.0,0.0,0.0,0.0,0.0,0.0,0.0,-4.442,-4.852,-4.8988,-4.8735,-4.8206,-4.5669,-4.0642,-3.2483,0.0,0.0,0.0,0.0,0.0,0.0,0.0,0.0,0.0,0.0,0.0,0.0,0.0,0.0,0.0,0.0,0.0,0.0,0.0,0.0,0.0,0.0,0.0,0.0,0.0,0.0,0.0,0.0,0.0,0.0,0.0,0.0,0.0,0.0,0.0,0.0,0.0,0.0,0.0,0.0,0.0,0.0,0.0,0.0,0.0,0.0,0.0,0.0,0.0,0.0,0.0,0.0,0.0,0.0,0.0,0.0,0.0,0.0,0.0,0.0,0.0,0.0,0.0,0.0,0.0,0.0,0.0,0.0,0.0,0.0,0.0,0.0,0.0,0.0,0.0,0.0,0.0,0.0,0.0,0.0,0.0,0.0,0.0,0.0,0.0,0.0,0.0,0.0,0.0,0.0,0.0,0.0,0.0,0.0,0.0,0.0,0.0,0.0,0.0,0.0,0.0,0.0,0.0,0.0,-4.3532,-4.6727,-4.8217,-4.868,-4.793,-4.5564,-3.9269,-2.7886,0.0,0.0,0.0,0.0,0.0,0.0,0.0,0.0,0.0,0.0,0.0,0.0,0.0,0.0]}],[{"header":{"parameterUnit":"kt","parameterCategory":2,"dx":1,"dy":1,"la1":29.285339999999998,"la2":30.599998999999997,"lo1":-89.70041500000002,"lo2":-87.6738589999976,"nx":112,"ny":82,"refTime":"2022-09-25T12:00:00:Z","depth":0,"parameterNumber":2,"parameterNumberName":"V-component_of_WINDS"},"data":[4.0011,4.074,4.115,3.8217,3.9356,4.0438,3.7435,3.8354,3.9588,3.8664,3.8351,3.8094,3.754,3.5914,3.4392,3.3807,3.3691,3.4024,0.0,3.6104,3.6476,3.5728,3.6667,3.7481,3.7658,3.8595,4.0346,4.2934,4.3304,4.4119,4.5777,4.5864,4.5864,4.5864,4.5108,4.4701,4.4701,4.348,4.284,4.284,4.2374,4.2171,4.2142,4.1327,4.0949,4.0891,4.0019,3.9641,3.9641,3.9641,3.9641,3.9612,3.9146,3.8972,3.8914,3.8448,3.8274,3.8274,3.8274,3.8274,3.8274,3.8274,3.8274,3.8274,3.8274,3.8274,3.8274,3.8274,3.8274,3.8274,3.8274,3.8274,3.8274,3.8274,3.8523,3.8876,3.9355,4.0394,4.1356,4.1893,4.2714,4.3368,4.3368,4.3368,4.3368,4.3368,4.3368,4.3368,4.3368,4.3808,4.4115,4.4115,4.4363,4.4461,4.4461,4.4166,4.3875,4.3612,4.3823,4.3978,4.3978,4.42,4.4611,4.5155,4.5592,4.5851,4.6054,4.6491,4.6605,4.6335,4.6335,4.6254,3.892,3.9856,4.0659,3.7551,3.8781,3.9975,3.6963,3.7934,3.9008,3.7587,3.8055,3.8326,3.7017,3.5848,3.4863,3.4262,3.3791,3.405,0.0,3.6327,3.6871,3.7262,3.8398,3.9105,3.8845,3.9844,4.1202,4.2962,4.2929,4.3509,4.5166,4.4847,4.4614,4.4614,4.3858,4.3421,4.3421,4.2171,4.1531,4.1531,4.1066,4.0862,4.0833,3.9961,3.9582,3.9553,3.8652,3.8274,3.8274,3.8274,3.8274,3.8274,3.8274,3.8274,3.8274,3.8274,3.8274,3.8274,3.8274,3.8274,3.8274,3.8274,3.8274,3.8274,3.8274,3.8274,3.8274,3.8274,3.8274,3.8274,3.8274,3.8274,3.8274,3.8274,3.8274,3.8454,3.8944,3.9781,4.0615,4.1416,4.2306,4.2971,4.3313,4.3368,4.3368,4.3368,4.3368,4.3368,4.3368,4.3808,4.4115,4.4115,4.4314,4.4461,4.4461,4.4166,4.3823,4.3612,4.3645,4.3645,4.3645,4.3645,4.386,4.4461,4.489,4.5166,4.5426,4.5851,4.6054,4.6054,4.6491,4.6605,3.9742,3.9512,3.9975,3.7444,3.8378,3.9521,3.8072,3.9286,4.0118,3.7828,3.8454,3.8796,3.7005,3.5689,3.4843,3.5105,3.4154,0.0,0.0,3.678,3.7303,3.8361,3.9597,4.0833,4.219,4.1066,4.1432,4.3967,4.1706,4.1357,4.3967,4.284,4.2171,4.2171,4.2142,4.2113,4.2113,4.0833,4.0193,4.0193,3.8884,3.8274,3.8274,3.8274,3.8274,3.8274,3.8274,3.8274,3.8274,3.8274,3.8274,3.8274,3.8274,3.8274,3.8274,3.8274,3.8274,3.8274,3.8274,3.8274,3.8274,3.8274,3.8274,3.8274,3.8274,3.8274,3.8274,3.8274,3.8274,3.8274,3.8274,3.8274,3.8274,3.8274,3.8274,3.8274,3.8274,3.8944,3.975,4.0615,4.1477,4.2306,4.317,4.3368,4.3368,4.3368,4.3368,4.3368,4.3368,4.3789,4.4115,4.4115,4.4654,4.5029,4.5029,4.5029,4.4749,4.4165,4.4115,4.4115,4.4115,4.4115,4.4412,4.5029,4.5075,4.4749,4.4165,4.4165,4.4165,4.4215,4.547,4.6411,3.7357,3.8522,4.012,3.8657,3.9869,4.0909,3.8856,3.9131,3.9463,3.8259,3.7595,0.0,0.0,0.0,3.4778,3.4898,0.0,3.6174,3.6661,3.8368,4.0467,4.291,4.2853,4.3127,4.4441,4.3396,4.3306,4.4979,4.2101,4.0978,4.2607,4.2374,4.2171,4.2171,4.1269,4.0775,4.0775,3.9466,3.8826,3.8797,3.8448,3.8274,3.8274,3.8274,3.8274,3.8274,3.8274,3.8274,3.8274,3.8274,3.8274,3.8274,3.8274,3.8274,3.8274,3.8274,3.8274,3.8274,3.8274,3.8274,3.8274,3.8274,3.8274,3.8274,3.8274,3.8274,3.8274,3.8274,3.8274,3.8274,3.8274,3.8274,3.8274,3.8274,3.8274,3.8274,3.8274,3.8944,3.975,4.0615,4.1477,4.2306,4.317,4.3368,4.3368,4.3368,4.3368,4.3368,4.3368,4.3465,4.3539,4.3539,4.3751,4.3856,4.3856,4.3856,4.3751,4.3572,4.3539,4.3539,4.3539,4.3539,4.3841,4.4363,4.4412,4.4558,4.4843,4.4843,4.5075,4.5514,4.5426,4.547,3.7429,3.8767,4.0818,4.0016,4.0939,4.1584,3.996,3.9555,3.9102,3.7752,0.0,0.0,0.0,0.0,0.0,0.0,3.8157,3.8858,3.9279,4.1145,4.2722,4.3224,4.3715,4.4059,4.4344,4.3287,4.3192,4.4473,4.1395,3.999,4.1298,4.0833,4.0542,4.0542,3.9815,3.9437,3.9437,3.8652,3.8274,3.8274,3.8274,3.8274,3.8274,3.8274,3.8274,3.8274,3.8274,3.8274,3.8274,3.8274,3.8274,3.8274,3.8274,3.8274,3.8274,3.8274,3.8274,3.8274,3.8274,3.8274,3.8274,3.8274,3.8274,3.8274,3.8274,3.8274,3.8274,3.8274,3.8274,3.8274,3.8274,3.8274,3.8274,3.8274,3.8274,3.8274,3.8274,3.8632,3.9252,4.0075,4.0896,4.1747,4.2625,4.277,4.2882,4.3313,4.3368,4.3368,4.3368,4.3368,4.3368,4.3368,4.3368,4.3368,4.3368,4.3368,4.3368,4.3368,4.3368,4.3368,4.3368,4.3368,4.3465,4.3789,4.3808,4.3963,4.4366,4.4366,4.4674,4.5246,4.5155,4.5246,3.8842,3.961,4.1606,4.1484,4.174,4.1775,4.1112,0.0,3.9151,3.7471,0.0,3.6976,3.7927,0.0,0.0,4.015,4.0927,4.1551,4.2549,4.4245,4.444,4.1864,4.3512,4.4472,4.3394,4.2509,4.2319,4.3192,4.0298,3.891,3.999,3.8914,3.8274,3.8274,3.8274,3.8274,3.8274,3.8274,3.8274,3.8274,3.8274,3.8274,3.8274,3.8274,3.8274,3.8274,3.8274,3.8274,3.8274,3.8274,3.8274,3.8274,3.8274,3.8274,3.8274,3.8274,3.8274,3.8274,3.8274,3.8274,3.8274,3.8274,3.8175,3.8104,3.8104,3.8104,3.8104,3.8104,3.8175,3.8274,3.8274,3.8274,3.8274,3.8274,3.8274,3.8274,3.8274,3.8274,3.8523,3.9288,4.0075,4.0865,4.1596,4.1834,4.2217,4.3082,4.3313,4.3368,4.3368,4.3368,4.3368,4.3368,4.3368,4.3368,4.3368,4.3368,4.3368,4.3368,4.3368,4.3368,4.3368,4.3368,4.3368,4.3368,4.3368,4.3368,4.3368,4.3368,4.3592,4.4048,4.4701,4.5291,3.9056,3.9653,4.1198,4.2611,4.243,4.1952,0.0,0.0,0.0,4.1538,3.9901,3.8791,4.0119,3.925,3.8505,3.9152,4.102,4.214,4.13,4.4636,4.689,4.6369,4.6012,4.6012,4.6667,4.5788,4.46,4.3127,4.063,3.9063,3.8693,3.839,3.8274,3.8274,3.8274,3.8274,3.8274,3.8274,3.8274,3.8274,3.8274,3.8274,3.8274,3.8274,3.8274,3.8274,3.8274,3.8274,3.8274,3.8274,3.8274,3.8274,3.8274,3.8274,3.8274,3.8274,3.8274,3.8274,3.8274,3.8274,3.8274,3.8274,3.7721,3.7017,3.7017,3.7017,3.7017,3.7017,3.765,3.8274,3.8274,3.8274,3.8274,3.8274,3.8274,3.8274,3.8274,3.8274,3.8523,3.9288,3.9619,3.975,3.9915,4.1081,4.2042,4.2217,4.2882,4.3368,4.3368,4.3368,4.3368,4.3368,4.3368,4.3368,4.3368,4.3368,4.3368,4.3368,4.3368,4.3368,4.3368,4.3368,4.3368,4.3368,4.3368,4.3368,4.3368,4.3368,4.3422,4.3518,4.4082,4.4133,3.8122,3.9011,4.068,4.2292,4.2681,0.0,0.0,4.1656,4.1385,4.141,4.0302,3.9656,4.081,4.0416,4.0223,4.0978,4.2811,4.3732,4.2625,4.4194,4.5472,4.5472,4.5001,4.4909,4.5415,4.5001,4.4109,4.2613,4.0636,3.9288,3.8876,3.8523,3.8274,3.8274,3.8274,3.8274,3.8274,3.8274,3.8274,3.8274,3.8274,3.8274,3.8274,3.8274,3.8274,3.8274,3.8274,3.8274,3.8274,3.8274,3.8274,3.8274,3.8274,3.8274,3.8274,3.8274,3.8274,3.8274,3.8274,3.8274,3.8274,3.8274,3.7963,3.7478,3.7478,3.7478,3.7407,3.6871,3.7118,3.7478,3.7478,3.7863,3.8274,3.8274,3.8274,3.8274,3.8274,3.8274,3.8384,3.8808,3.8876,3.8982,3.9421,4.0173,4.1019,4.1834,4.2364,4.2826,4.3313,4.3368,4.3368,4.3368,4.3368,4.3368,4.3368,4.3368,4.3368,4.3368,4.3368,4.3368,4.3368,4.3368,4.3368,4.3368,4.3368,4.3368,4.3368,4.3368,4.3368,4.3368,4.3911,4.3998,3.7027,3.848,4.0488,4.1902,4.2906,0.0,4.2584,4.2495,4.2338,4.147,4.1046,4.1159,4.2073,4.2006,4.2223,4.3499,4.4531,4.496,4.4384,4.3841,4.3518,4.3518,4.3389,4.3368,4.3368,4.3368,4.3027,4.2306,4.0803,3.9785,3.9488,3.8701,3.8274,3.8274,3.8274,3.8274,3.8274,3.8274,3.8274,3.8274,3.8274,3.8274,3.8274,3.8274,3.8274,3.8274,3.8274,3.8274,3.8274,3.8274,3.8274,3.8274,3.8274,3.8175,3.7963,3.7963,3.7863,3.7721,3.7963,3.7963,3.7963,3.7963,3.7963,3.7863,3.7478,3.7407,3.719,3.6327,3.6253,3.6402,3.6402,3.7017,3.7721,3.7963,3.7963,3.8034,3.8274,3.8274,3.8274,3.8274,3.8274,3.8523,3.9117,3.9355,3.9915,4.1264,4.1656,4.2042,4.2971,4.3082,4.317,4.3313,4.3368,4.3368,4.3368,4.3368,4.3368,4.3368,4.3368,4.3368,4.3368,4.3368,4.3368,4.3368,4.3368,4.3368,4.3368,4.3368,4.3368,4.3368,4.3789,4.3947,3.6628,3.8771,4.1138,4.2794,4.3632,0.0,4.3913,4.4329,4.5056,4.6169,4.5398,4.4933,4.6301,4.5494,4.4684,4.489,4.4582,4.4468,4.4924,4.4461,4.4048,4.4048,4.3645,4.3368,4.3368,4.3368,4.3313,4.3225,4.2306,4.1081,3.9554,3.8701,3.8274,3.8274,3.8274,3.8274,3.8274,3.8274,3.8274,3.8274,3.8274,3.8274,3.8274,3.8274,3.8274,3.8274,3.8274,3.8274,3.8274,3.8274,3.8274,3.8274,3.8274,3.7721,3.6944,3.6944,3.6327,3.5652,3.6577,3.6944,3.6944,3.6944,3.6944,3.6577,3.4731,3.4183,3.4104,3.4024,3.4653,3.5348,3.5348,3.5424,3.5804,3.6724,3.6944,3.719,3.8104,3.8274,3.8274,3.8274,3.8274,3.8315,3.8384,3.8982,3.9523,3.975,4.0394,4.1234,4.2042,4.2159,4.2421,4.3258,4.3368,4.3368,4.3368,4.3368,4.3368,4.3368,4.3368,4.3368,4.3368,4.3368,4.3368,4.3368,4.3368,4.3368,4.3368,4.3368,4.3368,4.3368,4.3389,4.3444,3.5958,3.8244,4.0814,4.2667,0.0,0.0,4.4606,4.5063,4.5645,4.6401,4.6286,4.6096,4.648,4.6054,4.5514,4.5121,4.5201,4.5212,4.5121,4.4558,4.3998,4.3718,4.3465,4.3368,4.3368,4.3368,4.3368,4.3368,4.2971,4.2074,4.0331,3.9042,3.8274,3.8274,3.8274,3.8274,3.8274,3.8274,3.8274,3.8274,3.8274,3.8274,3.8274,3.8274,3.8274,3.8274,3.8274,3.8274,3.8175,3.7017,3.6476,3.6476,3.6476,3.6179,3.5804,3.5804,3.5577,3.5348,3.6327,3.6327,3.5954,3.6577,3.6327,3.5652,3.4809,3.4575,3.4419,3.3812,3.3945,3.4419,3.5041,3.5652,3.6327,3.7407,3.765,3.7793,3.8175,3.8274,3.8274,3.8274,3.7793,3.7407,3.7407,3.7635,3.8029,3.8554,3.9457,4.0331,4.1173,4.1716,4.1837,4.1403,4.1785,4.2085,4.2085,4.2085,4.2447,4.3302,4.3368,4.3368,4.3368,4.3368,4.3368,4.3368,4.3368,4.3368,4.3368,4.1573,4.0719,4.0752,4.1691,4.2546,3.676,0.0,0.0,0.0,0.0,0.0,4.5557,4.6062,4.6445,4.6623,4.6809,4.681,4.6541,4.6416,4.6219,4.5866,4.6102,4.6137,4.5723,4.5075,4.4446,4.3875,4.3698,4.3518,4.3368,4.3368,4.3368,4.3368,4.3368,4.2714,4.1266,3.9976,3.908,3.8632,3.8384,3.8274,3.8274,3.8274,3.8274,3.8274,3.8034,3.8034,3.8274,3.7721,3.7579,3.7863,3.7579,3.7407,3.7335,3.5804,3.5195,3.5195,3.5195,3.5041,3.4731,3.4731,3.4575,3.4497,3.5501,3.5424,3.4964,3.5954,3.6029,3.5577,3.5271,3.5195,3.5041,3.4261,3.3652,3.3491,3.4809,3.5577,3.6104,3.6798,3.7262,3.7478,3.7793,3.7604,3.7258,3.6982,3.6311,3.5859,3.61,3.5717,3.576,3.6613,3.7322,3.805,3.8944,3.9742,3.9985,3.9362,3.9869,4.0386,4.054,4.054,4.1,4.2032,4.2065,4.2065,4.2065,4.2065,4.2065,4.2065,4.2065,4.2065,4.2065,3.9931,3.888,3.888,4.0047,4.1132,0.0,0.0,0.0,4.5167,4.6102,4.6666,4.7084,4.7675,4.8122,4.8159,4.7863,4.7578,4.7581,4.7241,4.7133,4.7515,4.7241,4.6984,4.6984,4.6451,4.5766,4.5121,4.451,4.3878,4.3422,4.3368,4.3368,4.3368,4.3368,4.2971,4.2042,4.1893,4.1142,3.9488,3.8671,3.8274,3.8274,3.8274,3.8274,3.8274,3.7262,3.7335,3.8175,3.6179,3.5804,3.6724,3.5728,3.5271,3.5271,3.5195,3.5195,3.5195,3.5195,3.4575,3.3652,3.3652,3.3031,3.2341,3.333,3.3732,3.3891,3.4886,3.5879,3.6503,3.5501,3.5195,3.5195,3.5118,3.3732,3.2564,3.4653,3.4497,3.3732,3.3812,3.4575,3.5577,3.6577,3.5773,3.4597,3.3621,3.3368,3.3593,3.4361,3.3236,3.2499,3.3236,3.3434,3.3703,3.4477,3.5422,3.6455,3.7827,3.7952,3.8244,3.8896,3.8946,3.8946,3.9011,3.9011,3.9011,3.9011,3.9011,3.9011,3.9011,3.9011,3.9011,3.9011,3.8913,3.888,3.888,3.8913,3.8978,4.1451,4.3382,4.5088,4.6414,4.6878,4.7223,4.7742,4.8188,4.8435,4.827,4.8224,4.8188,4.8072,4.7894,4.7863,4.7984,4.7679,4.7274,4.6845,4.6385,4.5809,4.5166,4.451,4.4015,4.3878,4.3539,4.3368,4.3368,4.3368,4.2971,4.2042,4.1477,4.0647,3.9488,3.8701,3.8274,3.8274,3.8274,3.8274,3.8274,3.7963,3.7963,3.8274,3.7579,3.7089,3.6724,3.6327,3.5041,3.3112,3.3112,3.3112,3.3112,3.3112,3.2868,3.2564,3.2564,3.2341,3.2341,3.4024,3.3732,3.2868,3.4653,3.4964,3.4497,3.3411,3.3652,3.4024,3.333,3.2646,3.2258,3.2949,3.3866,3.4809,3.5577,3.5954,3.5958,3.4866,3.461,3.4253,3.3434,3.2658,3.209,3.1885,3.14,3.112,3.14,3.2456,3.3321,3.3589,3.4845,3.5738,3.57,3.6183,3.6739,3.7402,3.7449,3.7877,3.8814,3.888,3.888,3.888,3.888,3.888,3.888,3.888,3.7928,3.6023,3.6023,3.6023,3.6023,3.7022,3.7449,4.3632,4.5153,4.6558,4.756,4.7837,4.7992,4.8519,4.8784,4.8884,4.862,4.864,4.8611,4.8383,4.8331,4.8331,4.8331,4.7918,4.7443,4.7061,4.6656,4.6137,4.5514,4.5075,4.4654,4.4165,4.3808,4.3539,4.3368,4.3368,4.3115,4.2511,4.1688,4.0834,3.9946,3.9147,3.8563,3.8274,3.8274,3.8274,3.8274,3.7963,3.7963,3.8274,3.7478,3.6798,3.6179,3.6179,3.4653,3.2115,3.2115,3.2115,3.2115,3.2115,3.2115,3.2115,3.2115,3.2115,3.2258,3.3652,3.3193,3.2341,3.4104,3.4419,3.4024,3.3411,3.3652,3.4024,3.333,3.2373,3.1775,3.2746,3.2987,3.326,3.4593,3.4665,3.383,3.1813,3.1872,3.208,3.1182,3.0708,3.031,2.9772,2.9431,2.925,2.925,3.031,3.1035,3.1035,3.2464,3.3482,3.3495,3.4218,3.4998,3.5924,3.597,3.6364,3.7271,3.7336,3.7336,3.7336,3.7336,3.7336,3.7336,3.7336,3.6417,3.4622,3.4622,3.4622,3.4611,3.5542,3.597,4.6166,4.7162,4.772,4.8604,4.8926,4.9046,4.9295,4.9477,4.95,4.9238,4.8998,4.8792,4.8633,4.8625,4.8663,4.864,4.8114,4.7643,4.7679,4.7311,4.6834,4.6213,4.6096,4.5558,4.4314,4.4165,4.3878,4.3389,4.3368,4.3368,4.3368,4.2479,4.1596,4.0803,3.9946,3.905,3.8315,3.8274,3.8274,3.8274,3.7262,3.7335,3.8274,3.6253,3.5267,3.5083,3.5007,3.3843,3.1945,3.1945,3.1945,3.1945,3.1945,3.1945,3.1945,3.1945,3.1945,3.1945,3.2028,3.1945,3.211,3.3097,3.4157,3.493,3.4854,3.493,3.493,3.4854,3.2781,3.1165,3.3848,3.1892,2.9613,3.1331,3.1006,2.9748,2.8029,2.8169,2.8348,2.7356,2.7754,2.8249,2.8126,2.7504,2.7021,2.6957,2.6957,2.7021,2.7021,2.8372,2.9857,3.1287,3.2189,3.3177,3.4413,3.4578,3.4622,3.4622,3.4622,3.4622,3.4622,3.4622,3.4622,3.4622,3.4622,3.4622,3.4622,3.4622,3.4622,3.4622,3.4622,3.4622,4.751,4.8411,4.8689,4.9239,4.9302,4.9286,4.9347,4.9375,4.9413,4.9311,4.9273,4.9236,4.9173,4.9194,4.9126,4.9051,4.8654,4.8268,4.8101,4.7743,4.7311,4.6872,4.6335,4.5766,4.4937,4.4412,4.3878,4.3389,4.3368,4.3368,4.3368,4.2479,4.1596,4.0803,3.9946,3.905,3.8315,3.8274,3.8274,3.8274,3.8034,3.8034,3.8274,3.7721,3.6029,3.3433,3.2874,3.1872,3.0565,3.0007,2.9724,2.9724,2.9724,2.9724,2.9724,2.9724,2.9724,2.9854,3.0641,3.0439,2.9955,3.0941,3.1507,3.158,3.0791,3.1064,3.158,3.0791,3.0364,3.0385,3.1138,3.157,3.1953,3.2456,3.1885,3.1181,3.0682,3.0369,2.9901,2.8911,2.8916,2.8676,2.7504,2.7149,2.6764,2.6096,2.6595,2.7021,2.7021,2.8372,2.9712,3.0529,3.185,3.2951,3.3807,3.4325,3.4622,3.4622,3.4622,3.4622,3.4622,3.4622,3.4622,3.4622,3.4622,3.4622,3.4622,3.4622,3.4622,3.4622,3.4622,3.4622,4.8258,4.9069,4.9357,4.9606,4.9652,4.959,4.9536,4.9602,4.9611,4.9489,4.9523,4.9564,4.9564,4.9453,4.9341,4.9269,4.8879,4.8497,4.827,4.7863,4.7484,4.7095,4.6722,4.6096,4.5201,4.4749,4.4233,4.3389,4.3368,4.3368,4.3368,4.2479,4.1596,4.0803,3.9946,3.905,3.8315,3.7721,3.743,3.743,3.6849,3.6587,3.6587,3.6587,3.5013,3.2294,3.1885,3.0935,2.9613,2.9119,2.8994,2.8994,2.8994,2.8994,2.8994,2.8994,2.8994,2.9044,2.9613,2.9466,2.9044,2.9687,3.0173,3.0292,2.9268,2.9687,3.0292,2.9268,2.919,2.9432,2.9432,2.985,3.041,3.0734,3.0475,3.0213,3.0605,3.0126,2.9477,2.8916,2.9095,2.8856,2.7251,2.7314,2.7085,2.5855,2.6096,2.64,2.64,2.7817,2.9099,2.9714,3.1506,3.2933,3.3574,3.4235,3.4622,3.4622,3.4622,3.4622,3.4622,3.4622,3.4622,3.4622,3.4622,3.4622,3.4622,3.4622,3.4622,3.4622,3.4622,3.4622,4.8641,4.9327,4.9739,4.9777,4.9875,4.9883,4.9777,4.9835,4.9877,4.9652,4.9693,4.9772,4.9768,4.9584,4.9389,4.9361,4.8979,4.8569,4.8288,4.7954,4.7548,4.7133,4.7058,4.653,4.5246,4.5075,4.4626,4.3444,4.3368,4.3368,4.3368,4.2317,4.137,4.0616,3.9519,3.861,3.775,3.6674,3.6092,3.6092,3.4987,3.4401,3.4372,3.4023,3.2998,3.1358,3.129,3.0254,2.8701,2.8553,2.8479,2.8479,2.8479,2.8479,2.8479,2.8479,2.8479,2.8479,2.8479,2.8479,2.8479,2.8479,2.9163,2.9713,2.875,2.9163,2.9642,2.875,2.8416,2.8394,2.8461,2.7938,2.7504,2.8372,2.8433,2.8555,2.936,2.8976,2.8494,2.8494,2.9095,2.9095,2.7754,2.7879,2.7629,2.5897,2.5655,2.5655,2.5655,2.7021,2.8257,2.8957,3.1025,3.2624,3.3433,3.4067,3.4534,3.4622,3.4622,3.4622,3.4622,3.4622,3.4622,3.4622,3.4622,3.4622,3.4622,3.4622,3.4622,3.4622,3.4622,3.4622,4.9266,4.9498,4.9658,4.9886,4.9875,4.9777,4.9768,4.9772,4.9772,4.9754,4.9829,4.9881,4.9772,4.9652,4.9485,4.9389,4.9218,4.897,4.8569,4.8278,4.7954,4.7581,4.7241,4.653,4.5246,4.5075,4.4626,4.3444,4.3368,4.3368,4.3368,4.1435,3.9999,3.9274,3.7415,3.5957,3.5104,3.4836,3.472,3.472,3.4488,3.4401,3.4314,3.2283,3.0802,2.9733,2.9056,2.8234,2.7284,2.6531,2.6215,2.6215,2.6215,2.6215,2.6215,2.6215,2.6215,2.6215,2.6215,2.6215,2.6215,2.6215,2.6351,2.6463,2.6259,2.6327,2.6463,2.6259,2.676,2.7433,2.8108,2.8568,2.9182,3.0086,2.9711,2.9419,3.0286,3.0343,3.0286,3.0286,3.0399,3.0399,3.0143,2.9036,2.7629,2.5897,2.5655,2.5655,2.5655,2.6595,2.7504,2.8257,2.9771,3.1317,3.2704,3.3433,3.399,3.4578,3.4622,3.4622,3.4622,3.4622,3.4622,3.4622,3.4622,3.4622,3.4622,3.4622,3.4622,3.4622,3.4622,3.4622,4.9826,4.9659,4.9723,4.9837,4.9807,4.9773,4.9841,4.9877,4.9807,4.9689,4.9759,4.9841,4.9772,4.9705,4.9644,4.9474,4.937,4.911,4.8663,4.8357,4.8072,4.7679,4.7277,4.653,4.5246,4.5075,4.4286,4.2356,4.225,4.1888,4.1047,3.9707,3.8591,3.775,3.6498,3.5362,3.4372,3.3733,3.3385,3.3385,3.2777,3.2457,3.2428,3.1263,3.0229,2.9301,2.8494,2.7754,2.6957,2.603,2.5655,2.5655,2.5655,2.5655,2.5655,2.5655,2.5655,2.5655,2.5655,2.5655,2.5655,2.5655,2.5655,2.5655,2.5655,2.5655,2.5655,2.5655,2.6334,2.7021,2.6893,2.7817,2.8856,2.9301,2.9739,3.0229,3.0598,3.071,3.071,3.071,3.071,3.071,3.071,2.9653,2.8249,2.6595,2.5964,2.5655,2.5655,2.6465,2.7314,2.8126,2.9484,3.0995,3.2504,3.3242,3.3898,3.4578,3.4622,3.4622,3.4622,3.3175,3.2386,3.2386,3.2386,3.2386,3.2386,3.2386,3.2386,3.2386,3.2386,3.2386,5.0097,4.9771,4.9763,4.971,4.9754,4.9772,4.9875,4.9797,4.9697,4.9582,4.9659,4.971,4.9763,4.9735,4.9683,4.9573,4.9465,4.921,4.8774,4.8409,4.8101,4.777,4.7311,4.653,4.5246,4.4845,4.3687,4.1385,4.0869,4.0095,3.8764,3.7735,3.6914,3.6151,3.5199,3.4347,3.362,3.2572,3.2078,3.2078,3.1148,3.071,3.071,3.071,3.0343,2.9595,2.8796,2.8003,2.7213,2.653,2.6228,2.6162,2.603,2.5964,2.5897,2.5722,2.5655,2.5655,2.5655,2.5655,2.5655,2.5655,2.5655,2.5655,2.5655,2.5655,2.5655,2.5655,2.6162,2.6595,2.6096,2.7085,2.8188,2.8188,2.9477,3.071,3.071,3.071,3.071,3.071,3.0477,3.0302,3.0302,2.9344,2.8087,2.6709,2.5633,2.5046,2.529,2.5919,2.6865,2.8038,2.922,3.0441,3.1902,3.2608,3.3136,3.3487,3.3583,3.3701,3.3701,3.1695,3.0545,3.0545,3.0504,3.0466,3.0466,3.0466,3.0466,3.0466,3.0508,3.0545,4.9791,4.9772,4.9748,4.959,4.9673,4.9748,4.9644,4.9344,4.9163,4.9498,4.9555,4.9636,4.9754,4.9651,4.9571,4.9552,4.9465,4.9311,4.9129,4.8571,4.8187,4.8159,4.7481,4.653,4.5246,4.3915,4.2597,4.1319,3.9882,3.8779,3.8024,3.6155,3.4809,3.4101,3.2182,3.1116,3.106,3.0943,3.0885,3.0885,3.0768,3.071,3.071,3.071,3.0654,3.0541,2.9653,2.8796,2.8065,2.8003,2.7941,2.7879,2.7213,2.6893,2.6764,2.5964,2.5655,2.5655,2.5655,2.5655,2.5655,2.5655,2.5655,2.5655,2.5655,2.5655,2.5655,2.5655,2.5722,2.5964,2.67,2.7566,2.8188,2.8188,2.9477,3.071,3.071,3.071,3.071,3.071,2.9778,2.8909,2.8909,2.7297,2.5773,2.502,2.3702,2.3159,2.4135,2.432,2.5358,2.7896,2.8284,2.8829,2.9919,3.0487,3.058,3.0063,3.0474,3.0709,3.0709,3.115,3.1394,3.1394,3.1051,3.0873,3.0873,3.0873,3.0873,3.0873,3.119,3.1394,4.947,4.9457,4.9612,4.9598,4.9591,4.9552,4.9262,4.8963,4.8792,4.8923,4.9815,5.0326,4.9733,4.9683,4.9659,4.9598,4.9544,4.9415,4.9204,4.8596,4.8215,4.8215,4.7515,4.6176,4.4048,4.3305,4.1722,3.8778,3.7943,3.7092,3.596,3.4382,3.3361,3.3101,3.1525,3.071,3.071,3.071,3.071,3.071,3.071,3.071,3.071,3.0143,2.9913,2.9855,2.9477,2.8916,2.8188,2.8188,2.8188,2.8126,2.7817,2.7441,2.6957,2.6595,2.6162,2.5655,2.5655,2.5655,2.5655,2.5655,2.5655,2.5655,2.5655,2.5655,2.5655,2.5655,2.5655,2.5722,2.6096,2.7213,2.7839,2.6416,2.7262,2.8356,2.8356,2.8356,2.8356,2.8356,2.7949,2.76,2.76,2.6914,2.6087,2.5389,2.4806,2.4255,2.3723,2.335,2.3881,2.5869,2.6094,2.6874,2.8871,2.9208,2.9567,2.9965,3.0433,2.9859,2.806,2.8506,2.878,2.878,2.8413,2.819,2.819,2.819,2.8125,2.7959,2.854,2.866,4.8818,4.9101,4.9457,4.9545,4.9574,4.9489,4.9239,4.8885,4.8509,4.8347,4.9395,5.0195,4.9674,4.9652,4.9683,4.9576,4.9555,4.9489,4.9222,4.8596,4.8215,4.8215,4.7117,4.5433,4.315,4.2167,4.0291,3.6983,3.6332,3.5551,3.4357,3.3274,3.2586,3.2383,3.101,3.0456,3.071,3.0456,3.0456,3.071,3.071,3.0456,2.9913,2.9301,2.8976,2.8976,2.8976,2.8544,2.7738,2.7891,2.7879,2.7727,2.7494,2.7082,2.6603,2.63,2.5937,2.5495,2.5495,2.5585,2.5655,2.5655,2.5655,2.5655,2.5655,2.5655,2.5606,2.5265,2.5168,2.5119,2.4803,2.5895,2.6797,2.5292,2.5934,2.6844,2.6844,2.6844,2.6844,2.6844,2.6524,2.6233,2.6233,2.5942,2.5444,2.466,2.4561,2.4134,2.2866,2.244,2.2904,2.4483,2.4859,2.563,2.7333,2.7743,2.8139,2.8551,2.9219,2.8692,2.6686,2.699,2.7235,2.7375,2.699,2.6758,2.6758,2.6758,2.6711,2.654,2.7107,2.7208,4.7832,4.8683,4.9227,4.9501,4.9574,4.9555,4.9546,4.9064,4.8423,4.7734,4.8169,4.8805,4.9436,4.9555,4.9564,4.9583,4.9555,4.9489,4.9222,4.8596,4.8215,4.8215,4.6142,4.4266,4.3046,4.0271,3.8041,3.6818,3.5411,3.4325,3.3668,3.3,3.2383,3.1739,3.0199,2.9797,3.071,2.9855,2.9855,3.071,3.071,2.9855,2.8188,2.8188,2.8188,2.8188,2.8188,2.7577,2.6673,2.7183,2.7192,2.6774,2.5962,2.5677,2.5573,2.4644,2.4635,2.5048,2.5048,2.5306,2.5655,2.5655,2.5655,2.5655,2.5655,2.5655,2.5436,2.4453,2.4135,2.3891,2.2818,2.3649,2.4886,2.5493,2.6239,2.6844,2.6844,2.6844,2.6844,2.6844,2.5768,2.4912,2.4912,2.3819,2.2735,2.2101,2.2013,2.1791,2.1254,2.1563,2.2501,2.451,2.5284,2.5449,2.4954,2.5864,2.5897,2.4637,2.5778,2.6618,2.7018,2.7366,2.7787,2.8162,2.7787,2.758,2.758,2.758,2.758,2.758,2.7989,2.8162,4.6013,4.7532,4.8659,4.9261,4.9525,4.9398,4.8788,4.8251,4.8477,5.0437,4.9481,4.8565,4.9413,4.9555,4.9564,4.9583,4.9555,4.9489,4.9222,4.8782,4.7966,4.6654,4.5668,4.3738,4.0258,3.9029,3.7598,3.5434,3.4852,3.4501,3.4325,3.3274,3.2535,3.2332,3.0396,2.9477,2.9797,2.8976,2.8676,2.8976,2.7433,2.6465,2.5886,2.5375,2.5115,2.5115,2.5115,2.4963,2.4679,2.5373,2.5875,2.6182,2.6389,2.6138,2.5597,2.5309,2.4913,2.457,2.457,2.4635,2.4714,2.4714,2.4714,2.4714,2.4714,2.4714,2.4637,2.4334,2.3912,2.3277,2.1957,2.2207,2.285,2.3084,2.3646,2.4168,2.4168,2.4168,2.4168,2.4168,2.3819,2.3528,2.3528,2.3209,2.2834,2.2664,2.2621,2.2406,2.1808,2.1839,2.1988,2.2228,2.2783,2.3402,2.4025,2.4699,2.5093,2.5047,2.5678,2.6348,2.7018,2.7366,2.7787,2.8197,2.7787,2.758,2.758,2.758,2.7478,2.7208,2.7894,2.807,4.3915,4.6089,4.7708,4.8705,4.8555,4.7843,4.6664,4.618,4.6716,4.9135,4.8533,4.7912,4.9069,4.9951,5.0523,5.0523,5.0489,5.0104,4.9089,4.812,4.6994,4.5667,4.4162,4.2057,3.9067,3.8074,3.6853,3.5041,3.4709,3.4622,3.4622,3.3369,3.2636,3.2636,3.0255,2.8874,2.8804,2.761,2.6735,2.6013,2.467,2.3991,2.3991,2.3485,2.3087,2.2833,2.2833,2.2413,2.1849,2.2584,2.3051,2.3346,2.4296,2.4642,2.4642,2.4642,2.4385,2.4078,2.4078,2.4189,2.4321,2.4321,2.4321,2.4321,2.4321,2.4321,2.4241,2.3817,2.3445,2.2919,2.2058,2.1896,2.2001,2.2291,2.2664,2.2947,2.2947,2.2947,2.2947,2.2947,2.2947,2.2947,2.2947,2.2947,2.2947,2.2947,2.2947,2.2791,2.2378,2.2117,2.1941,2.1835,2.1896,2.235,2.3332,2.3862,2.44,2.4947,2.52,2.5778,2.6792,2.6976,2.7383,2.7965,2.7894,2.7811,2.7811,2.7811,2.7714,2.7478,2.7965,2.8035,4.1401,4.4142,4.6207,4.7474,4.6461,4.4819,4.336,4.3063,4.3518,4.5131,4.6005,4.6976,4.8604,5.0568,5.1919,5.1899,5.1905,5.109,4.8908,4.7044,4.5713,4.5172,4.2165,3.9826,3.9179,3.7321,3.5977,3.5434,3.4932,3.4599,3.4457,3.3211,3.2499,3.2356,2.9487,2.7884,2.7597,2.5967,2.4202,2.2396,2.2281,2.2223,2.2223,2.2165,2.1731,2.1092,2.1032,2.0067,1.8559,1.9172,1.9227,1.9158,2.0364,2.1652,2.2905,2.2947,2.3263,2.3649,2.3649,2.3869,2.4189,2.4189,2.4189,2.4189,2.4189,2.4189,2.4029,2.3037,2.2769,2.2795,2.2865,2.2464,2.2204,2.2791,2.2947,2.2947,2.2947,2.2947,2.2947,2.2989,2.296,2.2947,2.2989,2.296,2.2947,2.2947,2.2989,2.2989,2.2947,2.2464,2.2335,2.2876,2.2378,2.2291,2.2876,2.3373,2.3893,2.44,2.4438,2.4995,2.6284,2.6241,2.665,2.7519,2.7942,2.8139,2.8162,2.8162,2.8162,2.8162,2.8162,2.8162,3.6597,3.9938,4.2721,4.341,4.099,3.8711,3.9816,4.015,4.1555,4.6261,4.6821,4.7224,4.9801,5.0143,5.0008,5.0005,5.082,5.0792,4.8885,4.8212,4.6784,4.3706,4.2873,4.1169,3.7806,3.7044,3.638,3.5434,3.5272,3.4558,3.3052,3.1809,3.0695,2.9576,2.7368,2.5998,2.5427,2.4327,2.2766,2.073,1.9778,1.9274,1.9274,1.8659,1.8254,1.8067,1.747,1.7286,1.7465,1.7018,1.7682,1.9084,1.9404,2.0624,2.2248,2.2749,2.2994,2.3124,2.3124,2.3165,2.3259,2.3259,2.3259,2.3259,2.3259,2.3259,2.3203,2.2962,2.2905,2.2907,2.292,2.2834,2.2749,2.2876,2.2947,2.2947,2.2947,2.2947,2.3043,2.3484,2.3209,2.3072,2.3454,2.3238,2.2947,2.2947,2.325,2.3373,2.2989,2.3167,2.3209,2.296,2.2791,2.2749,2.2918,2.3072,2.3332,2.3853,2.3893,2.4369,2.5347,2.5745,2.6278,2.7008,2.7484,2.7894,2.8162,2.8162,2.8162,2.8162,2.8162,2.8162,3.2209,3.5122,3.6709,3.3923,3.1685,3.04,3.129,3.5343,3.9673,4.2419,4.3884,4.5144,4.6694,4.8161,4.9181,4.9422,5.0187,5.0175,4.8408,4.7005,4.5169,4.247,4.1422,4.0127,3.8126,3.7419,3.6829,3.6127,3.5026,3.3935,3.2859,3.108,2.9637,2.8612,2.6864,2.5416,2.4353,2.3275,2.1869,2.0208,1.9479,1.9005,1.8675,1.8292,1.7929,1.7615,1.6827,1.6525,1.6621,1.5833,1.6374,1.7734,1.838,1.9453,2.0743,2.1735,2.2276,2.2507,2.2834,2.2947,2.2947,2.2947,2.2947,2.2947,2.2947,2.2947,2.2947,2.2947,2.2947,2.2989,2.3209,2.3291,2.3332,2.3585,2.3665,2.3665,2.3665,2.3665,2.3744,2.4049,2.3823,2.3665,2.3725,2.3695,2.3575,2.3332,2.3735,2.3941,2.3705,2.3695,2.3575,2.3332,2.3043,2.2947,2.2947,2.2947,2.3043,2.3361,2.3575,2.4134,2.5133,2.5377,2.5841,2.6627,2.712,2.7529,2.7918,2.7918,2.7657,2.7114,2.7114,2.6721,2.8104,2.9365,2.8769,2.276,2.1323,2.14,2.1551,2.8093,3.4228,3.4676,3.7664,4.0387,4.1153,4.4987,4.8179,4.8817,4.9288,4.9013,4.7425,4.499,4.2837,4.1505,3.9666,3.866,3.8962,3.8051,3.7227,3.668,3.472,3.3195,3.2571,3.0396,2.8816,2.8086,2.6639,2.5224,2.4006,2.2729,2.1618,2.0609,2.023,1.9724,1.923,1.9029,1.8624,1.8057,1.7138,1.6512,1.606,1.5166,1.5335,1.626,1.7495,1.838,1.9232,2.0541,2.1475,2.2045,2.2579,2.2834,2.2947,2.2947,2.2947,2.2947,2.2947,2.2947,2.2947,2.2947,2.2947,2.3043,2.3575,2.3725,2.3853,2.4363,2.432,2.4227,2.4482,2.432,2.4264,2.4556,2.455,2.4301,2.3736,2.3934,2.3954,2.3278,2.3596,2.3926,2.3853,2.3705,2.359,2.3542,2.3213,2.3085,2.3167,2.3001,2.2943,2.2862,2.3455,2.4242,2.5122,2.503,2.5317,2.6013,2.6241,2.6516,2.6903,2.6987,2.648,2.5533,2.5533,2.4837,2.4276,2.1762,1.8242,1.5287,1.3892,1.3947,1.6657,1.5785,1.6103,2.1931,2.6387,3.054,3.4863,4.0433,4.4689,4.5794,4.646,4.645,4.5311,4.4103,4.272,4.1114,4.0694,4.0048,3.8697,3.8216,3.7201,3.5434,3.4935,3.3191,2.9668,2.8651,2.7463,2.5859,2.4668,2.4217,2.441,2.3232,2.2534,2.2336,2.0243,1.9183,1.9034,1.7936,1.7404,1.7191,1.5868,1.5632,1.604,1.4599,1.4826,1.6205,1.6977,1.8017,1.9183,2.0039,2.1055,2.1957,2.2089,2.2464,2.2947,2.2947,2.2947,2.2947,2.2947,2.2947,2.2947,2.2947,2.2947,2.3043,2.3575,2.3725,2.3853,2.4363,2.3568,2.3036,2.4227,2.3537,2.3173,2.4829,2.4802,2.4212,2.3362,2.2934,2.2254,2.0948,2.1182,2.1371,2.0958,2.225,2.3071,2.2621,2.3187,2.3774,2.4211,2.3424,2.2778,2.2468,2.367,2.4438,2.4587,2.4593,2.4454,2.4155,2.352,2.3411,2.381,2.4031,2.4119,2.4068,2.4068,2.3973,1.965,1.6328,1.2484,0.9578,0.6843,0.4813,0.4461,0.1395,0.0395,0.7054,1.4168,2.1604,2.9514,3.5918,4.0577,4.2112,4.4561,4.594,4.5053,4.4017,4.2599,4.0536,3.9926,3.9488,3.906,3.7943,3.6714,3.5402,3.3533,3.1616,2.9734,2.8254,2.6892,2.561,2.5097,2.4991,2.5237,2.4194,2.3385,2.2714,2.1586,2.0783,2.0183,1.9232,1.8806,1.8705,1.6934,1.6088,1.5924,1.4883,1.4618,1.4996,1.6129,1.6977,1.7548,1.8274,1.9108,1.9889,2.0295,2.0836,2.1501,2.2176,2.2664,2.2947,2.2947,2.2616,2.2031,2.1192,2.1034,2.123,2.153,2.1891,2.2273,2.2798,2.2627,2.2539,2.3193,2.2833,2.2629,2.3494,2.3476,2.3128,2.2415,2.2346,2.2003,2.0919,2.1175,2.1376,2.0973,2.1553,2.1875,2.1623,2.1722,2.1917,2.2165,2.171,2.1681,2.2117,2.3116,2.3398,2.2957,2.3761,2.3596,2.2375,2.2161,2.2279,2.2818,2.2926,2.2807,2.2439,2.2439,2.206,1.5426,0.0,0.8783,0.5006,0.0895,-0.2966,0.0,-0.9425,-0.9665,-0.3545,0.5298,1.4764,2.4433,3.1715,3.6865,3.9045,4.2581,4.4958,4.4627,4.404,4.2961,4.1114,3.9804,3.9147,3.9429,3.7684,3.6049,3.4816,3.2189,3.0423,2.9889,2.8196,2.6921,2.625,2.6027,2.5854,2.5715,2.4895,2.4054,2.3133,2.3154,2.2639,2.173,2.0974,2.0252,1.96,1.8017,1.6494,1.5085,1.5015,1.4275,1.3397,1.5165,1.5874,1.5929,1.6579,1.7235,1.7904,1.8596,1.9318,2.011,2.1032,2.1849,2.2481,2.2481,2.1949,2.1168,2.007,1.9866,2.0121,2.0306,2.0752,2.1258,2.1772,2.1941,2.2098,2.2396,2.2201,2.2076,2.2433,2.2457,2.2216,2.149,2.1668,2.1623,2.0695,2.0826,2.0932,2.0745,2.0665,2.0617,2.0617,2.049,2.0401,2.0525,2.0273,2.0489,2.1404,2.2297,2.2473,2.1787,2.2915,2.2761,2.1016,2.1253,2.145,2.1691,2.1732,2.1515,2.0985,2.0985,2.039,0.0,0.9731,0.6778,0.1625,-0.2881,-0.6984,-1.0709,-1.1764,0.0,-0.4392,0.3348,1.1471,1.9459,2.7806,3.4457,3.739,4.0026,4.2035,4.2847,4.3917,4.4478,4.4032,4.2018,4.0315,3.9525,3.7673,3.53,3.2376,3.1811,3.0698,2.8644,2.8155,2.7753,2.7319,2.6476,2.578,2.5319,2.479,2.4435,2.4386,2.4371,2.4078,2.3528,2.2361,2.0446,1.8064,1.8027,1.5971,1.2783,1.4353,1.3605,1.1705,1.4088,1.5052,1.5109,1.5773,1.6411,1.7111,1.7888,1.8886,1.9801,1.9504,2.0205,2.1134,2.1134,2.099,2.0928,2.1161,2.1252,2.1353,2.1871,2.2045,2.2204,2.2713,2.1834,2.1258,2.2615,2.1864,2.1296,2.2635,2.28,2.2293,2.0928,2.0717,2.0241,1.886,1.8383,1.818,1.8127,1.8951,1.9554,1.9554,2.0385,2.1098,2.1459,2.0504,1.9876,2.0002,2.1481,2.2381,2.2303,2.2515,2.1981,2.0483,2.0624,2.0166,1.9132,1.9364,1.9576,1.9731,1.9731,1.9762,1.2312,0.8373,0.3667,-0.4239,-0.8578,-1.1984,-1.5453,-1.6324,-1.3938,-0.5649,0.4529,1.3792,2.0182,2.7375,3.3609,3.7781,4.0483,4.2565,4.4144,4.4559,4.4512,4.3928,4.1462,3.9318,3.7911,3.6359,3.4454,3.2072,3.0839,2.9888,2.9017,2.8817,2.8202,2.7071,2.6314,2.5377,2.4202,2.3742,2.3349,2.3036,2.2808,2.2404,2.19,2.1674,2.085,1.9481,1.8109,1.6411,0.0,1.417,1.3059,1.1733,1.3056,1.353,1.3479,1.3439,1.3738,1.4295,1.4687,1.5771,1.7159,1.7813,1.8888,1.9998,2.0408,2.0304,1.9909,1.9062,1.9005,1.9203,1.9132,1.9304,1.9587,1.9959,1.9877,1.986,2.0385,2.0145,1.9976,2.0536,2.0601,2.0386,1.984,1.9756,1.9549,1.8918,1.8699,1.8545,1.8394,1.8557,1.8665,1.8504,1.874,1.906,1.9395,1.9067,1.8935,1.9081,2.0681,2.1266,2.0459,2.1402,2.1189,1.9578,1.9619,1.933,1.8747,1.9003,1.928,1.9633,1.9625,1.9728,1.1042,0.6686,0.14,-0.8569,-1.3463,-1.6254,-1.7911,-1.8588,-1.5799,-0.5104,0.6013,1.5499,2.1081,2.709,3.2768,3.7684,4.0449,4.259,4.434,4.4833,4.4606,4.3547,4.196,4.0012,3.7655,3.528,3.3172,3.1316,3.01,2.9439,2.9482,2.9279,2.8311,2.65,2.5541,2.428,2.276,2.2461,2.2146,2.181,2.1842,2.1494,2.077,2.1226,2.0074,1.771,1.7767,1.5416,1.1591,1.1546,1.151,1.1253,1.0297,0.9932,0.9772,0.8527,0.8466,0.918,0.9817,1.2698,1.6195,1.6924,1.8451,1.9989,2.0012,1.9249,1.8205,1.7347,1.741,1.7637,1.7387,1.7344,1.7452,1.7616,1.7941,1.8268,1.8505,1.845,1.8472,1.8982,1.883,1.8716,1.8945,1.9015,1.8999,1.9062,1.8922,1.8836,1.8834,1.8529,1.8195,1.8034,1.793,1.7966,1.8234,1.84,1.8595,1.8766,1.9925,2.0243,1.9324,2.0369,2.0416,1.9254,1.9285,1.9202,1.8971,1.9155,1.9374,1.963,1.9656,1.9757,0.8425,0.4386,-0.0,-1.0969,-1.7028,-1.9707,-1.7473,-1.7909,-1.5225,-0.2591,0.738,1.5647,2.1477,2.6743,3.1816,3.6965,3.9624,4.1536,4.2957,4.4607,4.5034,4.3337,4.3914,4.3019,3.9218,3.4753,3.1435,2.9851,2.9607,2.9572,2.9734,2.9347,2.8053,2.567,2.4108,2.2525,2.0972,2.0935,2.0897,2.0903,2.1959,2.1754,2.0501,2.1149,1.7791,1.1699,1.6839,1.2462,0.2039,0.5905,0.8565,0.979,0.5628,0.3999,0.3653,0.0818,0.0403,0.1577,0.3371,0.995,1.7442,1.6954,1.8904,2.1232,1.9924,1.7758,1.5833,1.6503,1.6997,1.7278,1.7315,1.6825,1.6336,1.6304,1.6316,1.6515,1.7304,1.6849,1.6771,1.8328,1.7903,1.7525,1.8306,1.8448,1.8555,1.8975,1.8604,1.8489,1.9125,1.8681,1.8293,1.8288,1.8252,1.8348,1.8607,1.8874,1.9024,1.9052,1.9276,1.9442,1.9442,1.9538,1.9615,1.9629,1.9751,1.9736,1.9628,1.9628,1.9628,1.9628,1.9733,1.9822,0.8667,0.1268,-0.6859,-1.7621,-2.2449,-2.3925,-2.1469,-1.929,-1.4387,-0.245,1.008,2.0064,2.3994,2.9459,3.502,4.0239,4.1671,4.2586,4.4054,4.4125,4.3462,4.1819,4.1902,4.085,3.7804,3.5211,3.2396,2.9163,2.8629,2.8419,2.8373,2.7126,2.5195,2.2575,2.1726,1.9939,1.7207,1.6801,1.6051,1.4966,1.4634,1.3833,1.2651,1.2379,1.0964,0.8654,0.754,0.4371,0.0086,0.1606,0.2063,0.1606,-0.0539,-0.1543,-0.1993,-0.3489,-0.3602,-0.294,-0.2304,0.1664,0.6524,0.6923,1.0539,1.4497,1.3181,1.2808,1.3301,1.5332,1.586,1.5996,1.6946,1.6474,1.5683,1.5316,1.5166,1.5145,1.538,1.5621,1.5939,1.6391,1.655,1.6688,1.6944,1.6969,1.7002,1.7134,1.7459,1.778,1.7984,1.8147,1.8337,1.8535,1.7154,1.6383,1.6861,1.7386,1.7927,1.8485,1.8821,1.9044,1.9044,1.9429,1.962,1.9615,1.9485,1.9394,1.9374,1.9066,1.8812,1.8522,1.8576,1.8583,0.7563,-0.0078,-0.8352,-1.9376,-2.4289,-2.592,-2.3838,-2.023,-1.3974,-0.2266,1.1298,2.2129,2.5947,3.1583,3.6779,4.0328,4.1903,4.2669,4.2537,4.225,4.138,3.9598,3.9426,3.8351,3.5449,3.4242,3.204,2.8247,2.755,2.6835,2.574,2.475,2.3052,2.0554,1.9624,1.7701,1.4638,1.3543,1.2409,1.1259,1.0511,0.9478,0.8271,0.8367,0.6988,0.4402,0.2743,-0.0079,-0.3568,-0.4607,-0.5658,-0.6672,-0.7313,-0.8236,-0.925,-0.9387,-0.9812,-1.0214,-0.9187,-0.5256,-0.0317,0.172,0.4225,0.6343,0.5873,0.7271,0.9571,1.22,1.2803,1.294,1.4042,1.3844,1.32,1.2476,1.2441,1.2616,1.2786,1.305,1.3467,1.4051,1.4318,1.4644,1.5156,1.541,1.5675,1.6044,1.6464,1.6722,1.6731,1.6941,1.7126,1.7128,1.522,1.4245,1.4987,1.5589,1.625,1.6897,1.7189,1.7488,1.792,1.8043,1.8163,1.8301,1.8172,1.8093,1.8068,1.783,1.7606,1.7394,1.739,1.7371,0.5544,-0.0349,-0.6552,-1.7834,-2.3457,-2.5976,-2.5005,-2.1571,-1.4923,-0.2255,1.1772,2.3113,2.7852,3.3428,3.7534,3.8381,4.0693,4.1605,3.9352,3.9314,3.8819,3.6826,3.6767,3.5627,3.237,3.2223,3.0766,2.6939,2.6323,2.4991,2.2444,2.215,2.1119,1.9145,1.759,1.5534,1.2864,1.0894,0.9597,0.8865,0.8248,0.7176,0.5819,0.6781,0.4248,-0.0856,0.0429,-0.2494,-0.8389,-1.1485,-1.3386,-1.431,-1.3971,-1.5172,-1.6987,-1.6071,-1.7097,-1.8613,-1.6342,-1.1035,-0.4622,-0.0928,-0.0951,-0.224,-0.1294,0.1539,0.4947,0.7731,0.8468,0.8699,0.965,0.984,0.9496,0.8587,0.8797,0.9316,0.9665,0.974,1.0112,1.1437,1.1549,1.1784,1.2953,1.3681,1.4329,1.5082,1.5213,1.519,1.5124,1.5048,1.4763,1.4161,1.2493,1.1867,1.288,1.3401,1.3902,1.4513,1.4525,1.4957,1.5931,1.5566,1.5555,1.6024,1.5966,1.5966,1.6065,1.598,1.5938,1.5895,1.5895,1.5916,0.4335,-0.2034,-0.8842,-1.8495,-2.2764,-2.4745,-2.5345,-2.6861,-2.268,-0.3455,1.4607,2.8157,3.2182,3.5757,3.8591,4.03,3.9274,3.796,3.7233,3.634,3.5348,3.4162,3.4706,3.3547,2.9484,3.05,2.9312,2.4338,2.4725,2.3842,2.073,1.8987,1.7528,1.627,1.4164,1.2058,1.0038,0.8064,0.6062,0.4019,0.2549,0.1018,-0.0619,-0.2067,-0.4059,-0.6377,-0.7356,-0.9554,-1.2538,-1.3272,-1.4853,-1.6924,-1.7138,-1.8341,-1.9947,-2.015,-2.0537,-2.0721,-1.9073,-1.5827,-1.2038,-1.0094,-0.8435,-0.6854,-0.4758,-0.2464,0.0209,0.4034,0.5141,0.5596,0.7592,0.7613,0.6997,0.6774,0.6833,0.6953,0.7049,0.7751,0.8465,0.8796,0.9213,0.9608,0.9897,1.0806,1.1414,1.118,1.1988,1.2446,1.1954,1.2055,1.1302,0.9053,0.8513,0.868,0.9516,0.9591,1.0114,1.1216,1.1108,1.1262,1.1916,1.2131,1.2721,1.3725,1.3117,1.3234,1.4047,1.3328,1.2861,1.2636,1.2636,1.2869,0.262,-0.278,-0.8868,-1.5801,-2.0293,-2.3316,-2.4515,-2.5281,-2.0747,-0.3415,1.3529,2.7203,3.3253,3.742,3.9956,3.9837,3.8126,3.6178,3.4312,3.3462,3.2689,3.1868,3.2151,3.1319,2.8382,2.8558,2.7334,2.363,2.3091,2.1497,1.8259,1.7016,1.5679,1.4028,1.211,0.9952,0.7571,0.522,0.31,0.1103,-0.0479,-0.2015,-0.3612,-0.4766,-0.656,-0.8841,-0.973,-1.1403,-1.3498,-1.3249,-1.4417,-1.6411,-1.6754,-1.8215,-2.0151,-2.0023,-2.0214,-2.0306,-1.8707,-1.652,-1.4514,-1.4637,-1.2786,-1.0135,-0.8079,-0.5913,-0.3557,-0.0595,0.0601,0.1273,0.2984,0.3324,0.3211,0.3211,0.3421,0.3722,0.3991,0.4984,0.5935,0.6286,0.6875,0.7485,0.8164,0.9339,1.0114,1.0074,1.0976,1.1333,1.0362,0.9137,0.7749,0.6137,0.5826,0.58,0.6111,0.6299,0.678,0.7645,0.7618,0.7889,0.8621,0.8918,0.9441,1.0298,1.0171,1.0365,1.0888,1.0433,1.0109,0.9978,0.9978,1.012,0.0919,-0.2704,-0.7392,-1.2033,-1.7093,-2.1486,-2.3744,-2.2469,-1.7055,-0.3917,1.0346,2.3402,3.3043,3.8045,4.0207,3.8494,3.6622,3.4234,3.0956,3.047,3.0207,2.943,2.9458,2.9003,2.7485,2.6809,2.5542,2.3094,2.1213,1.9007,1.6121,1.5612,1.4338,1.21,1.0751,0.8489,0.5237,0.2671,0.0598,-0.1027,-0.2426,-0.3819,-0.5199,-0.5305,-0.7,-0.9835,-1.0052,-1.1316,-1.3297,-1.2987,-1.3822,-1.5305,-1.5547,-1.7154,-1.9293,-1.877,-1.8978,-1.9334,-1.7838,-1.6386,-1.5356,-1.6416,-1.4826,-1.2175,-1.0724,-0.8686,-0.6481,-0.466,-0.3581,-0.276,-0.1662,-0.0899,-0.0452,-0.0452,-0.0125,0.0362,0.1081,0.1961,0.2939,0.3829,0.4631,0.5578,0.676,0.8098,0.9187,0.9519,1.0216,1.0263,0.9088,0.6593,0.4709,0.4085,0.3582,0.321,0.286,0.2989,0.3288,0.3702,0.3549,0.3809,0.4684,0.4966,0.539,0.599,0.6509,0.6832,0.7035,0.7062,0.7116,0.7116,0.7279,0.7497,-0.0081,-0.1463,-0.4652,-0.9529,-1.409,-1.8854,-2.4516,-2.5018,-2.064,-0.7329,0.5946,1.9368,3.3103,3.6123,3.6861,3.7802,3.3489,2.9317,2.7507,2.7287,2.6952,2.6199,2.6764,2.6592,2.4819,2.6033,2.5074,2.0641,1.8846,1.7365,1.6145,1.4171,1.2269,1.0458,0.9567,0.7032,0.2693,0.1054,-0.1022,-0.3424,-0.4656,-0.5998,-0.7386,-0.7811,-0.8896,-1.0453,-1.121,-1.2417,-1.3745,-1.4377,-1.5451,-1.6675,-1.6697,-1.7685,-1.9152,-1.9622,-1.9839,-1.9942,-1.9818,-1.915,-1.808,-1.5972,-1.4023,-1.2454,-1.1421,-0.991,-0.81,-0.5736,-0.4977,-0.4522,-0.2785,-0.2271,-0.2209,-0.2209,-0.2133,-0.1863,-0.1091,-0.0828,-0.0312,0.1007,0.2794,0.4139,0.4345,0.5935,0.7051,0.6666,0.7049,0.7207,0.6561,0.4899,0.3092,0.1447,0.1258,0.0919,0.0191,-0.0946,-0.1408,-0.0886,-0.2229,-0.2758,-0.2022,-0.1324,-0.0509,0.0449,0.0862,0.1522,0.2459,0.2749,0.2924,0.2975,0.3724,0.4702,-0.2898,-0.3087,-0.5377,-0.8568,-1.1874,-1.5158,-1.7977,-1.7509,-1.3152,-0.1446,1.0113,2.1527,3.2652,3.5854,3.614,3.4022,2.9242,2.4877,2.221,2.2368,2.2529,2.2235,2.3602,2.4309,2.3532,2.418,2.3501,2.0771,1.9532,1.7726,1.4999,1.2895,1.1021,0.9481,0.7747,0.5898,0.3907,0.0809,-0.1786,-0.3906,-0.5385,-0.6696,-0.7766,-0.8472,-0.9622,-1.1071,-1.1475,-1.2438,-1.3837,-1.4142,-1.4939,-1.5848,-1.6286,-1.6859,-1.7473,-1.8148,-1.8376,-1.8376,-1.804,-1.8246,-1.8269,-1.6293,-1.4863,-1.3716,-1.2406,-1.1268,-1.0035,-0.8527,-0.7723,-0.7147,-0.6307,-0.5807,-0.5495,-0.5495,-0.5105,-0.4644,-0.4249,-0.3481,-0.2564,-0.1935,0.0061,0.186,0.2402,0.3971,0.5283,0.5525,0.5729,0.5404,0.4205,0.3438,0.2281,0.0536,0.0339,-0.0162,-0.1498,-0.2161,-0.2669,-0.2915,-0.3633,-0.4113,-0.4292,-0.3661,-0.2856,-0.1892,-0.1428,-0.0742,0.0265,0.0427,0.0482,0.0535,0.0912,0.166,-0.7218,-0.5489,-0.5775,-0.7138,-0.9323,-1.1196,-1.1532,-1.0525,-0.6623,0.3416,1.267,2.1781,3.1025,3.4277,3.4251,3.0257,2.5479,2.099,1.7275,1.7977,1.8916,1.9126,2.1432,2.3029,2.3242,2.3418,2.2672,2.0657,1.9291,1.7068,1.3666,1.1594,0.9737,0.8167,0.6063,0.4793,0.4277,0.0323,-0.2727,-0.488,-0.6148,-0.7364,-0.8445,-0.9008,-1.0109,-1.1494,-1.1494,-1.2375,-1.3819,-1.3819,-1.4275,-1.5015,-1.5615,-1.5838,-1.5949,-1.6762,-1.7084,-1.7074,-1.6695,-1.7332,-1.8072,-1.638,-1.5338,-1.4447,-1.3047,-1.208,-1.1268,-1.0245,-0.9443,-0.8883,-0.8695,-0.8204,-0.7763,-0.7763,-0.7282,-0.6687,-0.6497,-0.5601,-0.4702,-0.4004,-0.252,-0.0907,0.0454,0.2068,0.3549,0.44,0.4458,0.3806,0.2076,0.169,0.0895,-0.0795,-0.0959,-0.1573,-0.328,-0.365,-0.4137,-0.5009,-0.536,-0.5795,-0.6383,-0.5816,-0.5147,-0.4476,-0.386,-0.3253,-0.2538,-0.2147,-0.1922,-0.1922,-0.1418,-0.0793,-1.3355,-0.8126,-0.4045,-0.4453,-0.5696,-0.7183,-0.8183,-0.8589,-0.6259,0.2693,0.8989,1.6336,2.7705,2.9683,2.9168,2.7795,2.2875,1.7841,1.381,1.5125,1.683,1.7864,2.0948,2.3242,2.4175,2.4976,2.3599,1.8949,1.6029,1.3959,1.2786,1.0156,0.7779,0.5881,0.4817,0.3414,0.1568,-0.1105,-0.4207,-0.7573,-0.7699,-0.857,-1.0197,-1.0197,-1.0674,-1.1494,-1.1494,-1.2375,-1.3819,-1.3819,-1.4275,-1.4959,-1.5015,-1.5015,-1.5185,-1.66,-1.7084,-1.7161,-1.7481,-1.803,-1.825,-1.5798,-1.4502,-1.3716,-1.2863,-1.2093,-1.1132,-0.9493,-0.8996,-0.8758,-0.8015,-0.7826,-0.7763,-0.7763,-0.7763,-0.75,-0.6586,-0.7038,-0.6857,-0.4363,-0.4481,-0.4201,-0.1687,0.0259,0.1752,0.2536,0.2666,0.2014,0.0324,-0.0652,-0.1824,-0.3507,-0.3456,-0.3987,-0.5683,-0.6662,-0.7467,-0.8254,-0.9382,-0.9984,-1.0045,-0.9163,-0.8669,-0.8607,-0.7862,-0.7496,-0.7434,-0.5833,-0.5002,-0.5002,-0.3216,-0.1999,-1.5733,-1.0656,-0.6805,-0.3497,-0.2955,-0.3232,-0.3423,-0.2526,0.0243,0.7375,1.2507,1.7959,2.5337,2.6791,2.5755,2.2106,1.748,1.3355,1.0575,1.1376,1.2753,1.3841,1.8144,2.0843,2.0567,2.1898,2.1017,1.6673,1.5346,1.3788,1.1705,0.8836,0.6704,0.5669,0.3536,0.2051,0.1372,-0.1441,-0.3528,-0.4811,-0.729,-0.8837,-0.9461,-1.0791,-1.1945,-1.2854,-1.2854,-1.3844,-1.5415,-1.5415,-1.5878,-1.661,-1.661,-1.661,-1.6735,-1.7788,-1.8572,-1.8914,-1.8486,-1.8485,-1.8423,-1.7054,-1.6372,-1.5806,-1.3934,-1.3193,-1.2554,-1.0398,-0.9827,-0.9752,-0.9455,-0.9381,-0.9381,-0.9381,-0.9381,-0.9319,-0.8996,-0.8319,-0.751,-0.6539,-0.5772,-0.461,-0.2468,-0.1558,-0.0455,0.1499,0.1303,0.0717,0.0065,-0.0783,-0.2019,-0.3692,-0.4327,-0.5279,-0.7035,-0.7466,-0.7955,-0.8734,-0.9677,-1.0464,-1.1025,-1.0708,-1.0511,-1.0471,-0.9171,-0.8497,-0.8538,-0.7418,-0.6857,-0.6848,-0.5623,-0.4592,-2.1047,-1.4828,-0.9534,-0.3337,-0.1048,0.0,0.1091,0.2491,0.5082,1.082,1.4338,1.7875,2.2786,2.3623,2.2139,1.7758,1.3975,1.0808,0.8325,0.9209,1.0645,1.2143,1.6778,1.948,1.8467,1.8801,1.7703,1.4311,1.3317,1.1852,0.9736,0.7318,0.5505,0.4335,0.2484,0.1313,0.0913,-0.1748,-0.312,-0.312,-0.7074,-0.8937,-0.9011,-1.1071,-1.273,-1.3982,-1.3688,-1.4798,-1.6684,-1.6416,-1.6818,-1.7502,-1.7502,-1.7502,-1.7634,-1.8445,-1.9526,-2.0336,-1.945,-1.917,-1.9018,-1.7882,-1.751,-1.7143,-1.524,-1.4644,-1.4252,-1.2476,-1.1655,-1.1421,-1.1452,-1.1034,-1.0555,-1.0667,-1.0504,-1.0197,-0.9888,-0.9194,-0.8382,-0.7491,-0.6675,-0.5516,-0.3771,-0.2929,-0.1952,-0.0195,0.0,-0.0131,-0.0392,-0.124,-0.2406,-0.4137,-0.5105,-0.6204,-0.7636,-0.8246,-0.8923,-0.9728,-1.0498,-1.121,-1.1839,-1.1854,-1.1824,-1.172,-1.0727,-1.0284,-1.0565,-0.9773,-0.9369,-0.929,-0.8411,-0.7281,-2.9491,-2.054,-1.1773,-0.3597,0.019,0.2596,0.5081,0.5892,0.7428,1.2324,1.3746,1.5445,1.9906,2.0072,1.8336,1.4979,1.2822,1.0502,0.7294,0.8689,1.0871,1.291,1.7038,1.9329,1.82,1.6169,1.4069,1.193,0.9803,0.804,0.6817,0.5801,0.4172,0.1798,0.1714,0.1121,-0.0077,-0.2065,-0.3134,-0.321,-0.7031,-0.8902,-0.905,-1.1047,-1.2999,-1.4772,-1.4043,-1.5207,-1.7512,-1.6757,-1.6891,-1.7578,-1.7578,-1.7578,-1.7644,-1.8414,-1.9813,-2.1223,-2.044,-2.0223,-1.9943,-1.8161,-1.7578,-1.736,-1.6586,-1.6316,-1.6095,-1.5328,-1.44,-1.3662,-1.3782,-1.2524,-1.1248,-1.1468,-1.0973,-1.0124,-0.9241,-0.9677,-0.9541,-0.6984,-0.7192,-0.7202,-0.553,-0.3706,-0.2536,-0.2536,-0.1108,-0.0392,-0.1307,-0.2019,-0.3184,-0.5079,-0.5964,-0.6848,-0.7826,-0.9271,-1.0559,-1.1434,-1.2256,-1.267,-1.267,-1.2686,-1.2703,-1.2762,-1.2719,-1.3118,-1.3862,-1.311,-1.2588,-1.2294,-1.1499,-0.9928,-2.9915,-2.1011,-1.2463,-0.1429,0.325,0.5458,0.6865,0.7275,0.8048,1.0663,1.127,1.2243,1.4985,1.5658,1.4875,1.1955,1.069,0.9614,0.8288,0.8571,0.9812,1.2084,1.5428,1.643,1.3524,1.3328,1.2531,1.0314,0.9594,0.8285,0.6072,0.4895,0.3475,0.1798,0.0942,-0.0085,-0.1261,-0.2683,-0.3853,-0.4687,-0.6609,-0.8341,-0.9954,-1.052,-1.2813,-1.6362,-1.6876,-1.7943,-1.9306,-1.9067,-1.9141,-1.9306,-1.9306,-1.9306,-1.9378,-1.9577,-1.994,-2.0382,-2.0149,-2.0072,-1.9959,-1.9528,-1.8848,-1.791,-1.6478,-1.5499,-1.4793,-1.4174,-1.3828,-1.3782,-1.4572,-1.4405,-1.3867,-1.3196,-1.2882,-1.2422,-1.141,-1.0857,-1.0047,-0.8331,-0.7736,-0.6779,-0.4657,-0.3845,-0.3257,-0.2601,-0.1631,-0.1305,-0.2084,-0.1892,-0.2792,-0.5799,-0.6912,-0.8236,-1.0267,-1.0816,-1.142,-1.2256,-1.3065,-1.3472,-1.3472,-1.4099,-1.4735,-1.5303,-1.4768,-1.4862,-1.5663,-1.4845,-1.4401,-1.4315,-1.2647,-1.1214,-3.7993,-2.6687,-1.4376,-0.2488,0.3324,0.6504,0.7427,0.7628,0.7945,0.9318,0.966,1.0286,1.1951,1.2725,1.2364,1.0336,0.969,0.9393,0.9023,0.8974,0.9678,1.1476,1.3313,1.3432,1.0792,1.1122,1.0449,0.8082,0.7889,0.6757,0.4163,0.3405,0.2343,0.1101,-0.0184,-0.1193,-0.1925,-0.3656,-0.4931,-0.5567,-0.7616,-0.9215,-1.0497,-1.1324,-1.3363,-1.6325,-1.7804,-1.9058,-1.9989,-1.9989,-1.9989,-1.9989,-1.9989,-1.9989,-1.9989,-1.9989,-1.9989,-1.9989,-1.9989,-1.9989,-1.9913,-1.9515,-1.8963,-1.8183,-1.6748,-1.6238,-1.605,-1.5724,-1.5612,-1.5765,-1.6479,-1.6042,-1.5342,-1.4879,-1.4522,-1.3982,-1.2929,-1.229,-1.1248,-0.912,-0.8356,-0.7368,-0.5175,-0.4375,-0.3838,-0.3364,-0.2895,-0.254,-0.2546,-0.2477,-0.3188,-0.5169,-0.6459,-0.8225,-1.068,-1.154,-1.2316,-1.3081,-1.4182,-1.4958,-1.5433,-1.6227,-1.6875,-1.7391,-1.6938,-1.6879,-1.7311,-1.681,-1.6792,-1.6974,-1.5336,-1.4139,-4.8297,-3.4079,-1.661,-0.4321,0.3076,0.7506,0.0,0.788,0.7784,0.8565,0.8861,0.9286,1.0242,1.0859,1.0756,0.9546,0.9474,0.9578,0.9546,0.9538,0.985,1.0871,1.0976,1.0495,0.9359,0.9165,0.8184,0.5632,0.5534,0.4439,0.1971,0.1774,0.128,0.0,-0.1374,-0.2157,-0.2353,-0.4788,-0.6057,-0.6251,-0.9191,-1.0685,-1.0855,-1.2791,-1.4421,-1.5843,-1.7725,-1.9156,-2.035,-2.035,-2.035,-2.0255,-2.016,-2.0179,-2.035,-2.035,-2.035,-2.035,-2.035,-2.035,-2.0159,-1.9125,-1.8625,-1.8218,-1.7195,-1.7414,-1.7943,-1.8193,-1.827,-1.8343,-1.8698,-1.7609,-1.6433,-1.6549,-1.6047,-1.5212,-1.4054,-1.3769,-1.2869,-0.9816,-0.9153,-0.8477,-0.6515,-0.5262,-0.4484,-0.451,-0.4418,-0.3979,-0.3066,-0.3495,-0.395,-0.408,-0.5594,-0.7462,-0.9801,-1.175,-1.329,-1.4174,-1.5621,-1.6914,-1.7962,-1.8601,-1.9053,-1.9127,-1.9251,-1.9301,-1.934,-1.9217,-1.948,-2.008,-1.8673,-1.7925,0.0,0.0,0.0,0.0,0.0,0.0,0.0,1.0846,0.8676,0.9441,0.8933,0.8307,0.8342,0.9733,1.0174,0.8372,0.928,0.9959,0.9578,0.9538,0.9453,0.9273,0.9233,0.8701,0.7328,0.7111,0.6368,0.4676,0.457,0.3783,0.2147,0.2044,0.1412,0.0,-0.1373,-0.2546,-0.3521,-0.5177,-0.6542,-0.7419,-0.9259,-1.0549,-1.1487,-1.3071,-1.5357,-1.8184,-1.8619,-1.9993,-2.2065,-2.2065,-2.2065,-2.2008,-2.1242,-2.1394,-2.2065,-2.2065,-2.2065,-2.2065,-2.2065,-2.2065,-2.1868,-2.0944,-1.9498,-1.7996,-1.7199,-1.5816,-1.4933,-1.6705,-1.7178,-1.7615,-1.9311,-1.9499,-1.9012,-1.8248,-1.7911,-1.7288,-1.5454,-1.5,-1.4201,-1.1474,-1.0305,-0.927,-0.7676,-0.6458,-0.5759,-0.599,-0.5295,-0.4925,-0.5316,-0.4696,-0.4513,-0.522,-0.6599,-0.7985,-0.9074,-1.2461,-1.5204,-1.6801,-1.7697,-1.8696,-1.9791,-2.0597,-2.1036,-2.1013,-2.1792,-2.2515,-2.3386,-2.2407,-2.2493,-2.3334,-2.1329,-2.0087,0.0,0.0,0.0,0.0,0.0,0.0,0.0,0.0,0.0,0.0,0.0,1.0547,1.0172,0.0,1.0343,0.939,0.9384,0.9436,0.9179,0.9157,0.8752,0.7768,0.7583,0.7045,0.5634,0.5419,0.4771,0.3364,0.3255,0.2587,0.1167,0.106,0.0736,0.0,-0.2065,-0.3509,-0.4123,-0.6282,-0.7724,-0.8241,-1.0058,-1.1336,-1.1919,-1.3714,-1.6173,-1.8844,-1.8844,-2.0251,-2.2561,-2.2561,-2.2561,-2.2561,-2.2495,-2.2741,-2.3064,-2.2713,-2.2561,-2.2561,-2.2561,-2.2561,-2.2315,-2.0586,-1.9345,-1.8184,-1.6588,-1.6214,-1.6381,-1.7063,-1.8105,-1.9214,-1.9856,-1.9989,-1.9894,-1.9363,-1.9211,-1.8656,-1.6547,-1.6165,-1.5088,-1.1564,-1.047,-0.952,-0.7734,-0.6909,-0.6514,-0.6426,-0.5987,-0.5696,-0.601,-0.5492,-0.5309,-0.5796,-0.6849,-0.8018,-0.9012,-1.209,-1.4618,-1.6208,-1.8173,-1.9935,-2.153,-2.2766,-2.3421,-2.3522,-2.4568,-2.4878,-2.4475,-2.4394,-2.4538,-2.4849,-2.4256,-2.2753,0.0,0.0,0.0,0.0,0.0,0.0,0.0,0.0,0.0,0.0,0.0,0.0,0.0,0.0,0.0,1.1188,1.0037,0.8991,0.8777,0.8234,0.7476,0.6286,0.6066,0.5419,0.401,0.3905,0.3255,0.1847,0.174,0.1196,0.0109,0.0,-0.0109,-0.0436,-0.293,-0.4443,-0.4659,-0.7368,-0.8783,-0.8777,-1.1103,0.0,-1.2251,-1.4841,-1.7273,-1.9334,-1.9769,-2.1301,-2.3382,-2.3382,-2.3382,-2.344,-2.4067,-2.4175,-2.3937,-2.3304,-2.3056,-2.3056,-2.3056,-2.3056,-2.2671,-2.026,-1.9304,-1.8661,-1.6333,-1.6825,0.0,-1.7659,-1.9092,-2.0633,-2.0225,-2.0309,-2.0463,-2.0463,-2.0463,-1.9998,-1.8068,-1.7506,-1.6147,-1.228,-1.0934,-0.9821,-0.7978,-0.7348,-0.6916,-0.6479,-0.6479,-0.6407,-0.6191,-0.6151,-0.6195,-0.6388,-0.7184,-0.833,-0.9974,-1.1825,-1.3696,-1.5682,-1.8436,-2.1112,-2.3473,-2.4883,-2.5729,-2.5963,-2.7167,-2.7221,-2.6052,-2.6764,-2.6802,-2.6427,-2.6838,-2.503,0.0,0.0,0.0,0.0,0.0,0.0,0.0,0.0,0.0,0.0,0.0,0.0,0.0,0.0,0.0,0.0,1.1382,1.0037,0.8884,0.6502,0.4767,0.4554,0.4554,0.3905,0.2496,0.239,0.174,0.0327,0.0218,0.0218,0.0,0.0,0.0,0.0,0.0,-0.4875,-0.6174,-0.7911,-0.8783,-0.8777,-1.1487,-1.2729,-1.2833,-1.6868,-1.9438,-2.0875,-2.3235,-2.5026,-2.6387,-2.6387,-2.6387,-2.6387,-2.6397,-2.5854,-2.4886,-2.4792,-2.4754,-2.4754,-2.4754,0.0,0.0,-2.2132,-2.0788,-1.9659,-1.7439,-1.6292,-1.5926,-1.6739,-1.8025,-1.9314,-2.0304,-2.1414,-2.2275,-2.2275,-2.2275,-2.192,-2.08,-1.9579,-1.8082,-1.6214,-1.3237,-1.076,-1.0038,-0.8461,-0.714,-0.6511,-0.6738,-0.6804,-0.6587,-0.6541,-0.6912,-0.7852,-0.844,0.0,-1.2726,-1.2972,-1.463,-1.8517,-2.0105,-2.2588,-2.6409,-2.6767,-2.71,-2.7704,-2.9088,-3.0435,-3.1749,-3.1149,-3.0432,-2.9611,-2.8522,-2.6049,0.0,0.0,0.0,0.0,0.0,0.0,0.0,0.0,0.0,0.0,0.0,0.0,0.0,0.0,0.0,0.0,1.1277,0.8943,0.7577,0.5642,0.3925,0.314,0.3039,0.2496,0.1088,0.0871,0.0653,0.0,0.0,0.0,0.0,-0.0762,-0.1522,-0.2173,-0.4446,-0.585,-0.6389,-0.8019,-0.9091,-0.9931,-1.1848,-1.3227,-1.4169,-1.6755,-1.9076,-2.1117,-2.2895,-2.4811,-2.6855,-2.7583,-2.7402,-2.6855,0.0,0.0,0.0,0.0,-2.5038,-2.5038,-2.5038,-2.5038,-2.4679,-2.2139,-2.1066,-2.0249,-1.7797,-1.7254,-1.7463,-1.7479,-1.8916,-2.0531,-2.0564,-2.1585,-2.2561,-2.2561,-2.2561,-2.2287,-2.124,-1.9902,-1.8025,-1.5317,-1.2947,0.0,-1.0015,-0.7901,-0.6549,-0.6892,-0.6402,-0.6203,-0.6726,-0.6861,-0.7206,-0.8293,-0.8617,-1.0034,-1.3343,-1.4461,0.0,0.0,0.0,-2.4427,-2.7222,-2.8198,0.0,0.0,0.0,-3.2596,-3.2509,-3.2479,0.0,0.0,-3.0188,-2.7141,0.0,0.0,0.0,0.0,0.0,0.0,0.0,0.0,0.0,0.0,0.0,0.0,0.0,0.0,0.0,0.0,1.133,0.7998,0.4124,0.3351,0.2861,0.2304,0.1858,0.1088,0.0109,0.0,0.0,0.0,0.0,0.0,0.0,-0.1305,-0.2281,-0.2713,-0.5203,-0.6717,-0.704,-0.8234,-0.9412,-1.0667,-1.2156,-1.3541,-1.5013,-1.6781,-1.889,-2.1117,-2.2956,-2.5313,-2.779,-2.897,-2.8771,-2.779,-2.8176,-2.6174,-2.2965,-2.3708,-2.4222,-2.4527,-2.4944,-2.5038,-2.464,-2.1917,-2.1019,-2.0542,-1.7905,-1.7803,-1.8402,-1.7867,-1.9247,-2.0997,-2.0752,-2.1692,-2.2789,-2.3178,-2.3266,-2.3003,-2.226,-2.0706,-1.8486,-1.5478,-1.328,-1.1355,-0.9504,-0.7231,-0.5949,-0.6682,-0.5891,-0.5541,-0.6295,-0.6783,-0.7538,-0.8913,-0.9001,-1.056,-1.4348,-1.5742,-1.7909,-2.1529,-2.3618,-2.5753,-2.8073,-2.9334,-3.0565,-3.1883,-3.4134,-3.506,0.0,0.0,0.0,0.0,0.0,0.0,0.0,0.0,0.0,0.0,0.0,0.0,0.0,0.0,0.0,0.0,0.0,0.0,0.0,0.0,0.0,0.0,0.0,0.0,-0.2129,-0.1394,0.0771,0.227,0.111,0.0,0.0,0.0,0.0,0.0,0.0,0.0,0.0,-0.1305,-0.2822,-0.4122,-0.5634,-0.7153,-0.8669,-0.8676,-0.9412,-1.0667,-1.2156,-1.3541,-1.5013,-1.7763,-1.9762,-2.1215,-2.494,-2.7842,-3.0138,-3.1312,-3.1035,-2.9943,-2.866,-2.6023,-2.2772,-2.1607,-2.19,-2.3175,-2.4622,-2.5038,-2.464,-2.1917,-2.1019,-2.0542,-1.7905,-1.7114,-1.7114,-1.7101,-1.8067,-1.9433,-2.0676,-2.193,-2.3296,-2.4641,-2.4962,-2.4962,-2.4962,-2.2851,-2.0341,-1.8359,-1.5135,-1.1799,-0.8697,-0.7003,-0.5831,-0.5404,-0.5251,0.0,-0.4982,-0.6174,-0.7792,-1.0027,-1.0278,-1.206,-1.6437,-1.6617,-1.842,-2.2979,-2.4266,-2.6304,-2.9569,-3.0206,-3.0819,-3.1471,-3.553,-3.8276,-3.9625,0.0,0.0,0.0,0.0,0.0,0.0,0.0,0.0,0.0,0.0,0.0,0.0,0.0,0.0,0.0,0.0,0.0,0.0,0.0,0.0,0.0,0.0,0.0,0.0,-0.1476,-0.1561,-0.0645,-0.1094,-0.1414,-0.1414,-0.0544,0.0,0.0,0.0,-0.0436,-0.1414,-0.2822,-0.4227,-0.5742,-0.7261,-0.8234,-0.8783,-0.8783,-0.9412,-1.0667,-1.2156,-1.3541,-1.5013,-1.687,-1.8976,-2.1117,-2.4135,-2.713,-3.0309,-3.2251,-3.2742,-3.2103,-3.0007,-2.6605,-2.2703,-2.1493,-2.1313,-2.1802,-2.3193,-2.4299,-2.464,-2.1917,-2.1019,-2.0542,-1.7905,-1.7114,-1.7114,-1.7114,-1.8007,-1.9363,-2.064,-2.1997,-2.3271,-2.4716,-2.5038,-2.5038,-2.5038,-2.2921,-2.0219,-1.7824,-1.4887,-1.1836,-0.8711,-0.6303,-0.5,-0.5423,-0.4796,-0.4574,-0.5013,-0.6324,-0.8029,-1.0084,-1.0308,-1.2118,-1.6531,-1.7413,-1.9431,-2.3595,-2.5701,-2.785,-3.0023,-3.1312,-3.2862,-3.4788,-3.6654,-3.8156,-3.93,0.0,0.0,0.0,0.0,0.0,0.0,0.0,0.0,0.0,0.0,0.0,0.0,0.0,0.0,0.0,0.0,0.0,0.0,0.0,0.0,0.0,0.0,0.0,0.0,0.0,0.0,-0.4406,-0.399,0.0,-0.2333,-0.1281,-0.0321,0.0535,0.0219,-0.0661,-0.2066,-0.3512,-0.4938,-0.6502,-0.8019,-0.8783,-0.8783,-0.8783,-0.9412,-1.0667,-1.2156,-1.3541,-1.5013,-1.6485,-1.8486,-2.1101,-2.4023,-2.7341,-3.0916,-3.3921,-3.4854,-3.4155,-3.174,-2.8004,-2.391,-2.2204,-2.1964,-2.2448,-2.3331,-2.5036,-2.6539,-2.4435,-2.291,-2.1336,-1.7993,-1.7231,-1.7305,-1.6916,-1.754,-1.8688,-1.9962,-2.1313,-2.2579,-2.3995,-2.4716,-2.5038,-2.5038,-2.2921,-2.0183,-1.7459,-1.4692,-1.1836,-0.8711,-0.598,-0.4405,-0.4914,-0.4325,-0.4104,-0.4727,-0.6282,-0.8012,-0.971,-1.0152,-1.1942,-1.593,-1.747,-1.991,-2.3854,-2.6202,-2.8288,-3.0278,-3.2306,-3.3809,-3.4723,-3.7295,-3.8503,0.0,0.0,0.0,0.0,0.0,0.0,0.0,0.0,0.0,0.0,0.0,0.0,0.0,0.0,0.0,0.0,0.0,0.0,0.0,0.0,0.0,0.0,0.0,0.0,0.0,0.0,0.0,-0.865,-0.7742,0.0,0.0,0.0,0.0,0.1952,0.0876,-0.056,-0.2169,-0.3567,-0.492,-0.6507,-0.8019,-0.8783,-0.8783,-0.8783,-0.9412,-1.0667,-1.2156,-1.3541,-1.5013,-1.6485,-1.8587,-2.1281,-2.4818,-2.8439,-3.2199,-3.6489,-3.7489,-3.6225,-3.383,-3.0487,-2.6695,-2.4154,-2.4114,-2.5223,-2.5181,-2.7357,-3.0022,-2.9033,-2.6395,-2.2845,-1.8683,-1.7739,0.0,0.0,-1.682,-1.7471,-1.8631,-2.0031,-2.1313,-2.2676,-2.3995,-2.5038,-2.5038,-2.2921,-2.0167,-1.7519,-1.4727,-1.1876,-0.8764,0.0,-0.4209,-0.3905,-0.3904,-0.3872,-0.3898,-0.5909,-0.7763,-0.8998,-0.9814,-1.1633,-1.4899,-1.7047,-1.9836,-2.3784,-2.5717,-2.779,-3.0197,-3.3006,-3.3591,-3.179,-3.7423,0.0,0.0,0.0,0.0,0.0,0.0,0.0,0.0,0.0,0.0,0.0,0.0,0.0,0.0,0.0,0.0,0.0,0.0,0.0,0.0,0.0,0.0,0.0,0.0,0.0,0.0,-1.4251,-1.5376,-1.4094,-1.3201,-0.9578,0.0,0.0,0.0,0.0,0.0,0.0,-0.3542,-0.4104,-0.5434,-0.8019,-0.8562,-0.8783,-0.8783,-0.8783,-0.9412,-1.0667,-1.2156,-1.3541,-1.5013,-1.7457,-1.9916,-2.2476,-2.6104,-2.9998,-3.4175,-3.8209,-3.9995,-4.0,-3.7596,-3.5763,-3.41,-3.1244,-3.0444,-3.0551,-2.9642,-2.9906,-3.0455,-3.0155,-2.7963,-2.5383,-2.4771,0.0,0.0,0.0,0.0,-1.7825,-1.8379,-1.9679,-2.1313,-2.2676,-2.3995,-2.5038,-2.5038,-2.2921,-2.0615,-1.9349,-1.5881,-1.224,-0.9422,-0.6888,0.0,-0.3723,-0.376,-0.3845,-0.3878,-0.5391,-0.7062,-0.8963,-0.998,-1.1839,-1.4942,-1.6468,-1.8949,-2.2963,-2.4221,-2.6393,-3.0003,-2.9969,-3.1626,-3.5325,0.0,0.0,0.0,0.0,0.0,0.0,0.0,0.0,0.0,0.0,0.0,0.0,0.0,0.0,0.0,0.0,0.0,0.0,0.0,0.0,0.0,0.0,0.0,0.0,0.0,0.0,0.0,-1.7432,-2.0515,-2.0321,-1.6924,-1.1649,0.0,0.0,0.0,0.0,0.0,0.0,0.0,0.0,0.0,-0.9197,-0.9823,-0.9689,-0.8777,-0.9305,-0.9931,-1.0667,-1.2156,-1.3834,-1.5896,-1.8053,-2.0692,-2.3907,-2.7341,-3.2075,-3.756,-4.0375,-4.2082,-4.2626,0.0,0.0,0.0,0.0,-3.2845,-3.2956,-3.2084,-3.2519,-3.3296,-3.2574,0.0,0.0,0.0,0.0,0.0,0.0,0.0,-1.8621,-1.9131,-1.9537,-2.0181,-2.1719,-2.3559,-2.5132,-2.5733,-2.4009,-2.1717,-1.982,-1.65,-1.3019,-1.0057,-0.7173,0.0,0.0,0.0,-0.3122,-0.3107,-0.4788,-0.6494,-0.7677,-0.9771,-1.1852,-1.3695,-1.5947,-1.8644,-2.196,-2.3739,-2.5742,-2.8341,-2.9536,-3.1211,0.0,0.0,0.0,0.0,0.0,0.0,0.0,0.0,0.0,0.0,0.0,0.0,0.0,0.0,0.0,0.0,0.0,0.0,0.0,0.0,0.0,0.0,0.0,0.0,0.0,0.0,0.0,0.0,0.0,-2.4302,-2.5573,0.0,0.0,0.0,0.0,0.0,0.0,0.0,0.0,0.0,0.0,0.0,0.0,0.0,-1.2194,-1.0285,-1.0951,-1.1285,-1.1496,-1.2777,-1.4748,-1.7289,-1.9204,-2.201,-2.5571,-2.9485,0.0,-4.1014,-4.2307,0.0,0.0,0.0,0.0,0.0,0.0,0.0,0.0,0.0,0.0,0.0,0.0,0.0,0.0,0.0,0.0,0.0,0.0,0.0,0.0,0.0,0.0,-1.9008,-2.0649,-2.2997,-2.5289,-2.6745,-2.5642,-2.3507,-2.0608,-1.7485,-1.433,0.0,0.0,0.0,0.0,0.0,0.0,-0.1937,-0.4229,-0.5807,-0.5989,-0.9469,-1.1871,-1.2354,-1.5672,-1.8712,-2.1205,-2.3557,-2.537,-2.6541,-3.0277,0.0,0.0,0.0,0.0,0.0,0.0,0.0,0.0,0.0,0.0,0.0,0.0,0.0,0.0,0.0,0.0,0.0,0.0,0.0,0.0,0.0,0.0,0.0,0.0,0.0,0.0,0.0,0.0,0.0,0.0,0.0,0.0,0.0,0.0,0.0,0.0,0.0,0.0,0.0,0.0,0.0,0.0,0.0,0.0,0.0,0.0,0.0,0.0,0.0,0.0,-1.6053,-1.7086,-1.8846,-2.3194,-2.6034,-2.8026,-3.5482,-3.9754,-4.1478,-4.1872,0.0,0.0,0.0,0.0,0.0,0.0,0.0,0.0,0.0,0.0,0.0,0.0,0.0,0.0,0.0,0.0,0.0,0.0,0.0,0.0,0.0,0.0,-2.0662,-2.0771,-2.2961,-2.5618,-2.7903,0.0,0.0,0.0,0.0,0.0,0.0,0.0,0.0,0.0,0.0,0.0,-0.0686,-0.3008,-0.5001,-0.59,-0.9564,-1.2317,-1.2943,-1.5925,-1.8951,-2.1839,-2.2412,-2.4418,0.0,0.0,0.0,0.0,0.0,0.0,0.0,0.0,0.0,0.0,0.0,0.0,0.0,0.0,0.0,0.0,0.0,0.0,0.0,0.0,0.0,0.0,0.0,0.0,0.0,0.0,0.0,0.0,0.0,0.0,0.0,0.0,0.0,0.0,0.0,0.0,0.0,0.0,0.0,0.0,0.0,0.0,0.0,0.0,0.0,0.0,0.0,0.0,0.0,0.0,0.0,0.0,0.0,0.0,0.0,0.0,0.0,0.0,-3.6244,-3.9188,0.0,0.0,0.0,0.0,0.0,0.0,0.0,0.0,0.0,0.0,0.0,0.0,0.0,0.0,0.0,0.0,0.0,0.0,0.0,0.0,0.0,0.0,0.0,0.0,0.0,0.0,0.0,0.0,0.0,0.0,0.0,0.0,0.0,0.0,0.0,0.0,0.0,0.0,0.0,0.0,0.0779,-0.0935,-0.2798,-0.4876,-0.8814,-1.1738,-1.2511,-1.6375,-1.9379,-2.0866,-2.3507,0.0,0.0,0.0,0.0,0.0,0.0,0.0,0.0,0.0,0.0,0.0,0.0,0.0,0.0,0.0,0.0,0.0,0.0,0.0,0.0,0.0,0.0,0.0,0.0,0.0,0.0,0.0,0.0,0.0,0.0,0.0,0.0,0.0,0.0,0.0,0.0,0.0,0.0,0.0,0.0,0.0,0.0,0.0,0.0,0.0,0.0,0.0,0.0,0.0,0.0,0.0,0.0,0.0,0.0,0.0,0.0,0.0,0.0,0.0,-3.5724,-3.762,0.0,0.0,0.0,0.0,0.0,0.0,0.0,0.0,0.0,0.0,0.0,0.0,0.0,0.0,0.0,0.0,0.0,0.0,0.0,0.0,0.0,0.0,0.0,0.0,0.0,0.0,0.0,0.0,0.0,0.0,0.0,0.0,0.0,0.0,0.0,0.0,0.0,0.0,0.0,0.0,0.2624,0.1039,-0.1082,-0.401,-0.7845,-1.0809,-1.2098,-1.6567,-1.9617,-2.0119,-2.4727,0.0,0.0,0.0,0.0,0.0,0.0,0.0,0.0,0.0,0.0,0.0,0.0,0.0,0.0,0.0,0.0,0.0,0.0,0.0,0.0,0.0,0.0,0.0,0.0,0.0,0.0,0.0,0.0,0.0,0.0,0.0,0.0,0.0,0.0,0.0,0.0,0.0,0.0,0.0,0.0,0.0,0.0,0.0,0.0,0.0,0.0,0.0,0.0,0.0,0.0,0.0,0.0,0.0,0.0,0.0,0.0,0.0,0.0,0.0,0.0,0.0,0.0,0.0,0.0,0.0,0.0,0.0,0.0,0.0,0.0,0.0,0.0,0.0,0.0,0.0,0.0,0.0,0.0,0.0,0.0,0.0,0.0,0.0,0.0,0.0,0.0,0.0,0.0,0.0,0.0,0.0,0.0,0.0,0.0,0.0,0.0,0.0,0.0,0.0,0.0,0.0,0.5007,0.207,-0.1082,-0.401,-0.7002,-0.987,-1.2529,-1.5895,-1.8809,-2.1061,0.0,0.0,0.0,0.0,0.0,0.0,0.0,0.0,0.0,0.0,0.0,0.0,0.0,0.0,0.0,0.0,0.0,0.0,0.0,0.0,0.0,0.0,0.0,0.0,0.0,0.0,0.0,0.0,0.0,0.0,0.0,0.0,0.0,0.0,0.0,0.0,0.0,0.0,0.0,0.0,0.0,0.0,0.0,0.0,0.0,0.0,0.0,0.0,0.0,0.0,0.0,0.0,0.0,0.0,0.0,0.0,0.0,0.0,0.0,0.0,0.0,0.0,0.0,0.0,0.0,0.0,0.0,0.0,0.0,0.0,0.0,0.0,0.0,0.0,0.0,0.0,0.0,0.0,0.0,0.0,0.0,0.0,0.0,0.0,0.0,0.0,0.0,0.0,0.0,0.0,0.0,0.0,0.0,0.0,0.0,0.0,0.0,0.0,0.0,0.0,0.0,0.0,0.5386,0.3729,0.0865,-0.3791,-0.6038,-0.8809,-1.2481,-1.6222,-1.9137,-2.0877,0.0,0.0,0.0,0.0,0.0,0.0,0.0,0.0,0.0,0.0,0.0,0.0,0.0,0.0,0.0,0.0,0.0,0.0,0.0,0.0,0.0,0.0,0.0,0.0,0.0,0.0,0.0,0.0,0.0,0.0,0.0,0.0,0.0,0.0,0.0,0.0,0.0,0.0,0.0,0.0,0.0,0.0,0.0,0.0,0.0,0.0,0.0,0.0,0.0,0.0,0.0,0.0,0.0,0.0,0.0,0.0,0.0,0.0,0.0,0.0,0.0,0.0,0.0,0.0,0.0,0.0,0.0,0.0,0.0,0.0,0.0,0.0,0.0,0.0,0.0,0.0,0.0,0.0,0.0,0.0,0.0,0.0,0.0,0.0,0.0,0.0,0.0,0.0,0.0,0.0,0.0,0.0,0.0,0.0,0.0,0.0,0.0,0.0,0.0,0.0,0.0,0.0,0.5949,0.4869,0.2056,-0.3683,-0.5183,-0.7745,-1.2481,-1.6488,-1.9644,-2.1533,0.0,0.0,0.0,0.0,0.0,0.0,0.0,0.0,0.0,0.0,0.0,0.0,0.0,0.0,0.0,0.0,0.0,0.0,0.0,0.0,0.0,0.0,0.0,0.0,0.0,0.0,0.0,0.0,0.0,0.0,0.0,0.0,0.0,0.0,0.0,0.0,0.0,0.0,0.0,0.0,0.0,0.0,0.0,0.0,0.0,0.0,0.0,0.0,0.0,0.0,0.0,0.0,0.0,0.0,0.0,0.0,0.0,0.0,0.0,0.0,0.0,0.0,0.0,0.0,0.0,0.0,0.0,0.0,0.0,0.0,0.0,0.0,0.0,0.0,0.0,0.0,0.0,0.0,0.0,0.0,0.0,0.0,0.0,0.0,0.0,0.0,0.0,0.0,0.0,0.0,0.0,0.0,0.0,0.0,0.0,0.0,0.0,0.0,0.0,0.0,0.0,0.0,0.7055,0.5269,0.2056,-0.3683,-0.4335,-0.6589,-1.2376,-1.6399,-2.0098,0.0,0.0,0.0,0.0,0.0,0.0,0.0,0.0,0.0,0.0,0.0,0.0,0.0,0.0,0.0,0.0,0.0,0.0,0.0,0.0,0.0,0.0,0.0,0.0,0.0,0.0,0.0,0.0,0.0,0.0,0.0,0.0,0.0,0.0,0.0,0.0,0.0,0.0,0.0,0.0,0.0,0.0,0.0,0.0,0.0,0.0,0.0,0.0,0.0,0.0,0.0,0.0,0.0,0.0,0.0,0.0,0.0,0.0,0.0,0.0,0.0,0.0,0.0,0.0,0.0,0.0,0.0,0.0,0.0,0.0,0.0,0.0,0.0,0.0,0.0,0.0,0.0,0.0,0.0,0.0,0.0,0.0,0.0,0.0,0.0,0.0,0.0,0.0,0.0,0.0,0.0,0.0,0.0,0.0,0.0,0.0,0.0,0.0,0.0,0.0,0.0,0.0,0.0,0.7118,0.5164,0.19,-0.3675,-0.4227,-0.6584,-1.2376,-1.5661,-1.943,-2.3968,0.0,0.0,0.0,0.0,0.0,0.0,0.0,0.0,0.0,0.0,0.0,0.0,0.0,0.0,0.0,0.0,0.0,0.0,0.0,0.0,0.0,0.0,0.0,0.0,0.0,0.0,0.0,0.0,0.0,0.0,0.0,0.0,0.0,0.0,0.0,0.0,0.0,0.0,0.0,0.0,0.0,0.0,0.0,0.0,0.0,0.0,0.0,0.0,0.0,0.0,0.0,0.0,0.0,0.0,0.0,0.0,0.0,0.0,0.0,0.0,0.0,0.0,0.0,0.0,0.0,0.0,0.0,0.0,0.0,0.0,0.0,0.0,0.0,0.0,0.0,0.0,0.0,0.0,0.0,0.0,0.0,0.0,0.0,0.0,0.0,0.0,0.0,0.0,0.0,0.0,0.0,0.0,0.0,0.0,0.0,0.0,0.0,0.0,0.0,0.0,0.0,0.0,0.0,0.5773,0.2116,-0.2912,-0.4007,-0.6584,-1.2376,-1.6108,-2.0245,-2.5009,0.0,0.0,0.0,0.0,0.0,0.0,0.0,0.0,0.0,0.0,0.0,0.0,0.0,0.0,0.0,0.0,0.0,0.0,0.0,0.0,0.0,0.0,0.0,0.0,0.0,0.0,0.0,0.0,0.0,0.0,0.0,0.0,0.0,0.0,0.0,0.0,0.0,0.0,0.0,0.0,0.0,0.0,0.0,0.0,0.0,0.0,0.0,0.0,0.0,0.0,0.0,0.0,0.0,0.0,0.0,0.0,0.0,0.0,0.0,0.0,0.0,0.0,0.0,0.0,0.0,0.0,0.0,0.0,0.0,0.0,0.0,0.0,0.0,0.0,0.0,0.0,0.0,0.0,0.0,0.0,0.0,0.0,0.0,0.0,0.0,0.0,0.0,0.0,0.0,0.0,0.0,0.0,0.0,0.0,0.0,0.0,0.0,0.0,0.0,0.0,0.0,0.0,0.0,0.6879,0.2695,-0.1616,-0.3461,-0.6584,-1.2376,-1.737,-2.2151,-2.6399,-3.2554,0.0,0.0,0.0,0.0,0.0,0.0,0.0,0.0,0.0,0.0,0.0,0.0,0.0,0.0,0.0,0.0,0.0,0.0,0.0,0.0,0.0,0.0,0.0,0.0,0.0,0.0,0.0,0.0,0.0,0.0,0.0,0.0,0.0,0.0,0.0,0.0,0.0,0.0,0.0,0.0,0.0,0.0,0.0,0.0,0.0,0.0,0.0,0.0,0.0,0.0,0.0,0.0,0.0,0.0,0.0,0.0,0.0,0.0,0.0,0.0,0.0,0.0,0.0,0.0,0.0,0.0,0.0,0.0,0.0,0.0,0.0,0.0,0.0,0.0,0.0,0.0,0.0,0.0,0.0,0.0,0.0,0.0,0.0,0.0,0.0,0.0,0.0,0.0,0.0,0.0,0.0,0.0,0.0,0.0,0.0,0.0,0.0,0.0,0.0,0.0,0.0,0.0,0.762,0.3661,-0.1612,-0.3461,-0.6584,-1.2376,-1.6663,-2.1425,-2.687,-3.1919,0.0,0.0,0.0,0.0,0.0,0.0,0.0,0.0,0.0,0.0,0.0,0.0,0.0,0.0,0.0,0.0,0.0,0.0,0.0,0.0,0.0,0.0,0.0,0.0,0.0,0.0,0.0,0.0,0.0,0.0,0.0,0.0,0.0,0.0,0.0,0.0,0.0,0.0,0.0,0.0,0.0,0.0,0.0,0.0,0.0,0.0,0.0,0.0,0.0,0.0,0.0,0.0,0.0,0.0,0.0,0.0,0.0,0.0,0.0,0.0,0.0,0.0,0.0,0.0,0.0,0.0,0.0,0.0,0.0,0.0,0.0,0.0,0.0,0.0,0.0,0.0,0.0,0.0,0.0,0.0,0.0,0.0,0.0,0.0,0.0,0.0,0.0,0.0,0.0,0.0,0.0,0.0,0.0,0.0,0.0,0.0,0.0,0.0,0.0,0.0,0.0,0.0,0.8492,0.5453,-0.1392,-0.3992,-0.7323,-1.2376,-1.7546,-2.2443,-2.7085,-3.2215,0.0,0.0,0.0,0.0,0.0,0.0,0.0,0.0,0.0,0.0,0.0,0.0,0.0,0.0,0.0,0.0,0.0,0.0,0.0,0.0,0.0,0.0,0.0,0.0,0.0,0.0,0.0,0.0,0.0,0.0,0.0,0.0,0.0,0.0,0.0,0.0,0.0,0.0,0.0,0.0,0.0,0.0,0.0,0.0,0.0,0.0,0.0,0.0,0.0,0.0,0.0,0.0,0.0,0.0,0.0,0.0,0.0,0.0,0.0,0.0,0.0,0.0,0.0,0.0,0.0,0.0,0.0,0.0,0.0,0.0,0.0,0.0,0.0,0.0,0.0,0.0,0.0,0.0,0.0,0.0,0.0,0.0,0.0,0.0,0.0,0.0,0.0,0.0,0.0,0.0,0.0,0.0,0.0,0.0,0.0,0.0,0.0,0.0,0.0,0.0,0.0,0.0,0.0,0.6639,-0.0212,-0.4178,-0.8265,-1.2692,-1.8917,-2.4059,-2.7499,0.0,0.0,0.0,0.0,0.0,0.0,0.0,0.0,0.0,0.0,0.0,0.0,0.0,0.0,0.0,0.0,0.0,0.0,0.0,0.0,0.0,0.0,0.0,0.0,0.0,0.0,0.0,0.0,0.0,0.0,0.0,0.0,0.0,0.0,0.0,0.0,0.0,0.0,0.0,0.0,0.0,0.0,0.0,0.0,0.0,0.0,0.0,0.0,0.0,0.0,0.0,0.0,0.0,0.0,0.0,0.0,0.0,0.0,0.0,0.0,0.0,0.0,0.0,0.0,0.0,0.0,0.0,0.0,0.0,0.0,0.0,0.0,0.0,0.0,0.0,0.0,0.0,0.0,0.0,0.0,0.0,0.0,0.0,0.0,0.0,0.0,0.0,0.0,0.0,0.0,0.0,0.0,0.0,0.0,0.0,0.0,0.0,0.0,0.0,0.0,0.0,0.0,0.0,0.0,0.3809,0.4705,-0.1894,-0.8584,-1.397,-1.9458,-2.4419,-2.8751,0.0,0.0,0.0,0.0,0.0,0.0,0.0,0.0,0.0,0.0,0.0,0.0,0.0,0.0]}]]]